GFSNW_con_3kmhel_000.txt.gz
Helicity
5 8 32 14 14 28 21 27 84 -46 114 159 164 193 216 156 135 115 105 100 91 56 49 52 83 45 40 73 166 150 161 145 179 220 78 71 123 109 185 238 201 190 184 68
-12 -1 77 49 15 53 26 14 35 40 163 146 157 178 179 175 115 88 71 60 61 65 64 73 -34 89 29 138 172 105 162 108 106 130 138 158 113 107 94 40 28 -34 17 -7
-7 -6 45 68 22 70 106 31 66 144 68 163 136 117 128 119 97 61 67 51 82 68 -16 -24 27 43 34 78 112 119 165 123 160 236 169 70 97 137 91 37 42 94 79 25
-14 7 57 61 14 124 83 68 141 156 108 78 95 115 54 60 74 47 35 21 17 38 -1 -14 5 -22 -33 61 85 135 135 207 195 244 175 143 133 73 121 193 148 103 127 78
-15 32 58 85 57 288 76 81 85 92 58 -6 94 103 36 23 29 29 9 27 12 -8 10 15 19 -15 -1 63 92 170 162 208 258 477 393 343 271 105 50 105 145 202 188 152
1 39 69 87 153 144 34 45 134 92 49 73 82 64 29 24 30 17 18 5 3 8 3 7 -3 -1 -23 -15 66 167 184 309 366 247 114 176 179 196 160 52 108 117 198 320
14 47 79 129 162 114 30 53 211 129 57 -26 29 17 6 26 13 15 35 7 11 8 39 -18 -25 -14 -1 -10 46 268 296 313 270 149 96 156 34 -16 145 228 82 101 140 227
20 49 80 118 173 129 86 43 143 123 33 -35 13 28 62 26 15 -4 -4 4 13 24 -3 -11 -1 4 8 2 87 246 276 251 142 144 122 166 218 107 -16 160 104 143 193 320
28 47 89 116 173 159 118 95 58 164 130 -52 94 67 48 52 29 12 8 12 17 25 10 10 46 10 32 27 19 -1 90 113 54 72 80 51 128 122 70 148 223 254 160 131
30 53 83 122 152 182 90 89 62 194 145 143 107 40 26 50 45 18 -1 -5 5 0 22 42 61 44 39 37 28 -14 2 13 54 68 52 49 44 44 35 108 106 59 127 86
24 63 96 116 147 170 55 112 129 175 161 102 148 95 59 83 61 8 -4 -5 -30 -1 26 83 105 32 39 62 42 15 8 8 -15 -9 -17 -2 -5 5 -16 42 64 19 14 27
16 27 76 97 101 180 104 63 199 150 74 72 62 54 57 43 20 25 15 0 -39 -11 30 66 69 29 27 53 78 23 27 19 13 14 5 2 3 4 23 32 41 -5 25 51
7 25 43 101 106 161 160 83 176 115 112 97 86 44 49 50 49 63 -2 6 43 20 44 48 69 28 23 29 34 10 18 12 38 36 26 1 -21 -2 28 33 18 3 39 72
14 24 45 95 112 134 131 108 154 126 94 78 70 51 36 47 44 54 67 32 50 26 39 89 57 46 41 18 25 27 8 18 32 72 24 -26 10 11 12 15 39 91 99 94
16 26 62 87 134 116 74 157 116 133 109 72 68 42 33 33 34 36 45 28 -8 33 58 57 16 45 44 34 28 44 41 45 48 26 27 21 58 8 20 19 22 42 93 100
12 29 70 128 150 135 74 103 37 73 100 92 95 48 29 34 32 20 24 -12 -13 41 56 91 48 59 90 16 24 19 46 69 50 24 32 85 80 50 38 61 40 53 84 97
-1 36 76 150 173 104 84 191 146 230 117 78 70 88 18 11 9 8 6 14 -5 28 12 68 85 99 72 30 77 68 10 47 66 46 69 83 36 41 82 150 147 154 177 152
24 56 88 130 154 122 141 177 193 130 119 85 60 40 38 8 0 2 14 -10 -38 21 46 66 104 104 98 30 11 26 93 92 123 101 70 64 123 194 179 157 188 224 191 170
72 72 88 42 97 130 172 226 257 70 133 105 53 41 20 21 1 5 4 11 -15 7 33 54 62 57 3 5 -15 21 84 58 94 155 133 129 162 161 152 178 195 226 163 140
30 12 61 155 148 208 157 164 108 118 130 119 57 70 42 25 -13 -14 11 21 -1 12 22 51 36 14 22 -6 -4 5 27 54 130 166 144 129 109 122 135 132 149 168 153 157
37 34 98 184 186 102 225 180 147 132 135 79 74 95 64 40 23 -4 17 13 3 10 14 31 26 41 61 54 -18 39 61 90 46 22 71 74 121 162 166 184 204 209 193 178
92 105 130 166 136 91 144 188 235 141 114 70 89 150 125 74 66 40 30 25 19 4 12 14 28 37 34 75 53 45 76 76 57 41 82 126 185 184 187 198 204 204 200 185
4 66 162 175 119 71 172 243 175 113 85 62 89 116 105 132 92 72 55 40 16 24 19 15 4 24 40 53 69 110 161 173 137 125 146 185 233 210 210 229 206 218 201 152
-71 86 210 165 170 132 137 160 165 124 81 27 67 148 118 134 117 66 48 50 47 29 20 13 7 -1 34 42 73 92 125 159 173 183 201 225 263 281 248 241 196 209 180 145
-94 54 150 100 112 93 127 129 113 111 127 95 69 116 87 121 114 93 73 53 49 21 20 22 19 6 27 49 73 107 161 196 209 205 230 258 294 307 302 244 221 218 195 170
-83 -59 113 80 73 119 89 50 85 96 88 72 141 126 83 81 100 107 52 104 65 50 37 20 7 4 0 26 63 104 157 187 201 208 237 271 280 301 309 274 242 207 177 155
-9 -130 -22 68 93 98 116 81 74 68 117 177 248 201 124 144 115 163 163 132 64 60 33 20 12 5 10 38 76 119 154 198 225 250 268 300 305 321 304 294 229 216 184 155

GFSNW_con_3kmhel_003.txt.gz
Helicity
-0 -24 -17 13 34 52 -80 27 112 76 108 202 194 112 159 147 138 175 122 86 99 99 61 47 55 29 -14 74 162 112 104 141 211 215 228 146 211 232 170 170 167 178 197 16
1 -20 2 51 63 62 -6 107 53 20 114 167 250 207 206 165 135 110 110 98 80 56 22 20 19 15 8 137 152 111 149 192 141 162 193 224 316 347 239 145 160 69 87 124
-0 -13 21 37 33 58 39 11 71 129 164 73 179 171 204 178 127 86 81 69 82 52 25 16 13 2 33 87 70 83 158 238 263 286 242 218 353 275 247 196 194 101 222 210
-11 1 38 40 47 137 28 74 48 149 56 67 110 137 139 124 98 79 55 59 39 32 10 -2 6 -4 -2 85 46 95 208 212 237 366 437 414 409 366 231 234 259 270 48 169
-5 -10 48 64 117 278 23 37 110 118 120 58 89 98 80 80 59 52 30 44 16 25 27 9 -4 -6 13 -8 48 186 193 226 221 330 352 299 345 343 295 296 215 276 181 122
7 4 54 74 135 189 60 50 165 141 95 56 35 42 45 27 27 31 27 30 25 10 8 -19 -33 -32 -35 -2 52 136 133 175 243 376 267 201 118 125 289 258 241 184 272 299
8 23 60 73 116 139 61 43 120 110 63 4 7 13 34 33 28 28 42 12 5 26 32 -4 -22 -19 5 22 33 109 147 198 210 318 222 191 162 48 107 208 189 255 182 131
25 12 45 65 94 128 76 34 75 93 17 14 -67 12 51 33 21 11 -15 -19 -23 2 -5 -10 -10 20 38 29 97 102 215 144 123 225 225 187 219 110 43 124 144 268 277 336
7 20 25 53 77 97 97 45 45 73 48 -48 20 43 23 29 21 2 17 10 -8 -8 -4 -13 40 76 30 12 -6 12 35 62 58 62 103 139 200 147 107 96 98 26 268 281
-7 20 37 69 76 101 93 63 55 45 84 55 -27 -27 36 40 37 16 9 -6 -12 8 11 8 51 70 12 14 5 9 -14 -3 43 53 78 91 95 74 103 77 155 159 88 98
-0 11 32 56 84 82 58 52 26 56 135 127 71 50 65 103 43 11 -3 -11 -13 8 2 1 36 19 22 38 33 43 19 26 1 2 7 11 38 16 24 104 164 66 16 11
-3 17 30 44 110 103 62 36 89 122 102 88 110 87 61 50 24 42 17 6 1 -29 -23 6 26 26 40 54 80 46 62 14 23 26 -6 2 33 82 104 118 126 34 3 -13
17 11 39 52 89 125 75 26 30 69 92 68 60 29 44 59 53 47 19 -3 -11 -13 6 6 31 36 49 69 62 53 21 22 39 28 11 -7 11 24 30 31 55 12 6 21
40 -19 22 55 94 106 117 41 50 52 99 92 57 63 51 60 72 58 60 55 50 -4 -0 4 31 24 28 27 30 39 22 29 29 26 33 -1 6 19 8 5 12 27 62 45
25 -1 -25 41 81 98 94 111 29 100 117 102 75 75 64 59 46 46 63 71 27 -40 -7 29 40 33 15 12 26 9 45 57 47 17 -3 31 27 28 31 33 24 49 74 110
19 25 -14 3 77 105 96 83 50 52 78 97 80 63 60 47 34 43 56 51 36 -8 14 32 44 55 68 -7 5 -17 12 37 42 14 22 42 43 48 30 35 32 69 102 131
16 41 16 17 66 56 53 125 93 164 153 145 91 78 44 37 33 32 44 41 22 -9 13 28 16 32 63 59 40 70 27 14 40 46 44 57 31 39 43 81 105 156 185 189
32 42 38 37 22 52 48 15 116 106 146 127 107 85 74 22 20 26 32 -1 -7 -48 -12 27 17 34 66 18 44 25 48 76 64 65 73 55 76 113 125 127 175 219 200 165
43 14 28 -9 34 86 65 106 144 108 116 139 74 55 79 24 15 -4 -0 11 -20 -19 -5 31 23 36 24 5 7 -6 32 50 45 115 108 84 110 138 148 144 162 211 166 170
10 50 2 45 67 186 179 92 155 127 102 78 30 68 42 28 8 -1 2 -1 -2 -2 -3 6 21 19 59 -21 -4 -3 7 65 107 130 120 131 121 118 116 79 99 133 139 188
78 22 -17 72 142 173 91 108 112 128 98 24 8 52 71 39 44 11 9 5 5 -0 -6 7 31 67 49 71 -40 -56 14 79 72 28 68 55 61 117 157 179 211 228 194 174
88 65 99 123 178 135 74 87 167 97 83 58 43 62 97 73 54 17 12 12 19 2 8 7 4 -1 21 53 52 -14 28 62 39 6 16 59 126 170 201 224 228 214 200 186
32 6 112 91 150 121 176 161 125 80 61 73 56 58 61 85 70 67 50 28 19 21 18 -2 -12 -4 11 31 48 70 59 68 71 58 88 140 207 207 209 240 213 212 215 175
-17 -50 -148 78 86 84 144 215 184 162 99 76 23 67 50 82 92 59 40 48 49 32 29 2 -1 -7 16 38 45 59 94 113 114 110 132 172 229 252 216 218 192 215 203 156
-7 -34 -136 -127 35 10 60 120 172 137 109 114 63 44 27 51 96 94 88 61 47 20 13 25 20 15 25 33 40 53 108 156 152 155 178 209 240 269 293 253 234 242 223 194
17 -19 -64 -93 41 32 44 57 112 97 127 112 80 92 85 80 85 79 50 72 39 19 15 32 28 25 6 1 23 53 97 139 177 183 203 231 245 277 315 288 266 232 205 192
65 53 -37 -59 -52 132 62 57 37 91 98 137 149 150 111 147 107 104 54 112 66 58 65 47 21 11 12 18 33 64 112 154 183 222 246 293 313 332 339 335 268 255 218 204

GFSNW_con_3kmhel_006.txt.gz
Helicity
23 28 15 37 49 27 -40 85 0 16 49 135 136 159 235 183 145 126 105 85 91 4 -24 12 32 23 40 36 85 104 98 68 74 135 74 101 132 166 209 277 404 345 256 70
7 20 26 31 46 25 -37 60 54 70 99 72 211 119 138 165 140 154 81 71 58 32 21 29 13 24 38 57 81 76 91 100 -3 15 57 97 190 228 267 356 247 237 150 178
-6 1 32 43 47 75 -95 52 88 120 110 133 93 85 84 107 111 99 95 69 72 64 34 53 7 12 19 5 53 105 114 143 126 124 93 54 194 255 341 337 277 193 269 345
1 13 42 59 70 150 1 70 126 203 85 80 68 84 95 80 97 56 47 42 30 32 32 25 29 8 35 10 43 95 91 117 129 194 176 143 158 170 222 350 337 140 116 86
24 14 38 60 68 115 121 86 175 156 110 64 70 91 86 61 59 42 38 32 9 14 39 29 25 7 -9 -7 28 112 52 68 40 235 229 239 302 285 187 232 227 120 88 111
32 35 37 49 69 21 86 190 196 129 46 67 47 47 53 41 44 60 53 25 22 28 47 30 11 -12 -16 8 -20 53 45 19 78 227 136 134 92 101 94 131 154 127 108 156
5 43 42 53 70 37 39 68 111 140 48 44 55 69 90 36 34 35 18 35 34 27 32 14 13 -12 -7 13 31 41 39 43 121 226 177 101 98 149 110 98 145 143 195 167
1 41 53 71 75 93 42 61 121 115 26 19 48 70 62 47 48 33 15 5 5 14 4 14 14 5 17 0 35 83 94 93 104 90 182 130 115 82 62 37 21 24 189 155
22 24 58 61 77 112 83 15 70 89 53 -8 -11 17 17 58 47 9 4 -3 3 4 7 17 42 44 26 16 -2 16 -12 62 107 44 47 59 112 84 76 60 38 107 103 187
53 7 48 72 85 112 93 -2 14 68 58 -4 3 22 44 28 32 37 19 11 5 10 11 36 58 63 23 19 2 -18 5 37 49 59 42 33 68 95 83 44 80 123 90 31
63 25 34 71 96 109 74 41 -12 19 65 64 48 20 31 44 40 17 3 -15 3 6 -12 7 -16 3 4 18 24 1 -25 -3 0 7 8 4 55 39 31 64 73 61 32 9
91 34 14 41 76 101 89 28 29 -22 62 104 70 62 63 53 1 12 5 19 11 -5 -26 -30 -9 14 0 30 52 36 18 -2 24 9 7 14 6 67 72 75 65 26 20 -40
84 34 5 12 64 96 83 70 54 27 63 87 49 48 38 51 57 64 9 18 9 7 31 8 5 18 21 45 62 53 13 16 16 18 6 -16 -9 -5 14 38 11 -5 -7 23
75 15 6 6 33 99 106 90 72 40 102 62 56 46 59 62 56 52 53 38 49 27 32 -18 14 34 36 39 44 42 33 25 20 29 8 22 10 7 1 0 -8 14 15 25
43 -5 18 20 0 74 111 125 107 56 63 77 78 68 56 62 47 26 41 33 36 -10 -12 -24 7 9 42 16 4 -9 36 28 48 31 15 7 24 26 19 27 20 22 62 58
12 14 32 22 1 36 108 133 61 50 49 81 114 73 71 56 45 31 25 39 29 16 -2 -24 17 35 56 4 -27 -22 33 51 20 22 16 19 38 36 32 42 25 28 84 93
11 26 29 -2 4 16 107 176 115 117 102 96 128 82 60 56 50 34 30 46 31 23 7 3 41 30 31 61 11 21 15 35 11 31 41 21 28 32 37 60 59 79 125 114
28 18 -4 -5 -9 27 103 104 99 75 155 146 89 68 70 33 32 24 27 25 18 -3 -1 8 3 30 26 -18 56 23 66 61 48 54 61 51 71 75 87 82 93 131 168 161
-2 -31 -25 1 27 98 123 140 95 86 157 175 82 58 62 39 32 22 22 31 7 14 -5 0 12 28 13 41 7 11 28 35 36 96 84 60 55 83 89 95 92 143 131 150
-33 -2 -6 3 71 134 152 90 144 107 136 115 94 89 107 62 45 27 16 10 6 4 4 -7 18 91 87 -33 -6 11 6 33 92 92 94 112 94 88 89 79 77 107 120 139
36 35 5 87 157 163 141 107 130 135 125 65 67 80 78 27 33 14 25 7 -4 -2 -1 -1 0 -9 0 39 10 -93 -44 14 44 15 38 50 74 96 105 118 115 153 144 133
28 11 22 129 134 153 118 106 106 137 111 66 50 78 70 61 58 62 44 21 22 -7 9 6 -9 -37 -7 31 40 26 -34 7 46 13 7 64 99 131 143 175 157 175 162 133
5 -60 15 16 121 126 77 121 149 128 131 99 65 73 62 45 59 90 71 38 19 34 18 11 -23 -17 9 20 37 58 31 71 63 42 29 56 95 136 184 232 195 195 181 149
-16 -46 -53 -82 -1 59 55 76 111 146 89 91 78 100 53 62 80 80 58 59 56 36 21 23 -6 -10 12 16 29 38 50 52 71 62 68 106 156 206 206 221 215 231 209 150
-7 -63 -37 -60 -21 5 58 82 84 94 120 120 73 56 51 64 91 93 104 61 30 -3 -10 0 10 15 10 13 21 30 45 70 79 94 113 132 169 214 248 228 220 203 215 203
16 -27 -85 -119 -82 46 40 38 73 70 142 116 97 110 78 72 76 73 37 30 30 25 8 3 20 17 3 -6 4 21 51 77 107 126 119 139 174 226 284 273 260 261 241 224
26 29 2 -32 -110 -135 56 70 29 64 92 123 146 107 128 127 83 90 75 33 22 31 56 56 51 43 26 7 10 26 53 103 121 139 161 213 255 303 348 363 299 308 285 254

GFSNW_con_3kmhel_009.txt.gz
Helicity
10 11 16 29 33 12 28 15 16 36 65 103 147 82 165 62 113 276 222 114 51 6 19 60 46 52 80 36 41 38 25 22 -28 -12 35 39 9 97 93 216 205 307 237 335
-11 -6 8 31 56 29 16 6 73 61 103 74 73 91 150 103 40 96 111 71 62 56 -12 33 32 38 62 35 31 29 73 -1 -26 -9 42 18 86 62 108 210 194 315 266 286
-7 17 20 36 71 38 23 10 64 67 95 151 15 92 125 110 83 71 62 50 31 32 43 94 30 44 46 28 16 145 58 29 -27 -28 13 34 106 138 96 118 302 249 344 212
-11 22 32 47 85 8 -8 94 38 85 120 106 116 64 39 86 95 62 38 38 30 31 43 26 32 32 44 31 39 42 45 17 13 80 100 49 87 137 154 165 170 196 162 16
-13 -0 23 30 45 40 122 126 108 79 63 111 65 67 22 43 63 45 25 26 14 28 26 62 41 27 17 5 29 12 53 26 19 125 95 66 125 121 73 68 106 177 168 142
-18 -22 -6 -24 9 73 95 135 115 94 50 42 52 61 40 55 12 43 51 27 15 31 65 63 47 31 43 49 37 15 45 29 36 49 43 67 30 78 89 92 99 93 130 150
18 -31 33 20 91 79 58 82 57 56 38 13 19 27 31 20 58 33 31 53 63 65 41 20 22 18 16 2 -1 18 16 30 30 67 81 20 36 112 72 80 40 49 54 114
58 2 27 54 74 109 17 50 64 73 26 23 59 42 43 39 25 40 29 49 47 45 38 37 47 23 14 15 20 25 12 4 17 14 54 149 58 101 114 78 70 60 43 12
83 39 -27 64 100 94 61 32 85 80 95 20 46 47 58 66 40 26 17 20 25 22 32 38 60 39 18 29 35 12 -13 21 21 29 24 20 19 64 106 80 56 14 13 99
103 74 25 -43 95 129 93 41 80 58 68 75 66 51 61 38 28 46 25 11 19 25 21 45 50 50 35 36 23 15 25 40 38 22 19 36 42 30 63 33 38 16 27 56
103 89 41 5 13 123 106 69 29 33 68 65 68 70 41 35 36 47 15 2 6 11 16 24 28 26 24 19 24 12 -2 14 18 28 20 8 36 20 16 32 25 27 79 25
102 94 48 14 -7 69 110 81 97 20 57 89 89 91 69 78 71 23 10 22 13 16 -4 -1 -8 -5 28 23 26 23 19 23 43 19 26 21 10 20 13 34 33 -0 -14 -10
87 85 30 4 3 -5 89 123 111 63 70 116 93 57 22 33 51 54 12 20 18 10 39 18 -2 -10 20 32 -0 36 22 16 32 33 7 16 34 2 18 11 15 -14 -18 4
83 70 6 -2 13 9 41 110 101 117 110 146 131 76 71 75 62 63 54 24 35 43 31 19 6 16 6 26 43 48 63 28 36 19 30 5 20 15 13 4 -13 3 41 40
80 72 19 10 17 9 17 73 99 95 121 126 151 112 76 101 53 29 35 20 20 29 9 23 21 32 16 10 30 -9 14 23 30 29 29 10 30 21 11 18 23 26 44 60
80 59 18 22 14 1 27 113 60 69 72 109 151 83 57 76 80 55 39 37 47 39 35 19 33 48 24 28 20 -1 -16 10 2 15 48 41 23 35 32 40 37 47 85 81
69 39 18 -5 -28 10 31 146 99 99 90 104 137 67 62 76 75 58 41 27 29 44 29 35 38 39 50 83 34 39 83 75 51 51 42 23 15 31 34 43 70 80 104 102
41 -11 -24 -30 -6 21 51 64 82 72 130 105 107 89 66 56 60 44 26 16 18 17 30 44 28 27 43 19 37 57 40 36 36 43 55 71 53 47 61 63 81 119 128 112
13 -63 -49 8 5 19 74 51 45 97 125 166 100 88 73 61 49 42 13 30 11 33 33 23 12 36 38 -0 41 37 35 49 50 105 86 71 48 49 66 76 90 137 127 115
-0 58 52 24 -5 79 99 74 159 131 136 128 98 58 71 48 54 28 23 11 15 9 7 3 5 64 115 105 -11 -4 42 28 76 92 85 106 96 69 69 65 84 115 134 124
39 4 -35 -45 67 80 82 154 144 128 118 90 98 76 82 60 57 22 22 12 -1 -11 -3 -14 1 -22 -31 17 37 12 -2 5 36 27 56 50 59 59 73 93 125 145 143 126
-36 -42 -16 -2 63 85 112 132 101 150 126 101 110 88 91 84 58 41 28 10 6 -20 2 -7 -0 -44 -9 1 16 33 37 -20 30 38 33 16 35 68 116 155 160 154 157 158
-51 -0 -19 -22 11 21 101 125 132 120 153 107 117 95 103 73 74 70 55 21 13 20 -0 -9 -36 -26 -23 -4 10 37 51 42 30 60 62 69 75 100 157 174 162 189 196 154
-39 -38 -52 -75 -76 -47 78 78 98 96 118 147 91 98 110 105 104 84 50 51 33 -0 1 -6 7 17 20 12 13 31 40 49 94 65 61 90 133 133 116 153 208 227 225 178
5 -26 -65 -90 -56 -33 46 45 48 68 85 116 102 83 81 73 74 65 72 36 -1 -8 10 19 14 50 32 28 41 50 19 52 57 58 64 81 125 174 195 191 231 234 239 224
16 6 -12 -42 -49 -70 49 43 55 55 102 89 83 111 92 101 106 76 43 32 12 48 51 42 33 44 47 41 28 48 45 -3 63 54 69 92 128 161 206 232 230 247 259 252
15 17 36 19 -35 -47 -37 60 42 45 59 105 127 129 126 131 103 123 100 52 54 32 34 40 51 57 68 61 46 23 14 33 47 55 75 117 162 210 257 299 274 301 300 280

GFSNW_con_3kmhel_012.txt.gz
Helicity
5 -4 -12 -13 -27 56 -0 7 6 59 55 98 117 23 112 98 148 163 129 52 28 53 30 47 58 70 96 6 41 29 43 68 55 85 33 13 112 120 105 213 186 262 289 237
3 -13 -24 -19 -22 -48 12 39 75 95 73 164 122 54 106 142 131 184 124 82 71 6 -9 109 67 94 43 75 48 52 56 53 27 -9 19 55 89 63 97 200 200 358 332 514
3 -3 -8 6 -30 -40 -25 66 78 114 67 105 40 55 38 29 117 138 118 117 80 29 33 94 70 76 38 34 34 99 63 55 -21 -53 10 25 63 132 146 162 333 353 561 385
6 -8 -0 10 -7 47 35 79 42 70 138 97 44 65 79 52 84 109 113 94 50 34 48 64 54 35 53 37 46 54 88 14 13 2 14 4 16 24 71 167 219 298 248 177
32 -13 -3 12 34 103 75 16 69 132 111 -3 65 53 63 73 15 51 31 17 21 63 45 70 15 36 19 31 47 62 55 21 11 25 101 65 113 109 152 146 149 190 187 223
44 10 -30 12 64 91 81 51 27 34 26 21 25 25 34 51 51 34 67 28 18 60 98 84 83 88 62 65 46 33 43 27 20 18 35 28 27 60 114 116 169 187 237 257
47 49 -16 37 83 110 75 30 31 26 9 28 19 26 23 31 61 38 45 79 55 51 43 27 30 36 26 23 55 82 48 45 29 38 57 2 31 107 167 162 120 108 207 118
52 49 41 -55 60 104 86 52 36 31 39 28 25 27 30 26 32 35 31 57 54 35 34 43 42 34 25 -1 12 48 79 49 16 15 29 51 -2 75 105 138 107 103 93 55
66 55 53 22 -74 104 85 58 60 76 59 56 122 43 48 55 42 19 28 26 24 27 41 50 54 49 39 17 24 11 11 -2 4 20 12 13 38 33 109 108 87 98 70 35
41 55 57 58 18 -16 112 90 71 87 57 58 100 92 85 49 47 50 35 29 25 29 41 58 62 57 55 17 9 29 31 11 5 15 23 11 10 54 88 54 83 56 78 29
27 40 49 57 68 38 16 66 101 114 91 74 91 115 105 70 51 53 41 23 24 28 53 55 53 46 39 27 28 25 40 8 19 32 16 1 20 32 42 76 73 42 48 41
34 42 37 53 68 68 43 -20 87 93 81 126 105 94 98 61 100 70 24 35 16 22 32 19 36 29 27 49 26 50 29 25 35 39 19 12 -5 58 56 88 74 12 24 45
40 55 44 60 52 75 61 12 8 90 58 83 72 58 65 36 74 63 34 23 23 23 32 5 11 19 22 23 30 11 13 -5 45 49 -1 -22 10 38 51 42 35 5 25 69
53 63 60 55 38 62 60 51 14 116 114 113 112 95 106 82 58 58 51 37 50 32 31 19 3 2 -7 15 30 7 25 42 27 26 35 36 54 19 6 21 13 34 57 70
54 64 67 58 52 69 62 61 45 65 130 145 156 137 66 89 77 45 54 36 33 30 30 34 15 21 6 30 14 -34 17 11 54 43 -6 25 41 20 6 29 40 49 95 100
49 55 52 49 50 73 97 57 70 54 49 114 148 115 86 86 104 59 41 40 51 51 25 38 66 52 41 19 51 33 75 52 51 29 2 33 47 41 37 44 50 67 80 106
42 41 4 -5 19 72 67 13 57 128 86 104 101 110 78 69 113 106 84 72 52 46 26 45 70 64 83 71 166 191 67 104 100 43 61 33 32 37 48 69 76 80 102 134
38 3 -20 -9 33 23 4 -2 32 56 107 95 139 117 92 69 77 86 66 53 43 25 26 45 36 37 43 61 68 47 87 41 10 57 88 70 95 105 88 66 80 104 117 142
8 -10 -3 58 24 -5 -37 45 -6 29 77 159 112 89 84 60 64 71 56 50 19 6 5 11 30 34 6 -23 25 42 37 21 44 92 105 92 94 98 81 55 66 100 112 131
-8 38 35 -2 -63 38 50 71 89 70 96 111 109 71 92 70 59 44 37 36 41 26 15 7 9 -34 -50 -57 33 -10 -20 -17 63 71 70 94 102 96 90 48 69 92 99 118
-11 -68 -53 -68 -56 29 92 116 109 94 118 83 83 88 84 76 71 57 43 34 25 7 -0 -11 -1 -31 -11 -13 -29 14 37 38 26 34 28 67 94 109 93 92 108 123 124 138
-47 -6 31 34 29 50 109 110 80 94 93 95 105 68 58 50 61 50 32 14 13 -9 -4 -9 -6 7 -36 -10 -9 -18 38 63 25 28 33 31 61 57 77 124 147 155 169 173
-26 -29 -41 -15 -1 -14 78 63 75 68 99 108 134 113 90 69 66 62 30 6 -20 19 7 8 2 -10 5 23 22 45 8 48 137 56 43 69 141 71 103 179 157 191 171 151
-26 -37 -31 -31 -40 -39 28 64 63 49 82 98 91 116 102 101 87 63 32 12 18 1 10 -3 15 12 41 25 11 26 32 54 3 44 60 68 152 163 132 170 178 238 167 163
19 -8 11 -21 -40 -28 28 32 57 64 90 117 108 89 79 99 97 69 68 33 8 -3 -1 19 -3 38 47 47 39 35 18 -71 54 60 37 56 105 174 195 156 159 168 230 253
39 20 21 28 -9 -29 -27 36 44 35 74 89 113 122 98 87 85 68 48 47 22 33 36 37 54 74 61 56 59 43 24 11 -31 23 90 47 92 126 167 213 221 221 253 274
37 23 24 49 53 34 24 37 62 46 59 95 113 116 121 139 102 99 89 58 74 62 44 41 47 63 89 49 28 25 26 8 11 22 -16 64 83 125 177 209 208 268 277 286

GFSNW_con_3kmhel_015.txt.gz
Helicity
-4 7 11 5 30 -23 33 86 149 103 90 72 38 123 142 31 134 181 104 49 86 123 145 80 60 33 63 -50 62 37 42 31 23 -7 12 57 121 106 171 106 99 188 232 288
1 7 17 -8 -19 -34 67 105 88 104 103 38 118 116 153 161 123 113 50 54 79 39 80 72 88 76 87 5 40 48 39 27 30 53 77 70 69 73 110 134 195 242 195 282
1 3 1 -11 -80 1 46 93 187 184 100 26 137 94 59 106 168 127 84 42 -1 -56 62 75 28 93 77 89 87 40 72 32 16 -3 22 56 -19 33 101 231 255 289 472 414
9 -14 -2 -23 16 46 40 85 111 99 53 11 -13 32 46 96 136 114 77 93 44 13 59 97 71 63 72 76 85 69 80 30 35 -9 -41 -35 40 81 113 172 223 256 311 190
15 -8 -14 2 50 77 63 91 48 -5 29 29 13 4 43 55 37 49 98 49 76 96 50 33 32 45 43 32 61 68 78 37 22 5 16 2 -6 36 77 153 176 252 267 312
-2 8 -6 -12 30 41 59 63 60 9 15 -10 -0 31 20 -2 -2 27 50 61 40 74 83 71 76 72 55 41 52 64 59 41 -0 8 34 6 2 12 86 139 186 171 202 170
-5 3 3 -7 68 70 -2 -21 -12 -12 8 9 -6 6 15 18 38 12 49 81 40 35 50 54 66 65 61 63 54 88 64 34 17 11 40 23 -4 17 86 156 138 145 173 103
22 -4 10 -3 -14 112 17 -1 -30 -4 33 62 31 7 23 45 46 42 53 63 57 36 44 57 45 46 47 27 57 110 100 58 15 22 20 12 14 7 47 123 80 103 140 81
11 21 14 2 4 45 85 42 40 -8 -5 71 73 51 51 49 34 50 50 37 42 49 49 62 14 23 31 18 28 35 78 56 45 21 9 19 17 3 62 94 50 65 137 115
15 10 17 20 22 32 45 31 93 34 7 26 74 121 105 68 67 64 54 37 44 37 62 61 52 48 49 15 2 15 41 49 12 12 12 9 9 2 76 36 60 81 85 90
18 17 12 15 30 50 94 62 66 107 49 10 81 94 120 135 86 80 40 67 46 59 70 65 64 57 55 42 29 18 44 38 30 30 22 7 17 56 35 68 86 74 47 86
24 32 27 28 37 46 78 78 73 79 83 34 125 110 115 54 74 85 54 44 32 27 60 49 53 54 53 42 34 63 40 39 22 27 9 -3 6 2 57 70 71 41 36 70
31 40 43 46 55 55 73 93 86 93 68 12 -7 69 88 35 37 45 64 39 25 39 32 29 29 38 35 27 21 41 46 66 46 34 41 40 6 32 27 20 37 30 51 99
29 36 47 63 75 62 55 126 95 92 66 98 156 155 154 85 65 70 48 30 58 45 40 23 22 26 19 17 13 2 31 60 37 28 30 1 23 22 11 5 16 37 76 83
24 30 47 52 64 40 78 101 87 86 63 100 106 205 121 107 79 55 63 55 46 38 33 34 20 33 20 21 10 62 73 49 51 35 42 19 -3 9 27 28 25 47 99 100
24 26 52 35 22 11 89 61 35 26 73 -9 118 100 110 109 98 69 62 66 61 34 15 19 24 28 43 24 114 143 124 146 109 59 20 -17 -29 8 38 39 37 57 78 88
18 32 28 18 -14 51 58 5 7 105 47 13 192 186 106 111 130 120 107 99 51 33 22 26 34 30 25 71 94 80 77 71 100 36 46 4 17 15 37 56 58 83 93 107
12 4 -4 21 18 32 4 -63 60 -0 54 27 182 150 143 106 98 86 87 65 62 32 28 25 11 11 9 -27 -15 75 90 146 79 32 6 30 65 73 72 82 101 109 114 112
-14 -10 28 39 17 -2 -48 26 -15 -21 16 117 156 154 149 106 150 124 117 91 50 33 16 17 13 22 -14 -6 -28 61 12 20 39 37 55 79 66 60 90 107 108 102 85 90
-39 -10 -36 -42 -68 -13 63 59 80 20 87 126 97 115 111 99 102 65 53 65 67 36 27 17 9 6 6 -5 -33 -40 38 27 35 53 73 67 71 79 80 97 102 92 76 89
-38 -13 -22 -15 -33 25 55 92 81 85 105 65 71 82 64 122 84 60 53 51 46 53 21 23 12 22 6 2 -14 -20 -33 67 59 28 27 21 50 87 108 121 113 187 136 89
-13 13 32 25 -18 -6 -4 51 41 52 60 69 55 80 94 93 84 57 49 32 27 3 37 24 28 40 26 11 22 31 29 -1 91 51 26 2 19 67 96 131 127 99 163 145
21 -22 -38 -23 -11 -55 -48 35 36 33 57 55 70 53 55 60 56 58 40 12 5 24 27 28 31 30 32 30 26 61 54 42 45 130 46 4 40 113 129 149 166 168 173 154
22 27 -13 -15 -32 -46 -68 38 37 33 43 76 82 101 89 72 65 49 30 26 28 9 13 13 21 32 61 50 35 48 68 11 -1 135 71 25 59 116 166 117 160 169 167 137
28 37 21 11 -17 -20 -8 35 40 51 65 74 82 90 88 93 83 59 60 43 21 3 7 27 14 39 46 55 59 57 59 38 -52 37 63 35 46 103 130 88 117 167 159 100
41 39 34 25 36 -1 -16 30 26 38 85 106 106 102 84 78 90 84 62 58 27 27 48 33 54 62 65 68 56 44 37 23 20 -3 -34 55 42 68 77 102 92 72 92 129
48 29 31 39 45 44 26 36 47 49 48 78 117 105 90 104 91 103 91 68 70 86 72 48 54 48 41 55 45 52 34 15 2 -8 3 4 14 67 117 128 127 156 178 203

GFSNW_con_3kmhel_018.txt.gz
Helicity
-8 -24 -24 16 57 80 32 91 75 108 66 136 244 -15 52 167 185 144 90 32 89 126 128 65 47 34 42 8 40 47 62 32 32 20 51 61 82 68 109 55 9 13 46 142
-13 -23 -27 31 60 38 97 131 113 85 60 133 117 231 192 160 122 97 37 28 48 114 91 54 66 48 59 -13 45 75 63 47 52 54 37 64 24 51 90 68 76 50 122 83
-5 -15 -35 20 71 49 74 69 61 104 138 100 56 70 98 101 95 75 11 20 47 80 68 54 61 89 87 51 45 32 84 27 12 -3 1 42 13 -15 36 85 84 158 354 292
-3 -24 25 54 111 84 13 -25 30 86 79 29 14 2 53 89 74 68 17 -26 -48 18 53 83 69 78 103 113 66 60 53 4 9 -3 -16 -21 -12 8 52 197 247 170 293 173
-4 -9 21 88 110 70 -70 -31 1 -2 66 72 31 -9 15 49 27 26 71 17 2 23 58 45 43 52 72 45 87 88 75 26 20 6 -2 -16 12 31 79 105 108 201 240 290
0 2 19 81 110 16 -47 -37 -23 -3 27 46 22 36 -13 -6 12 17 49 15 56 104 66 78 60 28 19 24 85 144 77 44 17 8 34 -4 4 42 76 78 132 180 192 206
14 3 13 29 68 85 -19 -32 -23 -10 14 28 -1 -7 17 20 21 -4 41 59 40 44 61 61 82 103 93 55 51 82 61 80 40 8 9 13 31 37 13 111 95 131 137 128
7 13 6 12 17 46 29 -18 -10 -36 -31 5 15 40 21 24 44 44 43 55 52 58 72 68 57 67 70 57 43 68 78 65 26 7 1 9 17 28 17 26 36 26 117 102
17 8 14 13 14 26 26 30 47 29 1 -5 11 20 32 55 45 65 53 58 78 71 78 75 28 19 56 53 50 70 74 66 36 13 13 29 34 45 27 37 17 14 89 88
36 19 17 1 15 27 37 28 51 70 68 20 97 51 67 102 90 62 65 58 68 71 87 71 54 49 70 41 36 36 40 35 28 33 26 35 56 21 24 25 -6 66 72 73
27 28 24 18 20 24 40 35 78 95 114 -7 95 114 90 73 78 91 67 107 82 91 83 71 67 62 66 42 31 24 27 33 40 33 37 30 29 40 16 16 44 52 58 82
22 37 40 35 34 43 57 61 95 127 106 83 111 1 83 55 74 86 91 86 74 55 90 62 62 57 68 47 36 46 24 39 21 26 23 21 5 22 24 37 29 40 49 78
26 38 38 43 47 61 76 127 117 172 133 77 118 75 -5 71 49 56 101 87 54 50 47 49 43 51 49 37 21 43 45 55 46 45 40 52 50 38 43 25 8 8 40 79
31 30 36 50 66 72 96 188 139 182 185 210 121 101 70 107 50 41 29 102 69 57 52 54 25 24 26 29 15 19 15 63 35 15 7 14 24 30 13 8 13 13 51 70
17 24 33 46 75 74 91 124 128 146 190 212 95 124 137 126 49 44 64 70 72 62 48 43 20 17 25 18 25 42 19 45 60 11 25 25 19 0 -15 15 23 14 55 79
15 22 42 69 70 44 113 91 69 52 84 32 -22 37 135 106 101 81 65 65 64 49 29 16 14 26 23 20 43 34 35 57 36 14 55 19 5 -22 3 31 33 20 41 69
9 23 40 20 28 70 90 69 48 27 18 -26 -135 97 103 108 140 140 117 95 59 53 25 22 35 29 7 45 40 5 26 72 143 38 48 40 51 13 23 36 42 53 62 75
5 -2 10 29 58 39 18 17 45 23 33 37 41 247 129 123 179 151 122 106 80 47 28 36 33 35 13 10 -21 -53 -6 19 26 149 96 44 31 62 61 66 75 86 83 75
-19 -36 14 11 -23 -30 -35 6 15 40 1 136 226 234 149 132 181 116 135 89 72 63 49 53 44 50 27 3 -24 -57 -38 32 39 60 52 21 20 21 49 70 89 101 90 83
-27 7 10 3 -24 -12 28 41 13 48 125 146 168 170 161 119 152 131 117 93 78 72 57 51 49 59 35 -1 -31 -59 -45 -37 15 23 41 55 71 85 80 76 94 124 121 136
-11 3 -2 3 16 5 -8 -1 46 66 116 102 121 121 138 154 130 129 115 85 79 92 87 65 53 34 31 9 -13 -13 -11 -11 6 26 32 -6 8 48 102 95 103 130 153 204
7 3 43 19 -27 -30 -59 -29 34 50 61 54 79 93 125 128 111 81 59 68 47 44 47 42 34 31 32 33 37 45 36 21 34 22 93 65 48 55 96 101 132 137 167 274
22 32 -20 -8 -31 -71 -68 -55 25 35 37 41 62 80 106 99 84 51 35 25 12 43 37 31 45 53 46 55 49 69 75 50 22 71 122 155 65 29 62 122 119 159 139 108
26 13 24 19 8 -50 -41 -34 48 34 46 65 62 58 67 74 79 51 42 29 36 27 22 19 34 30 54 64 61 63 98 46 -9 47 138 104 54 52 84 157 119 135 138 102
70 60 44 35 37 40 25 14 17 33 58 76 72 61 67 82 69 61 60 51 25 18 17 39 31 41 48 55 58 58 48 48 43 12 72 67 62 55 54 90 90 112 159 145
95 102 82 26 40 47 43 22 10 39 68 86 81 80 63 57 95 95 75 67 30 35 39 42 51 57 59 63 65 59 46 34 24 13 9 -16 10 17 30 54 95 89 86 84
75 59 49 34 34 22 38 26 31 51 56 90 110 99 83 75 71 72 59 36 37 47 55 52 46 47 45 52 51 43 46 50 42 28 15 -5 3 17 31 50 50 79 68 85

GFSNW_con_3kmhel_021.txt.gz
Helicity
-14 -31 -32 0 17 69 25 88 55 119 115 56 98 123 151 89 102 108 101 33 84 83 94 72 74 30 43 19 34 35 46 19 38 25 40 28 48 39 75 68 45 60 41 51
-2 -41 21 10 58 -4 45 61 104 120 103 15 75 123 127 122 54 47 24 24 38 64 91 44 48 23 19 13 47 37 37 47 39 51 37 56 37 51 89 99 62 55 55 -8
4 8 61 63 85 71 6 46 23 93 94 101 53 49 56 27 44 15 6 31 56 96 79 54 34 46 53 -5 1 37 57 17 12 17 12 29 32 30 79 115 62 58 132 180
8 7 46 76 98 82 3 12 28 39 -2 -6 43 63 61 52 27 32 -10 -19 44 65 52 63 52 73 79 62 16 59 43 1 8 9 7 4 -2 -8 18 68 118 108 107 175
11 13 22 89 108 52 -29 6 12 23 49 82 26 26 51 51 31 22 20 -51 -7 22 51 33 55 61 72 43 70 60 61 22 18 8 12 5 -10 -1 27 86 116 182 240 233
9 14 13 48 112 75 -57 -36 -9 9 9 22 18 20 1 14 27 48 45 21 42 64 44 35 39 45 49 17 71 97 59 26 3 9 39 29 10 53 78 46 56 128 151 194
13 1 19 31 50 66 -8 5 -13 -7 -12 -13 5 21 32 23 11 2 41 36 32 33 41 56 81 98 69 48 54 84 70 68 44 16 40 0 13 54 11 69 51 137 82 86
19 4 18 29 32 42 21 36 56 20 -21 -38 -17 -19 14 35 55 43 41 40 34 59 77 71 65 67 64 57 47 62 74 77 42 31 26 -2 2 26 19 2 23 36 63 77
13 6 15 30 27 32 20 23 25 58 16 4 43 12 10 9 48 76 66 67 72 91 81 74 37 21 50 49 62 86 83 75 52 29 11 19 28 54 32 26 33 3 74 49
-4 4 3 14 23 33 34 34 38 57 58 54 88 75 102 111 79 78 97 74 87 101 92 67 46 54 83 51 42 58 69 56 37 24 8 39 19 33 34 27 7 17 82 50
18 -2 19 10 14 17 38 26 59 65 87 72 92 113 135 173 151 122 97 130 105 116 96 80 69 66 76 65 52 36 51 47 53 52 28 34 35 68 29 4 21 16 57 61
50 -11 8 16 20 20 45 28 51 83 73 82 87 76 59 84 131 156 165 124 83 94 123 106 90 83 74 63 53 80 43 45 17 25 18 24 31 51 25 30 37 31 47 48
71 22 11 11 24 45 76 82 94 95 38 -6 54 81 97 55 47 72 144 121 88 81 77 82 83 80 75 64 57 56 36 43 46 36 33 18 7 37 56 32 32 27 25 44
21 35 9 6 33 37 80 139 131 178 154 69 40 95 153 122 120 74 54 60 130 96 93 95 75 63 49 55 42 33 34 64 50 28 3 16 21 45 31 15 2 18 36 30
19 29 6 13 42 80 120 128 123 145 183 225 124 65 215 122 85 46 40 13 115 108 98 89 79 52 41 37 35 36 62 25 32 27 26 5 21 7 -6 -16 -3 17 41 40
-3 3 -1 37 55 79 127 98 56 44 92 141 170 84 122 103 47 48 12 29 106 149 73 65 51 44 40 38 36 14 32 32 10 -3 -38 -14 3 11 9 8 7 32 27 35
17 -7 -7 -11 19 71 75 50 28 44 113 98 36 9 46 63 45 40 77 104 107 100 83 59 42 28 28 29 45 67 43 12 -6 -25 8 20 39 53 31 33 47 57 66 57
7 6 -24 6 64 49 -16 2 44 73 85 65 112 174 109 39 76 150 93 134 100 53 50 40 29 46 40 31 34 11 -34 -48 -6 50 5 14 57 46 58 64 65 62 65 74
15 19 20 41 20 4 4 1 61 61 127 233 177 120 53 51 158 136 132 102 73 71 59 58 53 57 43 43 20 -14 -42 -56 -32 1 1 -5 31 54 36 48 53 60 71 90
8 29 23 -2 27 43 48 35 52 131 178 183 212 208 92 88 133 113 111 71 51 57 50 78 57 58 95 63 -1 -13 -21 -27 -27 -34 -6 10 45 50 54 51 54 73 89 114
10 -1 0 25 49 39 -1 -13 -9 63 82 88 144 157 123 113 82 82 76 75 80 45 75 90 64 35 82 72 33 -8 -9 -6 -28 -14 8 30 22 0 23 44 66 86 114 128
7 25 45 39 3 -9 -29 -28 -16 26 37 55 63 69 95 101 106 66 95 79 95 100 95 128 65 59 73 35 14 16 15 27 30 2 -3 43 53 29 35 54 93 116 142 159
26 9 0 12 -11 -16 -36 -46 -32 26 38 49 63 76 103 113 90 101 121 67 49 39 38 34 26 62 67 59 42 51 37 39 23 -33 26 115 134 109 64 71 99 141 141 158
43 43 39 10 23 18 -8 -7 8 28 29 43 69 96 69 90 97 77 61 45 35 21 19 22 61 68 62 67 52 53 71 52 30 -9 7 89 153 110 67 71 89 120 137 128
49 54 61 58 41 51 43 22 13 8 33 52 55 55 68 95 91 101 77 49 20 5 17 34 47 47 59 68 66 69 65 47 36 9 -25 -12 39 37 40 39 66 102 121 137
56 71 74 48 76 77 88 41 23 -5 41 67 78 84 76 71 79 65 60 64 32 24 26 48 52 50 67 80 79 64 58 59 51 30 15 5 -12 -13 -11 9 36 57 77 87
41 42 49 50 17 41 35 41 41 45 64 111 110 100 99 99 81 71 65 56 52 5 39 62 65 70 68 71 63 45 42 40 42 49 39 16 9 1 7 7 6 42 36 32

GFSNW_con_3kmhel_024.txt.gz
Helicity
9 10 44 34 -17 13 63 78 58 79 52 62 69 59 76 109 128 73 45 21 47 64 77 76 63 32 34 32 40 44 65 51 40 38 34 32 44 32 63 47 27 54 39 30
14 11 49 61 26 13 50 54 81 84 54 25 85 69 67 82 49 42 31 15 29 55 73 45 43 16 16 13 52 30 24 47 23 32 34 43 37 31 63 69 67 42 41 24
17 16 30 66 76 35 11 10 10 43 27 67 53 61 60 43 34 21 20 17 46 64 67 59 46 33 34 2 35 54 44 20 11 4 16 22 34 40 70 86 59 47 64 48
33 22 20 56 103 45 0 6 15 5 23 36 59 53 33 20 7 11 6 11 3 24 44 47 39 45 57 46 31 65 34 10 10 11 5 12 14 16 35 71 83 37 27 52
22 27 18 40 92 45 -16 -6 4 14 29 32 42 22 36 36 20 13 -7 14 41 28 18 21 15 61 61 28 45 43 45 6 -2 18 16 0 12 -1 18 32 45 110 114 126
12 10 25 32 53 33 -4 -30 -5 2 6 -3 7 5 12 43 34 30 29 -2 17 44 50 35 20 68 76 22 64 68 42 20 4 20 21 20 14 23 50 96 95 77 55 87
24 22 32 41 38 15 -6 26 -49 -31 -12 -14 8 23 24 29 28 16 36 41 28 11 28 47 69 72 83 49 54 59 61 60 23 8 29 25 17 31 58 35 24 71 25 41
16 67 36 47 38 33 0 1 50 52 -57 -32 -15 43 -8 33 45 48 35 38 39 42 57 70 63 51 50 52 53 57 72 65 30 26 25 22 19 36 39 22 20 -17 44 26
26 47 33 40 40 26 -7 8 8 28 22 -11 57 66 86 47 31 71 55 57 71 86 66 58 20 20 32 36 58 118 104 92 70 24 23 29 33 70 54 21 51 3 39 -27
50 53 16 10 26 26 13 12 19 33 51 45 42 38 80 113 109 87 109 98 94 101 85 68 43 39 66 42 41 49 93 70 46 46 30 42 36 24 31 47 34 18 14 5
35 93 56 12 -27 -8 17 25 43 37 49 58 71 86 74 107 119 124 139 167 148 143 108 86 63 59 53 72 64 55 72 44 46 52 36 52 41 63 38 24 29 16 14 7
38 58 110 49 -25 -28 9 3 35 63 60 69 65 82 66 58 63 139 183 195 142 137 149 124 99 85 78 70 84 107 64 57 40 29 34 25 44 55 52 47 44 18 26 15
-12 18 82 52 29 -19 7 37 61 61 16 25 5 -18 124 104 55 83 146 176 167 138 116 104 99 91 89 78 64 103 65 53 56 54 35 29 19 27 29 22 11 11 14 24
7 -3 45 27 27 3 -12 57 97 101 65 49 69 73 24 81 78 91 82 84 273 209 112 135 120 91 67 59 54 64 60 76 58 59 3 -27 1 47 36 39 8 14 13 29
11 -1 -4 5 -3 -2 47 105 107 123 114 119 141 88 127 140 136 152 89 26 -19 206 124 148 121 88 78 69 58 35 67 39 72 57 43 -3 -11 17 -11 -23 8 7 17 36
0 -19 13 -11 -18 -11 85 38 31 36 73 81 100 66 99 121 148 115 50 68 23 93 97 128 100 86 98 64 39 35 35 42 44 11 21 -5 0 23 57 31 33 29 24 27
-10 26 1 -16 -18 77 16 11 4 28 93 93 46 18 52 36 52 93 -18 81 -43 34 92 137 107 92 82 63 41 56 74 79 26 4 6 21 62 40 76 66 59 61 58 52
15 25 4 -16 57 39 5 19 87 103 85 88 70 110 58 24 32 9 86 66 28 140 149 126 101 113 81 33 47 59 53 13 -12 48 9 4 7 20 53 59 59 53 49 47
23 4 1 64 33 23 26 42 49 118 80 47 88 30 55 2 -88 20 52 141 91 82 112 88 100 76 32 25 49 43 31 -4 -29 -47 -47 -22 10 8 45 46 54 46 40 53
-12 15 12 11 12 57 -22 37 20 36 94 117 124 80 13 33 80 127 46 71 150 96 67 62 71 46 99 111 73 38 8 0 -11 -19 -36 -2 45 28 52 60 45 38 46 66
28 25 11 29 25 32 12 -28 -7 6 25 57 103 121 108 62 64 72 55 41 62 80 69 63 36 29 67 105 75 48 24 19 13 11 -5 -29 -2 42 50 39 42 39 50 85
26 32 46 46 33 1 -29 -28 -8 10 4 51 70 54 59 58 53 41 60 38 50 41 84 90 33 86 89 83 65 27 31 33 33 30 7 9 46 56 66 54 44 50 62 98
30 24 28 29 32 26 16 -9 -10 -10 10 27 93 65 38 44 54 39 29 32 42 68 71 60 69 81 75 75 58 52 46 47 45 33 -19 0 58 88 95 71 42 68 89 102
19 32 37 46 47 54 34 17 11 20 9 33 57 70 55 49 79 48 55 78 68 44 18 18 38 45 68 89 80 68 79 79 57 33 -7 2 47 82 120 100 52 57 74 107
14 37 20 39 47 36 30 34 32 4 -6 14 37 49 61 61 82 82 86 57 5 1 9 21 36 54 56 76 82 73 64 54 36 17 3 -11 -5 -2 0 -5 15 37 57 91
38 31 30 30 59 64 64 46 45 10 5 27 43 67 63 73 89 74 63 73 46 34 23 33 50 43 42 70 81 66 50 46 40 32 18 7 0 -7 -5 -8 -19 6 43 73
14 18 37 39 40 33 26 24 11 25 52 80 102 87 106 94 77 80 70 54 64 33 10 39 54 47 48 59 67 63 50 37 25 16 15 6 4 -3 12 23 23 7 -1 14

GFSNW_con_3kmhel_027.txt.gz
Helicity
11 34 51 78 42 55 23 52 46 59 44 34 117 83 75 86 73 60 32 13 16 46 64 54 58 34 33 23 30 50 51 57 53 68 50 55 57 50 58 42 42 52 59 61
18 27 56 83 90 26 -25 3 44 55 48 43 65 76 64 63 41 33 12 9 6 21 56 31 43 38 51 6 45 30 25 66 77 63 46 59 41 48 65 64 56 35 42 49
12 8 53 77 112 55 -9 -4 4 32 11 31 50 54 61 40 9 -8 -13 -32 -17 29 65 67 45 40 48 18 29 39 48 41 28 23 27 32 33 42 55 56 48 41 47 42
19 9 31 84 102 78 3 -9 7 -1 -15 2 52 31 46 38 28 18 26 38 -24 7 50 59 35 53 50 50 28 79 46 17 21 20 18 29 30 20 25 67 91 39 44 41
19 5 21 68 102 56 14 13 -13 16 -13 16 12 -2 -17 2 -2 -6 4 4 -14 -35 31 35 -11 45 47 22 37 62 74 17 11 27 22 5 26 22 18 19 33 71 54 77
7 -1 28 43 78 36 28 43 17 -12 1 17 11 13 11 11 -3 -1 -9 2 20 38 47 36 24 30 44 -5 27 58 37 15 22 32 26 21 23 34 51 56 75 71 44 50
15 8 41 44 48 39 -2 35 49 36 -23 24 15 4 23 20 21 8 5 20 16 -3 9 27 63 76 72 53 55 41 35 43 28 22 22 24 18 19 27 61 50 66 42 33
21 16 50 58 39 25 8 13 49 90 51 56 58 64 49 2 21 25 16 16 12 29 37 53 52 38 43 51 62 35 56 66 30 31 28 18 18 30 45 57 70 20 15 28
46 27 33 51 59 18 2 8 2 35 84 81 99 94 96 76 65 58 47 55 65 71 57 64 35 28 22 35 47 98 94 83 50 24 33 34 41 73 56 63 72 29 8 -9
32 21 18 24 13 23 -1 7 -11 29 56 36 50 62 76 107 116 87 100 100 98 97 94 82 56 40 43 43 39 45 91 83 70 49 36 33 26 42 62 56 40 42 8 -15
10 12 5 10 -12 41 4 10 -6 11 36 68 50 70 68 88 89 82 152 150 152 153 99 100 74 62 42 69 52 47 41 50 62 61 54 46 48 87 74 61 68 49 28 8
4 -7 -28 44 28 13 14 59 1 26 49 61 46 60 68 90 50 125 172 218 176 137 157 140 107 100 87 70 61 90 69 73 49 33 33 33 47 122 78 75 59 38 29 19
7 15 -15 19 41 -9 -29 -7 12 -17 -23 30 41 63 77 27 48 103 190 182 191 215 182 147 136 111 112 96 52 67 61 83 65 62 33 22 14 37 -0 19 41 33 22 31
21 15 -3 -21 34 10 3 26 45 46 29 5 44 33 57 46 80 147 131 112 233 143 210 174 179 128 78 68 63 58 67 108 73 61 23 12 5 32 52 50 49 32 17 21
45 31 -21 -1 11 -0 -8 17 64 89 67 57 95 95 113 72 109 124 111 161 61 69 200 198 181 136 109 94 84 50 79 83 101 47 25 41 18 30 16 -25 -2 13 19 33
50 10 -9 10 -18 -26 11 -1 8 -0 29 -0 -11 27 73 108 77 74 80 100 127 42 153 148 103 108 126 82 60 34 54 67 68 56 52 10 15 24 41 28 61 60 38 37
15 -15 40 15 -21 9 1 -1 27 62 50 35 26 -12 62 47 66 98 94 102 103 -77 27 184 122 129 121 97 64 28 32 67 75 60 36 15 13 29 36 44 60 74 74 68
-16 -4 45 -0 29 12 -2 -1 75 82 57 38 28 -34 16 121 67 21 27 68 -34 49 -38 60 140 158 141 69 28 74 92 92 56 73 49 13 -1 24 25 21 60 63 66 56
-9 -6 16 40 9 -4 -20 4 39 81 46 47 59 67 12 54 92 32 -10 -4 32 39 38 80 156 138 64 29 39 57 49 53 42 26 4 -7 -2 15 36 49 53 60 68 52
12 41 14 8 -9 -45 -39 43 11 22 19 55 99 130 90 37 15 -1 16 37 35 22 92 140 102 44 55 69 85 83 57 42 34 9 -1 -14 -6 6 36 30 35 56 68 55
18 -24 -7 12 -14 -17 -22 -9 -2 11 26 40 92 137 106 65 41 18 19 31 34 38 71 89 52 21 47 96 97 81 57 45 28 13 20 32 21 31 42 42 40 30 39 51
24 35 59 31 16 17 24 13 -14 3 9 14 56 89 56 37 39 8 13 13 26 52 70 75 18 28 70 77 70 66 61 54 45 48 34 7 -8 36 83 76 69 50 51 60
33 9 -6 -10 4 22 43 32 24 18 15 -1 25 65 18 19 24 24 21 10 7 2 20 33 34 55 78 95 77 56 60 67 52 40 35 16 2 37 63 95 93 75 44 50
-8 -11 -12 -9 22 33 50 57 38 18 11 4 12 20 24 14 25 17 2 18 29 26 23 24 29 26 41 46 61 67 83 69 45 34 10 -30 -29 28 60 89 115 75 51 42
4 5 -23 -23 -3 23 52 40 45 14 5 -2 6 9 23 34 26 25 46 13 8 -1 12 14 17 52 60 70 71 76 65 67 58 41 41 14 -27 -22 -2 -12 -34 -25 11 15
20 -14 -4 17 22 3 13 -8 -11 -9 5 5 20 42 52 44 72 60 36 42 24 34 42 46 75 43 32 27 48 62 59 56 50 43 32 18 8 -11 -25 -20 -7 -3 -1 -7
28 14 38 33 27 20 -10 -6 -4 8 18 53 64 73 77 90 72 78 76 61 73 63 29 11 22 43 38 42 40 46 62 56 38 19 13 7 3 -0 12 21 16 5 9 14

GFSNW_con_3kmhel_030.txt.gz
Helicity
10 22 55 46 63 99 17 30 13 16 21 -3 48 53 58 87 79 55 42 12 20 37 35 41 53 42 34 28 46 54 65 55 77 78 64 71 59 62 64 91 60 65 124 100
22 8 55 61 62 69 -6 -3 5 23 12 -54 -14 49 50 40 44 31 24 12 23 22 40 38 52 46 54 12 43 42 33 64 82 69 49 52 50 44 60 53 40 49 89 65
18 9 27 79 85 85 8 4 -3 -1 -3 -10 -57 -20 23 26 -11 -18 -13 -18 -4 26 38 58 45 45 58 31 38 51 61 57 79 66 69 62 57 31 39 52 44 54 61 75
8 7 9 91 101 87 10 17 2 3 5 11 -7 6 17 -8 2 -5 -12 -29 -21 -17 40 45 33 49 53 41 26 56 54 42 44 39 35 37 53 33 17 42 63 39 72 53
11 7 5 93 111 75 27 39 25 4 -8 17 11 6 -16 0 -15 -26 -1 17 42 -31 46 35 -4 29 28 30 42 52 70 36 27 22 23 14 26 20 16 11 1 3 28 58
24 15 18 70 100 66 40 57 47 36 6 -8 -2 14 21 22 2 -3 -29 -8 7 27 41 39 43 29 34 28 21 38 40 30 20 28 23 33 21 38 37 37 31 28 16 38
26 30 25 59 84 48 16 47 63 57 50 39 20 36 32 22 27 4 -13 -8 -3 21 34 33 56 77 72 39 36 14 22 38 43 39 32 18 35 33 19 16 2 14 29 42
31 25 11 49 81 41 15 22 61 83 67 72 65 70 55 29 19 17 13 17 25 17 22 40 35 34 30 40 44 19 31 34 38 48 37 41 21 25 35 26 72 31 33 49
36 13 9 11 52 49 1 4 7 58 103 88 110 108 106 102 94 67 52 50 56 55 42 39 31 23 24 27 26 58 40 38 31 35 52 53 42 65 48 59 72 77 25 30
17 12 4 7 10 14 23 -2 -17 30 68 69 73 76 93 109 120 109 101 100 84 86 77 52 33 32 50 31 25 42 62 64 29 34 48 40 28 90 96 63 67 63 34 17
15 13 -4 -4 26 24 -12 19 1 2 46 59 54 70 65 79 84 95 144 129 125 138 28 68 83 55 53 49 41 39 39 37 53 53 56 42 59 98 71 109 89 61 59 28
22 14 10 -19 17 -7 -20 -20 -3 -38 -4 67 24 27 33 39 69 111 150 190 133 160 145 149 137 98 80 77 55 71 45 49 47 28 48 47 29 108 117 87 82 62 56 41
24 41 17 6 -16 6 -31 -11 16 22 5 39 29 78 104 19 6 109 185 171 192 211 229 190 167 128 116 88 72 68 26 43 58 53 24 1 32 24 52 44 53 71 55 40
34 52 38 3 -5 26 20 31 52 45 22 46 62 86 50 73 84 110 106 135 260 252 239 220 189 158 113 106 106 71 88 77 46 29 34 57 48 55 69 44 37 41 34 10
53 70 20 2 12 -5 -9 48 48 49 31 22 69 73 18 8 35 72 73 81 133 186 194 243 224 190 134 120 103 60 95 96 92 51 41 50 67 86 63 35 21 12 18 30
62 40 18 -10 15 -10 12 -20 -25 -20 -6 36 8 -17 -24 1 20 39 77 108 145 143 73 11 224 167 162 86 77 25 46 93 86 62 68 60 69 55 37 43 43 22 33 38
58 27 17 -1 11 32 -8 -6 7 27 48 16 -44 -44 -3 68 92 105 125 141 149 122 -159 -38 63 81 94 146 91 35 30 46 74 81 58 35 42 63 50 39 58 58 55 66
28 40 33 -2 62 41 -1 -3 -1 84 15 -6 -20 -3 5 110 134 111 88 89 75 60 -8 -94 30 54 128 81 30 63 88 95 76 72 73 56 26 9 3 15 21 42 57 61
-5 8 43 27 32 2 8 -54 -23 76 -6 -14 24 4 0 88 120 107 113 57 -13 32 16 -50 -23 90 84 32 40 39 52 62 67 70 54 30 20 26 19 24 32 34 51 69
6 43 41 -3 37 14 -36 -26 -14 -5 -8 1 44 79 93 38 40 99 8 58 19 8 4 18 10 16 69 76 74 76 76 74 63 54 44 38 18 13 20 15 7 11 32 60
-2 2 5 52 -1 6 10 -2 2 2 9 26 31 79 147 82 53 26 84 35 -2 11 0 17 31 11 39 69 90 102 93 76 53 39 38 31 23 23 36 58 56 42 41 49
43 24 15 -12 -13 -10 30 19 15 13 19 4 5 34 81 40 13 12 -11 3 2 4 27 37 -3 15 38 52 67 75 71 56 46 39 44 43 11 -18 -16 47 94 111 65 63
52 -2 -38 -32 -12 8 44 97 45 36 26 13 -23 7 15 7 -4 8 5 0 -6 6 1 12 22 43 59 67 94 96 76 61 48 52 47 42 9 -30 35 41 64 90 84 69
26 5 -22 -35 -25 -34 -35 -4 43 49 54 60 37 9 7 13 19 18 13 12 14 12 22 22 24 29 43 67 91 85 76 61 58 60 50 34 -19 -54 16 39 70 97 83 45
54 42 -13 -28 -12 -14 -5 -3 3 -8 -15 -8 20 4 -5 23 37 33 30 15 5 -8 14 26 20 46 47 40 33 40 52 66 62 65 55 40 -11 -11 -1 19 26 13 5 12
70 50 39 44 21 -14 2 2 -9 3 -7 -15 -28 -2 27 45 49 64 36 34 21 14 44 55 78 57 35 37 32 41 59 70 75 55 51 42 10 -11 -23 -25 -19 -14 -5 2
52 41 34 64 38 12 -8 -15 -12 3 -5 -1 29 38 59 75 74 72 49 48 63 75 55 23 5 23 33 33 33 53 73 63 48 33 37 22 15 12 14 19 18 14 15 14

GFSNW_con_3kmhel_033.txt.gz
Helicity
2 18 32 26 79 101 3 22 13 -22 5 -27 29 46 35 56 45 31 17 8 21 7 7 10 28 21 35 32 55 52 64 62 111 73 75 115 128 92 60 94 54 87 137 107
20 5 21 36 90 77 30 7 5 -18 -28 -22 -25 -14 15 47 28 8 -3 5 16 13 12 14 23 44 42 49 54 50 34 54 95 96 62 48 55 42 85 104 120 75 115 53
42 14 27 47 105 99 2 24 7 9 -17 -2 -1 -30 -28 -9 2 7 8 8 -8 0 14 42 30 36 53 38 51 72 71 51 88 116 91 82 83 45 43 67 60 53 74 67
47 21 24 64 123 117 8 60 37 22 -2 23 17 12 16 11 8 -14 -24 -5 17 14 21 33 30 46 47 45 33 44 62 57 67 79 71 57 54 48 32 47 54 63 83 66
28 22 32 72 135 151 29 80 70 49 8 44 33 25 36 40 14 -4 -2 -7 27 50 49 52 26 18 30 28 27 28 43 37 43 53 34 32 48 33 20 9 17 20 50 58
49 23 21 60 118 96 46 54 60 72 40 34 59 58 51 45 19 13 4 25 10 20 60 48 53 51 45 45 29 19 32 43 33 35 22 26 22 19 28 29 38 31 11 17
38 36 21 46 83 89 41 43 58 99 76 57 59 52 52 38 37 27 5 10 13 16 19 22 29 46 69 60 46 25 17 38 47 36 32 36 37 53 38 16 22 8 20 39
25 21 17 33 67 62 50 27 43 95 117 95 37 50 40 42 18 22 25 23 27 11 15 19 31 29 24 29 28 17 4 17 37 49 33 53 19 21 29 23 15 19 2 30
11 10 6 34 20 55 11 20 0 41 104 97 111 102 71 57 69 43 57 46 42 33 24 27 40 28 28 30 19 29 20 19 32 38 45 41 48 29 38 26 30 54 22 33
10 19 13 37 46 25 6 -19 -22 2 60 77 104 111 127 119 99 83 72 81 76 66 39 32 31 30 63 34 32 33 38 29 26 32 46 43 24 51 65 55 58 87 69 60
21 20 26 19 32 14 6 2 -22 -4 -4 50 37 63 77 79 76 82 108 73 83 111 6 4 69 38 35 45 39 42 46 48 43 41 48 41 71 97 81 110 87 79 82 71
27 14 19 25 20 33 39 1 -5 -14 -2 68 66 36 48 54 51 71 84 143 132 173 91 98 102 51 92 44 41 55 66 66 62 43 53 46 26 87 117 94 71 68 61 63
21 32 31 28 33 26 36 55 8 -29 -24 25 23 26 39 54 36 60 125 112 176 187 186 184 170 123 91 67 15 48 45 49 73 50 27 21 38 43 74 88 79 69 65 60
47 43 44 20 20 16 20 35 17 -1 14 16 53 49 82 50 56 40 59 71 97 169 129 174 190 166 111 85 107 73 64 72 51 52 36 55 35 29 35 44 52 52 49 48
84 71 36 17 15 -7 14 11 4 -4 21 51 87 23 29 32 13 27 45 67 104 162 175 211 214 204 152 130 127 95 93 67 68 61 23 37 77 55 115 66 44 39 26 24
70 68 52 22 -13 15 26 -15 7 1 -13 9 -13 12 10 8 2 -5 -13 54 132 175 213 215 124 154 262 160 104 51 24 22 34 37 66 89 102 83 82 62 61 55 37 17
38 32 25 32 -22 37 7 9 45 46 13 22 45 22 1 13 32 40 70 102 141 159 204 198 156 42 106 171 127 80 29 40 60 94 82 55 55 78 65 55 50 43 28 30
3 9 8 41 36 41 28 39 30 -2 4 10 6 5 3 42 33 50 133 124 120 147 137 85 75 -48 -117 122 58 90 45 49 57 66 94 102 85 53 34 23 15 10 13 29
16 0 39 71 52 57 26 -5 -39 -2 2 5 4 26 10 61 67 104 122 117 87 121 92 28 15 -112 -56 56 70 39 53 46 52 85 81 69 46 52 34 22 14 4 7 29
56 61 2 -2 60 25 13 24 0 9 -1 -5 2 19 55 74 72 96 134 106 94 126 79 -2 28 -367 -111 -3 40 68 85 72 69 71 64 64 50 41 41 29 33 28 21 19
72 78 1 9 -1 11 17 21 -1 14 3 0 0 11 60 31 58 69 82 98 72 62 31 -1 -36 -52 4 79 47 42 65 74 72 79 70 55 60 61 39 31 34 45 58 67
104 83 53 28 -20 -19 -25 12 14 10 30 2 27 51 28 11 -4 35 54 38 50 16 27 -11 -6 12 29 42 55 61 74 71 61 56 57 66 65 58 28 29 54 58 92 138
83 95 91 33 -42 -64 -46 -24 -18 -1 17 18 28 55 4 -14 -1 -14 17 -9 -7 -18 -11 37 10 -6 13 21 39 63 77 65 65 68 65 73 59 3 -26 33 45 37 62 79
73 97 83 81 -21 -57 -41 -26 -14 28 28 -3 -15 7 2 7 4 21 37 21 2 0 4 9 25 17 37 52 70 81 91 87 89 84 78 66 30 -9 11 16 45 22 51 69
53 88 90 102 76 77 27 21 4 -5 -3 -17 -8 -11 -15 10 7 23 32 30 20 4 7 33 13 26 39 52 61 73 91 95 91 90 78 56 10 17 18 18 11 31 58 31
66 59 97 113 96 77 68 4 -23 -11 -28 -26 -12 -7 7 16 45 50 50 53 33 34 20 23 66 45 32 50 48 47 62 96 103 88 66 43 27 6 -2 -4 -3 -3 -10 -12
101 80 74 84 111 96 79 40 15 44 -21 -34 -29 -21 13 39 56 58 43 44 35 34 41 45 36 25 20 35 53 58 70 83 82 64 35 24 23 10 13 12 8 11 8 6

GFSNW_con_3kmhel_036.txt.gz
Helicity
44 44 9 13 47 98 13 12 12 43 11 -0 -0 30 18 35 35 2 5 12 45 8 -0 20 14 23 42 52 23 39 72 85 121 94 114 164 95 88 164 108 123 156 169 118
33 31 17 13 73 46 41 28 18 24 -13 33 17 -13 5 18 7 12 1 2 1 15 17 9 31 39 21 49 77 58 31 61 119 85 64 91 93 81 77 124 132 87 109 99
29 35 22 28 92 61 10 42 43 34 19 17 67 17 21 12 1 -13 -13 -0 -7 -2 10 24 24 22 30 48 50 65 80 57 85 108 99 78 92 76 86 135 123 95 101 137
49 43 18 18 116 105 12 51 63 58 49 38 57 42 49 28 12 -20 -20 -15 -6 -0 13 22 26 52 31 27 27 41 76 72 73 84 85 91 75 72 73 104 110 103 90 71
41 38 32 14 108 138 21 69 70 74 42 48 27 35 43 63 35 18 12 7 14 36 75 64 37 34 28 32 51 42 58 55 79 69 54 59 63 56 66 69 55 44 106 126
40 31 21 20 58 45 32 33 54 71 72 72 79 79 75 55 54 15 14 35 37 33 61 86 80 55 35 40 34 38 47 57 53 61 44 30 38 32 56 68 78 60 53 48
33 20 7 14 25 22 5 28 42 89 130 143 93 80 71 64 53 33 28 26 23 18 4 -4 30 43 62 49 43 39 46 42 58 49 43 47 20 56 35 69 49 49 31 63
35 25 4 14 10 -3 -3 32 35 81 105 123 113 128 88 75 20 13 28 31 26 17 29 15 23 28 32 31 40 27 31 41 34 30 22 30 32 30 45 53 24 64 50 62
37 36 18 34 41 18 1 6 -5 45 119 99 103 101 87 96 109 40 29 24 34 29 21 16 24 23 3 35 32 31 33 36 31 24 33 18 25 15 32 51 37 26 84 60
47 52 37 21 19 27 16 29 -7 -14 31 70 91 93 91 107 126 91 81 67 62 58 50 45 38 33 51 37 33 33 51 55 32 28 27 32 8 11 37 42 33 65 88 68
49 45 61 34 31 27 34 39 16 -0 12 60 44 63 101 96 107 149 128 78 77 83 86 74 47 44 36 36 47 60 63 55 55 55 47 29 65 64 61 50 83 67 84 82
51 49 60 44 56 46 52 34 31 23 2 42 46 94 43 77 89 78 94 105 105 101 93 107 80 99 90 60 54 103 61 66 42 38 23 25 12 55 98 79 65 68 63 82
60 63 52 34 41 34 52 46 45 29 2 60 27 65 100 67 45 57 84 84 118 117 104 99 115 108 105 85 -6 106 70 44 69 82 35 31 43 86 87 79 78 71 87 79
77 71 63 39 35 27 38 61 35 35 18 35 39 34 69 87 87 62 37 82 133 140 96 127 157 151 137 104 84 65 104 77 83 76 31 49 45 62 74 81 69 64 64 55
78 64 53 39 34 8 41 52 24 7 6 51 78 63 40 21 15 18 27 32 44 57 66 127 180 208 144 114 103 113 138 126 144 68 25 68 62 77 139 129 81 74 58 50
79 67 43 44 27 15 43 70 49 71 20 7 57 -1 -10 4 3 2 3 18 42 106 130 136 150 175 214 196 166 115 75 79 79 68 92 106 151 168 158 134 105 87 58 35
76 61 57 37 46 49 50 53 85 117 11 -4 4 20 5 11 9 7 7 46 82 90 107 140 178 170 166 180 223 159 75 66 107 129 145 137 113 97 101 98 83 64 45 41
64 85 86 88 85 83 68 54 88 -12 8 -7 1 5 18 16 13 10 59 80 90 102 115 155 95 119 193 264 96 75 161 117 148 148 160 135 121 92 70 58 43 30 20 17
67 88 108 83 59 60 64 56 -8 -2 -1 7 -0 9 32 13 33 43 97 116 109 114 166 104 136 109 145 83 -56 9 251 111 32 130 104 93 90 88 55 37 39 18 17 26
83 108 117 107 95 27 1 33 17 5 16 13 -1 -0 10 26 19 33 58 115 100 108 101 143 180 218 92 -18 -18 18 84 94 87 97 76 83 77 76 86 54 25 26 24 28
70 85 100 74 37 48 -34 -50 -28 -10 -11 10 28 46 66 41 9 37 61 68 68 79 91 17 61 56 36 -28 -1 91 65 65 60 63 62 64 60 57 49 24 33 47 66 60
58 61 57 40 44 57 5 -73 -63 -45 -36 -2 4 48 28 -2 -7 -11 27 51 59 48 98 64 20 51 32 96 94 49 62 51 32 50 53 55 55 46 34 43 49 57 81 82
49 47 65 70 56 97 120 19 -41 -31 15 39 15 23 1 -23 -24 -6 3 33 57 42 39 29 16 -6 -0 -3 -28 36 52 56 65 65 69 69 76 55 14 -1 34 43 72 69
51 63 41 66 78 88 104 96 122 88 30 -0 -7 4 4 6 -3 6 8 18 8 19 13 -3 7 -4 23 32 36 29 55 74 66 68 67 75 61 37 45 46 61 74 85 34
61 94 95 61 73 82 88 97 97 84 80 -18 -6 -19 -2 -17 12 13 14 16 27 17 22 -5 -17 30 24 32 43 57 68 80 91 90 85 75 54 43 45 31 7 17 16 41
88 90 106 90 93 84 87 91 82 78 58 38 -26 -73 -49 -28 -18 25 39 36 34 36 -9 -21 -22 17 29 35 43 52 53 65 76 84 88 81 55 47 21 6 2 -2 2 6
106 89 70 81 78 80 85 90 98 93 82 68 32 -37 -49 -25 -6 8 22 53 27 32 27 -14 -6 6 8 24 36 46 50 56 77 101 97 67 38 17 15 13 4 6 7 8

GFSNW_con_3kmhel_039.txt.gz
Helicity
43 45 28 16 -23 53 14 5 14 17 33 31 47 51 -2 4 2 -19 -7 12 39 26 23 23 7 -3 19 -1 -26 98 124 112 195 140 67 163 221 151 172 119 146 127 121 112
50 40 28 18 -1 -19 47 18 14 12 12 66 65 22 34 40 30 5 2 3 -5 9 31 11 15 18 30 71 44 14 31 91 164 113 127 169 149 107 117 126 114 71 86 93
34 32 21 18 7 -17 27 23 4 26 37 32 44 64 37 25 13 4 7 11 16 15 14 20 18 29 20 31 41 58 53 55 50 64 60 104 109 97 98 118 157 87 16 31
29 23 7 19 31 -0 25 12 12 46 44 66 58 54 61 43 36 18 12 16 13 24 14 14 29 31 32 28 31 60 53 67 77 86 80 85 79 112 116 97 96 112 82 99
28 17 3 14 36 -0 18 28 22 31 50 75 83 79 88 67 54 39 19 22 15 50 68 47 38 43 25 24 40 45 59 57 85 81 57 68 76 65 82 76 63 63 77 86
24 13 15 8 14 26 52 16 3 47 82 150 125 100 84 66 53 27 27 20 22 47 39 47 25 22 16 29 40 48 59 66 72 66 75 66 64 49 79 105 115 87 9 76
15 11 15 36 27 26 13 29 41 67 85 158 148 136 108 99 77 46 39 20 18 16 53 62 53 63 39 20 28 52 60 65 68 45 77 75 32 44 61 109 105 154 89 42
16 24 21 37 37 30 30 29 28 56 73 133 119 142 83 115 96 38 34 27 8 10 21 18 18 18 19 23 39 46 55 52 55 48 52 19 -4 35 41 63 28 70 81 35
18 37 26 16 29 33 42 47 38 22 57 108 111 108 102 95 113 79 39 18 27 30 29 29 18 20 11 25 18 39 51 50 45 39 19 15 38 36 30 62 36 33 92 75
24 26 33 25 28 24 39 36 43 38 31 46 84 125 105 102 108 97 67 66 80 56 69 56 41 32 20 31 29 27 38 53 48 30 17 27 10 13 33 45 28 50 62 79
34 29 34 22 40 48 62 44 28 49 39 43 55 85 89 107 113 105 113 83 111 108 94 84 66 42 32 43 39 50 47 37 47 54 49 29 32 61 20 12 41 36 80 77
40 41 32 25 51 44 63 59 69 69 39 29 45 40 85 31 66 89 108 113 99 99 86 105 70 66 75 57 52 87 52 56 24 44 21 8 13 17 38 32 38 37 47 58
49 41 40 31 44 45 54 77 56 62 42 54 63 52 71 72 52 37 77 87 96 89 75 71 81 57 75 46 38 86 86 83 50 51 44 40 29 63 51 52 55 55 56 66
57 39 38 34 32 12 36 62 42 70 47 35 27 9 26 48 92 79 63 65 89 65 56 89 119 113 135 109 103 77 96 112 99 90 69 49 33 53 77 93 84 89 79 71
43 33 29 28 33 -4 55 69 68 70 47 24 25 23 22 8 18 60 107 74 47 22 20 63 62 105 92 91 59 122 131 112 124 86 35 60 51 54 123 110 75 67 70 70
72 49 29 26 14 10 69 70 89 62 43 -18 -17 -77 -56 -32 -22 -12 -1 23 36 57 58 69 70 95 139 158 168 98 88 89 96 68 81 33 67 126 171 160 118 92 72 59
75 65 59 45 42 66 57 59 85 51 36 9 -45 -39 -11 -1 -10 -2 7 18 28 42 40 56 69 91 170 246 229 159 171 298 190 55 168 132 118 97 150 137 114 98 77 48
75 65 60 75 109 102 52 39 53 28 12 -0 -25 -27 -10 1 7 15 -2 7 24 47 59 72 99 102 175 181 150 152 -78 132 245 180 213 143 138 138 133 116 89 72 57 40
66 83 71 65 76 69 46 10 21 9 -1 -9 -10 -14 -15 13 -2 -3 3 10 24 37 46 55 91 99 71 160 92 104 -7 -88 88 118 125 133 130 115 107 85 68 47 33 27
67 70 53 50 55 50 35 48 -15 -30 -12 -22 -28 1 -3 33 16 -24 -4 13 13 39 30 112 103 74 133 131 65 23 -200 -195 50 85 116 134 111 69 66 59 41 30 13 14
42 35 49 43 11 41 60 78 71 10 -32 7 20 36 32 11 5 18 -24 -5 16 11 54 120 73 50 84 8 7 16 7 19 123 55 88 79 65 55 49 51 43 31 32 37
46 52 54 38 22 25 54 82 95 114 86 26 22 32 45 -4 -4 -12 -18 -0 -2 -3 110 63 29 23 50 29 28 1 43 86 57 62 34 51 52 41 30 41 55 61 53 58
36 44 63 72 37 32 77 30 44 84 106 115 107 -13 14 -5 -18 -10 -12 -4 2 27 25 39 41 -46 -30 50 7 12 24 33 40 18 37 35 37 47 36 13 5 -26 -2 56
50 56 84 99 69 48 52 65 65 78 112 107 113 105 -7 5 -3 -14 7 19 23 7 23 20 -22 -32 -30 -36 4 -0 -5 10 22 40 48 39 25 32 36 30 17 19 28 51
40 49 98 106 68 47 57 66 71 75 90 104 90 62 80 -42 -39 -17 -16 9 12 38 81 59 50 -5 -22 -31 9 40 40 41 50 49 49 56 66 50 38 32 19 7 26 35
64 71 102 76 81 54 60 70 67 68 78 79 80 50 57 88 -11 -6 1 17 70 -0 -18 25 29 4 -21 16 6 36 41 51 61 59 47 87 110 69 51 32 24 7 2 1
82 35 50 82 62 53 59 63 66 69 85 75 83 82 88 94 91 6 -8 -51 -173 -143 -114 -91 -65 -25 7 12 28 30 58 60 50 33 66 97 96 68 60 54 37 12 4 9

GFSNW_con_3kmhel_042.txt.gz
Helicity
17 8 -8 -14 -19 9 12 30 20 4 13 32 49 79 34 6 -4 -16 -16 25 38 29 42 42 22 15 37 29 104 123 114 64 105 116 70 137 190 180 246 215 193 201 138 56
8 -11 -12 -11 -22 -13 50 39 31 11 25 55 62 54 65 51 37 8 1 -0 15 41 37 20 28 35 35 -5 73 73 59 76 145 138 123 159 129 182 214 272 232 88 126 89
-4 -14 -15 -3 -13 -24 45 45 48 20 14 41 64 72 59 55 29 18 21 20 30 26 25 33 22 40 49 45 39 45 83 64 47 63 51 129 154 164 194 191 132 117 67 60
-24 -15 -6 1 -0 -10 36 36 46 30 18 33 83 79 56 32 46 46 35 37 33 30 20 26 40 47 53 44 46 66 58 45 59 71 60 69 57 109 155 130 132 117 25 -24
-25 -10 18 20 28 6 46 64 54 25 27 36 85 90 128 74 68 62 54 54 75 47 46 55 35 50 39 37 35 47 67 51 75 84 74 79 79 66 69 100 41 23 23 -22
-13 3 28 25 36 21 51 28 16 42 70 82 97 104 86 82 80 54 50 50 35 48 38 44 46 29 17 33 34 55 62 65 73 65 89 79 66 27 102 98 119 146 106 143
1 5 24 29 32 41 1 32 34 43 59 89 135 129 105 100 81 61 62 48 38 23 65 23 21 40 40 29 39 54 65 81 85 43 92 86 36 73 66 134 123 124 109 114
6 -0 17 25 30 47 31 22 42 48 71 59 117 160 81 92 109 72 64 62 30 32 35 35 43 43 29 14 24 44 69 80 67 65 53 -1 -10 41 56 72 41 94 103 106
7 -4 11 20 31 29 33 30 26 40 52 53 95 109 96 105 139 115 73 67 63 31 21 27 20 14 9 33 39 65 65 77 67 47 15 11 52 78 45 45 35 44 83 96
13 14 11 16 42 32 27 23 44 59 45 20 47 91 102 100 107 103 77 80 83 51 49 42 31 29 21 30 33 30 55 59 40 31 25 19 11 17 24 36 28 51 41 102
19 18 15 21 37 31 25 16 25 48 55 24 46 61 87 99 92 100 112 80 70 75 70 69 66 48 42 42 40 48 51 39 49 58 59 34 20 47 30 13 22 27 25 97
36 26 16 23 34 26 29 44 14 42 47 33 38 25 35 68 46 96 130 114 99 99 83 95 74 70 63 50 48 78 58 61 29 46 25 14 2 3 17 35 33 33 33 51
77 56 37 37 28 -6 38 33 22 29 28 -1 21 47 52 53 72 32 81 85 90 95 82 61 56 51 64 32 14 57 70 89 70 61 37 33 26 31 31 28 25 40 43 47
91 75 63 45 33 -2 42 25 30 33 11 14 4 6 15 24 16 59 61 67 66 50 55 54 51 65 77 78 96 81 84 103 83 99 94 64 50 35 42 49 51 52 66 67
101 93 69 43 15 37 52 38 42 21 -1 -38 -31 36 69 -28 -24 28 80 72 61 40 50 61 61 48 60 52 55 81 161 121 137 56 46 71 69 55 92 98 73 63 75 80
98 89 83 42 13 54 35 40 44 -4 -9 -11 -19 11 52 -27 -39 -54 -32 10 36 37 33 15 37 53 54 47 110 77 14 71 90 68 124 97 74 48 76 118 91 86 78 76
88 86 69 63 54 15 35 43 20 -6 4 12 -19 -30 61 55 -15 -4 8 24 18 27 31 47 57 57 63 135 130 45 6 -3 93 140 99 96 72 61 91 149 152 129 100 82
82 75 82 83 94 71 1 -12 -8 -50 -24 -24 11 -21 -5 29 10 -6 8 16 28 18 10 11 34 39 62 12 19 57 27 35 168 168 186 220 81 162 180 170 134 117 89 76
70 93 78 28 30 47 48 30 40 25 4 2 14 15 -18 18 12 -2 15 7 9 7 4 -6 30 37 11 70 59 14 32 -8 64 -97 98 277 171 185 169 143 128 83 69 51
72 37 37 38 51 38 20 27 19 53 54 54 70 13 -14 36 13 -21 4 20 14 17 -2 45 18 -7 37 46 27 6 46 36 -22 68 207 166 186 115 133 110 84 66 46 36
22 34 43 39 15 38 48 39 25 25 28 70 97 120 95 5 11 17 -3 5 13 22 16 39 4 -3 -7 23 26 21 2 24 58 56 87 68 132 67 65 75 73 65 54 30
25 47 47 33 41 43 64 41 36 47 52 66 103 132 163 12 -2 -3 4 9 12 4 60 15 -12 -21 6 -20 -6 -28 5 -16 52 85 91 38 69 88 69 52 57 55 48 47
16 47 55 70 54 94 104 72 42 44 41 65 92 89 108 95 52 -20 -16 -1 13 46 15 14 30 79 69 -0 -9 -18 -14 47 27 23 37 48 58 98 93 73 59 37 30 26
20 44 64 88 85 92 85 66 58 39 67 51 76 64 62 85 55 47 -9 -8 10 33 102 94 113 49 78 22 -15 -13 -9 3 25 42 37 65 70 43 41 58 40 27 25 26
-7 43 77 76 84 74 57 36 40 44 49 50 56 52 60 25 26 36 53 -8 23 54 47 26 3 -10 -14 -13 -18 -14 2 -2 24 38 47 49 53 40 64 43 25 12 11 21
28 41 59 44 101 103 85 59 51 32 51 50 37 32 40 72 60 66 42 69 15 -82 -101 -135 -104 -98 -82 -63 -33 -9 18 18 18 39 44 51 45 102 110 57 51 44 30 17
113 60 48 69 101 115 102 82 59 52 73 68 70 102 84 58 97 89 67 81 76 15 -86 -92 -105 -79 -72 -71 -57 -21 19 63 51 32 54 54 52 106 112 97 86 57 37 23

GFSNW_con_3kmhel_045.txt.gz
Helicity
14 -11 -23 -23 -38 -30 17 60 105 14 -2 20 31 39 31 28 24 7 8 -16 -4 24 -2 2 -19 -68 -43 -25 72 66 124 105 128 159 158 159 140 123 163 204 210 174 159 82
13 -7 -23 -39 -54 -20 56 97 81 8 -4 30 38 62 70 60 46 29 22 20 31 44 30 16 19 20 49 7 92 93 92 64 89 86 88 128 144 158 226 261 205 154 133 84
15 6 -12 -41 -68 -13 60 109 136 54 35 26 37 53 71 67 45 34 35 31 39 37 40 53 35 46 40 31 87 95 119 55 43 54 35 135 130 109 165 198 129 154 54 103
24 17 11 -34 -61 3 56 95 120 80 67 48 34 77 91 46 59 65 61 51 57 40 36 43 50 57 67 52 42 67 67 51 69 52 57 76 63 85 105 119 154 101 60 71
34 28 27 -10 -10 6 76 104 109 82 73 69 34 59 124 111 63 69 71 56 65 51 44 51 30 56 53 54 60 66 75 51 61 67 57 42 48 48 37 59 56 53 76 23
42 37 28 3 -4 11 73 65 50 78 78 58 50 26 74 105 91 65 57 81 43 65 59 62 55 45 46 41 46 74 64 57 71 62 78 63 39 57 104 122 116 137 47 264
50 47 26 4 -0 22 42 54 74 110 139 115 79 41 94 97 75 76 73 70 57 55 79 39 47 72 68 61 71 63 55 68 68 35 58 66 26 54 51 73 119 130 82 88
54 44 29 20 15 23 35 37 79 101 152 87 59 28 88 81 87 81 64 60 44 69 59 52 51 60 54 45 45 52 59 75 66 52 39 11 -7 34 44 39 28 70 148 57
58 48 40 52 32 21 49 52 42 72 106 102 59 14 61 70 123 119 87 69 74 48 39 39 31 22 16 30 42 68 85 98 88 60 48 34 18 42 48 34 27 28 16 42
45 46 46 54 28 -2 38 36 38 61 92 57 40 36 31 78 110 112 94 92 82 65 47 40 30 27 18 31 31 41 55 64 60 54 36 21 18 18 36 55 21 39 23 34
32 29 32 40 30 -5 48 48 31 63 71 46 32 8 -9 81 92 106 113 71 85 95 73 47 39 33 38 37 30 28 41 41 37 53 47 26 22 48 35 15 12 14 21 9
26 39 51 45 34 11 44 52 37 22 45 39 11 2 14 17 67 93 113 70 72 87 83 93 64 62 64 51 49 53 43 58 32 53 28 11 15 16 9 6 13 30 31 16
31 51 65 49 41 25 44 61 42 8 20 7 7 3 -9 24 52 77 84 96 88 88 80 70 62 42 44 39 29 37 37 51 76 65 20 11 22 29 31 54 7 12 30 31
40 61 68 69 41 23 36 41 43 17 -3 12 11 6 2 -6 20 42 88 72 91 74 71 74 74 54 61 43 36 21 30 44 49 29 15 13 32 26 52 37 45 48 37 47
54 57 78 61 64 49 44 28 17 14 14 -16 -12 -24 13 30 14 -1 48 92 96 82 80 74 39 44 56 58 34 69 34 56 31 -7 42 3 18 64 91 61 78 56 67 72
42 58 59 59 63 52 13 18 9 -13 -1 12 11 9 22 25 26 -24 -64 8 69 107 100 67 66 58 49 18 43 -28 -9 26 49 4 10 22 -22 74 80 75 68 71 75 78
25 24 41 55 55 23 10 19 22 7 5 19 14 30 21 25 16 -24 -15 4 7 7 3 17 47 49 65 51 51 6 -0 -19 -14 8 -0 -18 42 -6 117 103 82 108 120 114
7 39 57 76 67 39 13 31 32 32 33 28 41 38 26 17 22 13 10 13 32 26 26 14 20 25 38 20 16 39 36 9 -21 -1 26 56 40 67 97 105 148 155 129 110
33 48 43 10 7 2 13 25 31 51 51 45 75 76 45 44 28 5 20 22 22 24 22 19 23 34 22 49 74 43 20 20 17 11 36 -25 -7 1 137 91 192 144 119 100
45 -4 -1 5 13 23 6 13 35 38 53 58 91 101 94 76 52 18 5 20 21 34 39 19 36 36 11 -7 -13 -18 9 27 52 27 53 41 74 99 118 40 104 111 90 77
5 32 37 2 11 24 16 26 31 31 27 62 89 124 117 93 105 53 22 17 26 37 37 17 38 49 35 43 -3 -6 12 -9 26 20 4 27 -8 4 87 52 76 80 66 56
9 39 40 22 48 41 63 36 32 56 47 44 58 80 133 103 104 75 44 21 15 27 45 24 74 88 46 35 11 -6 -2 -8 14 24 11 3 -16 54 76 82 86 77 62 58
21 46 58 49 47 90 101 62 45 69 54 44 53 45 58 65 89 78 67 32 30 59 25 89 38 24 22 13 -19 -30 -43 -21 -19 24 36 66 31 55 91 117 131 139 112 87
65 37 57 70 76 104 113 64 59 51 69 75 82 55 54 70 67 53 58 48 44 78 47 12 -33 -48 -44 -40 -55 -69 -53 -37 -11 -9 24 48 55 80 117 134 132 95 62 65
29 35 45 70 52 64 64 58 59 54 71 83 83 70 74 66 69 81 58 86 89 100 55 17 57 26 -44 -69 -58 -61 -68 -52 -43 -10 -0 10 72 75 82 87 101 69 38 27
36 41 50 27 55 59 90 103 96 86 94 90 81 78 81 73 100 101 90 153 152 117 69 57 57 63 53 -51 -45 -51 -47 -41 -23 -8 34 37 24 54 133 133 90 54 48 23
82 66 48 31 49 62 98 118 123 123 138 131 128 132 85 133 118 118 98 97 105 89 20 15 16 58 76 53 -32 -34 -45 -38 -22 -3 -1 14 47 66 68 97 150 100 62 40

GFSNW_con_3kmhel_048.txt.gz
Helicity
44 28 5 8 15 32 86 88 121 34 8 12 11 15 25 22 42 9 -3 -11 -13 7 3 -34 15 22 75 54 51 66 81 64 114 109 133 145 147 139 160 143 126 87 84 77
55 36 10 14 30 50 93 106 87 35 19 32 26 18 31 38 46 46 45 39 22 30 3 -29 -1 38 65 56 120 104 74 95 140 120 97 82 99 111 139 148 136 107 147 144
65 42 22 23 48 69 89 102 108 88 40 28 29 32 19 56 31 26 38 45 49 40 30 38 14 32 32 90 136 124 127 91 84 92 83 111 149 169 139 180 185 170 168 156
56 47 44 39 49 79 77 74 99 80 115 59 19 21 7 34 67 49 71 54 56 37 31 33 35 43 62 63 64 99 87 97 85 63 39 51 62 63 129 141 104 234 99 94
53 45 57 70 73 83 72 103 97 76 94 57 31 19 7 48 77 85 73 71 84 55 46 45 21 44 41 28 45 53 76 69 71 83 78 55 51 54 58 30 51 -4 89 66
52 47 50 69 99 70 91 55 52 77 72 80 70 15 14 63 76 68 72 53 47 92 77 60 47 29 34 32 62 72 64 68 74 41 72 67 37 24 37 123 126 108 8 222
54 44 52 72 87 71 62 66 72 94 109 96 84 18 5 45 95 69 81 80 46 41 72 41 46 63 62 65 82 63 68 88 76 45 64 51 15 32 36 59 36 108 94 106
50 45 56 62 71 62 24 50 70 88 135 87 87 35 -3 21 70 64 52 75 44 50 53 69 65 72 67 60 51 60 64 78 60 48 49 22 20 30 31 43 34 27 52 57
41 41 56 55 58 50 39 49 41 66 128 91 44 28 -4 -13 22 76 68 59 75 43 51 61 54 36 26 35 49 64 75 80 80 64 38 21 18 22 1 19 46 40 29 27
24 28 45 45 38 53 49 45 38 61 107 55 27 42 7 -19 26 74 85 88 87 67 66 61 53 51 24 29 21 34 47 52 61 49 35 21 11 8 12 44 30 35 7 13
3 19 33 30 18 35 50 31 30 49 62 44 13 -4 -9 -14 16 21 89 53 69 87 86 66 48 41 41 38 28 22 28 35 29 38 38 29 -0 13 29 16 30 5 9 -7
-7 9 11 6 -5 22 41 12 10 9 28 31 1 -8 -8 -12 3 18 76 58 68 70 79 83 66 65 53 43 49 52 41 44 39 33 26 16 7 2 3 15 18 21 1 3
-22 -11 -3 -4 -11 -0 25 13 -12 -17 19 -0 13 21 -2 -4 24 61 80 78 64 72 79 71 65 61 48 39 31 42 47 31 50 56 58 42 37 2 -22 -11 13 33 7 13
-39 -34 -7 -5 -2 3 6 12 -8 -32 -47 -11 4 18 13 6 -10 35 54 86 81 85 88 96 85 65 64 46 37 31 25 27 23 4 2 -29 62 21 15 78 69 70 11 20
-46 -41 -27 -1 37 61 29 -10 8 9 3 -19 5 20 26 17 8 10 17 64 86 99 104 104 97 83 75 45 33 27 36 23 9 -0 -31 -28 -25 10 33 -18 21 85 68 53
-57 -52 -39 16 70 39 -17 4 18 21 20 39 35 34 41 38 27 7 -0 -2 45 87 103 109 81 52 45 47 34 51 25 -2 -34 -2 9 -4 8 -0 42 18 1 72 69 56
-37 -61 -44 -1 -1 -35 -18 8 21 18 26 26 36 30 33 36 29 22 15 13 -9 -2 6 20 22 27 51 54 64 23 22 12 28 39 16 -8 -9 18 19 57 28 70 77 78
-25 -23 -3 9 15 3 -11 1 13 18 25 18 47 58 56 31 18 17 21 24 24 26 19 16 13 25 52 66 60 100 48 36 33 54 43 -3 3 30 -0 -1 129 105 86 111
17 20 1 -26 -35 -24 -3 6 8 10 19 19 46 56 62 81 61 31 23 29 27 17 28 38 30 54 71 11 41 61 22 -11 23 32 26 36 10 30 30 -6 -4 124 65 166
37 23 -11 2 -6 -4 -4 -8 5 4 1 1 41 48 23 73 76 77 40 30 19 25 52 28 40 100 43 40 21 -7 -22 -37 -22 -18 18 44 34 57 57 29 69 47 6 79
42 14 16 22 14 36 32 25 30 19 24 25 40 67 39 52 41 45 63 37 36 18 35 4 28 43 49 4 7 -5 -18 -39 -53 -25 -16 15 46 45 47 46 77 48 31 48
28 41 59 49 56 53 57 48 29 40 45 36 53 46 50 30 30 21 55 50 41 53 32 20 66 9 14 11 17 12 -16 -24 -27 -47 -21 -0 34 39 37 54 -18 25 61 91
83 60 65 52 49 96 95 98 60 51 41 42 49 52 51 47 44 37 37 55 49 100 72 67 43 13 -1 -26 -11 15 4 -13 -21 -26 -36 -27 9 41 52 33 63 102 90 76
64 57 87 82 77 68 80 69 55 46 58 53 57 61 72 80 79 64 53 75 93 82 91 81 55 23 5 -1 -3 -7 -8 -11 -23 -21 -20 -36 -22 15 34 65 78 110 115 164
51 51 84 83 22 37 51 71 80 65 85 82 79 72 86 108 120 104 98 91 108 114 146 155 87 80 58 19 20 33 50 31 -14 -36 -13 -6 -36 -7 17 67 99 128 147 147
45 36 59 15 24 26 44 65 77 73 94 93 83 87 91 111 123 144 133 169 139 154 167 151 125 76 39 50 40 51 55 22 -4 -13 -34 -13 -14 -30 -8 13 74 99 114 115
75 68 48 36 37 24 43 75 75 103 110 87 97 96 74 140 142 152 131 131 94 95 100 89 66 43 54 56 35 24 21 15 8 -6 -16 -38 -28 -1 1 12 22 70 129 125

GFSNW_con_3kmhel_051.txt.gz
Helicity
81 42 30 16 -1 66 92 115 149 44 24 15 -0 17 11 14 12 -6 -3 4 3 -28 -10 32 38 75 97 49 28 55 45 76 113 105 89 106 127 89 130 112 71 96 64 41
83 43 27 13 -2 65 108 158 132 46 28 75 9 4 7 19 30 34 20 -6 -9 19 3 32 47 46 84 53 28 31 38 72 115 75 81 124 113 117 135 137 139 99 79 57
78 52 32 9 3 58 91 157 177 76 29 7 9 -7 -5 -6 29 38 37 38 21 6 3 28 24 50 51 62 79 81 77 72 66 49 58 93 110 100 128 135 131 120 57 98
69 58 35 6 7 57 74 119 139 93 136 39 15 8 -3 -18 -13 45 58 42 45 31 15 11 28 43 59 109 141 142 102 84 82 85 97 93 83 81 97 132 164 173 47 38
69 59 34 10 19 67 81 148 143 94 81 39 40 5 -7 -19 -15 55 57 48 64 43 30 24 -0 6 5 19 53 66 107 86 83 106 98 60 41 46 82 88 70 23 5 17
78 61 41 25 15 57 87 69 72 89 65 62 71 48 -1 -13 -0 64 74 41 32 72 57 50 35 19 21 18 40 42 42 54 54 59 63 42 41 45 103 123 113 77 -12 113
75 62 51 38 31 49 71 71 95 118 123 86 87 43 -2 -21 -14 14 61 77 42 37 74 43 46 69 61 60 81 51 53 71 64 46 59 61 34 47 46 40 38 69 59 77
74 64 55 36 38 37 49 53 67 89 126 81 75 32 -1 -12 -10 2 57 65 40 43 46 51 55 58 46 56 58 60 57 68 68 59 53 27 29 33 23 20 51 42 40 33
79 64 56 29 31 48 38 47 29 56 112 59 31 43 -12 -8 -16 -19 29 55 66 29 37 42 45 34 31 35 42 60 59 70 71 53 46 36 15 7 2 23 44 26 37 36
65 53 33 7 18 43 28 28 25 43 77 44 21 41 16 -20 -22 -31 -12 51 66 43 41 46 47 45 29 41 25 21 36 42 49 51 34 38 35 33 21 80 69 49 15 38
47 41 15 -15 -0 25 -10 14 9 31 49 52 9 11 5 -9 -28 -18 -22 -10 56 76 76 60 52 46 41 44 32 27 28 36 31 43 43 62 56 29 55 27 4 -1 8 17
28 17 -15 -29 -21 -3 -25 -17 5 19 33 31 6 13 5 -7 -15 -8 -9 3 65 81 75 73 58 57 50 44 50 46 63 55 54 38 35 47 16 26 61 17 -31 -10 -0 51
1 -10 -17 -31 -32 -37 -53 -62 -43 20 22 7 -1 15 4 4 -10 -19 -22 -3 50 67 54 68 74 63 49 54 42 41 58 73 65 64 77 15 -36 36 20 -28 -30 10 16 33
-27 -28 -22 -31 -46 -50 -72 -47 -68 -41 -27 -14 -10 30 24 26 6 2 19 37 55 67 81 89 94 83 66 49 48 47 32 51 56 18 25 -58 28 21 -1 14 13 -31 19 46
-42 -53 -39 -18 -7 3 -1 -21 -41 -13 -6 -24 -15 5 30 41 29 35 29 43 46 71 98 117 103 83 79 65 62 70 68 41 -5 13 22 6 82 71 74 12 -6 26 11 78
-77 -75 -65 -34 -12 -83 -74 -36 -33 -0 14 31 35 15 25 26 10 25 20 21 25 41 67 91 113 92 115 124 87 32 10 -25 -16 26 10 4 -4 -5 -19 17 15 20 34 126
-75 -101 -67 -62 -105 -125 -85 -54 -42 -7 4 9 15 37 44 39 21 18 9 20 31 31 25 32 40 58 66 53 45 64 61 31 11 -2 -1 19 22 10 10 -6 11 16 15 117
-79 -44 -37 -36 -11 -19 -56 -62 -76 -40 -18 -7 17 11 40 60 52 42 -1 12 14 15 33 30 16 13 23 33 52 54 46 40 5 13 14 -2 -10 -14 9 4 -7 17 23 78
-10 14 34 -0 -6 -15 -38 -45 -27 -20 1 -8 -3 -10 9 47 51 51 40 19 23 14 15 24 14 40 59 38 49 42 32 3 1 -16 -30 -26 -3 -21 13 9 -4 1 18 71
51 33 51 44 7 -5 -16 -11 -0 -2 -5 -4 5 4 -0 27 16 11 58 43 55 64 35 -17 23 33 31 44 37 24 14 -2 -16 4 6 -2 28 -2 31 23 12 10 36 70
14 69 75 44 60 32 29 33 39 22 32 17 18 23 19 24 27 18 30 31 50 72 56 65 67 59 53 41 31 22 22 10 -3 15 3 -25 -62 -50 -30 8 13 24 41 38
46 55 67 70 58 48 63 49 35 50 52 24 36 30 36 40 44 36 38 45 52 52 104 91 120 75 29 36 47 38 35 23 9 8 3 -3 -19 -39 -48 -31 10 23 20 35
104 107 78 62 54 110 93 86 70 79 36 33 39 43 47 56 59 60 61 73 102 126 103 94 86 120 66 73 66 70 51 52 63 47 27 10 -4 -11 -28 -42 1 24 37 46
88 64 84 70 48 79 102 83 68 52 76 81 72 63 74 81 91 86 86 109 144 156 156 105 197 202 132 68 38 37 71 67 48 27 29 39 49 20 -3 -31 -12 -18 26 65
67 55 85 88 87 80 51 50 65 78 80 85 84 71 85 89 101 98 106 117 143 126 142 166 191 137 98 90 73 52 52 78 69 33 34 44 57 53 15 -18 -1 -22 -12 84
85 69 84 54 62 33 4 19 50 38 72 76 75 86 97 88 94 106 115 184 175 152 139 129 102 91 87 78 71 74 63 55 57 58 43 42 50 47 55 25 -16 3 -25 19
85 90 73 53 52 8 -0 17 22 66 78 58 78 93 73 106 107 110 93 139 148 129 149 123 117 116 89 93 97 87 97 101 96 91 76 70 63 41 29 26 -3 11 -14 24

GFSNW_con_3kmhel_054.txt.gz
Helicity
72 68 47 37 35 71 45 67 122 39 6 50 11 11 1 -5 1 18 23 -6 -28 -4 -4 36 61 86 80 39 33 62 90 61 135 126 110 114 108 64 49 68 51 87 91 58
86 71 49 44 35 72 53 125 119 22 -1 134 64 3 -3 6 -1 -9 3 8 -8 6 48 33 55 96 73 51 44 67 48 61 126 60 62 84 74 69 85 90 101 44 48 82
97 65 48 39 31 76 55 112 148 73 31 4 24 1 -12 -10 -8 15 23 10 5 -3 1 41 29 66 69 63 51 44 40 46 68 56 73 77 67 53 67 78 81 51 47 18
91 69 39 34 45 105 52 88 116 82 133 70 30 -6 -21 -14 -20 4 21 20 10 11 10 28 30 54 60 91 98 75 66 66 84 103 89 66 54 50 58 99 48 42 29 16
100 77 50 43 72 111 74 113 118 94 95 66 72 19 -13 -17 -27 -31 11 42 40 4 15 32 20 26 29 40 81 112 107 66 77 73 71 54 52 46 57 35 22 38 33 19
103 77 71 56 66 63 76 59 62 85 113 92 94 65 24 -26 -25 -28 51 35 27 61 41 47 48 44 36 32 32 61 67 78 73 80 88 65 62 49 44 57 52 52 40 31
93 77 75 73 48 35 43 44 77 99 146 106 90 58 18 -9 -34 -33 -34 69 48 51 55 32 52 51 46 45 60 43 46 76 81 76 71 87 73 64 67 45 60 46 30 62
77 77 77 69 59 46 24 44 46 72 145 100 92 71 27 0 -17 -18 -18 -1 61 55 31 42 39 43 27 55 66 58 46 62 74 71 63 66 45 37 41 53 82 111 117 100
68 78 68 54 66 71 38 25 7 37 140 80 61 64 22 37 -11 -27 -29 20 66 33 32 37 53 57 49 36 33 63 60 72 67 55 84 115 91 73 43 36 71 138 109 105
67 69 53 39 29 21 -4 -8 8 19 96 62 49 51 51 -5 -2 -26 -32 -30 -39 41 35 48 46 52 40 44 39 34 26 40 48 50 50 76 119 89 49 68 127 107 81 77
70 55 35 23 27 -29 -33 -21 -39 -31 59 50 12 14 33 16 -6 23 -36 -14 -30 -19 -5 42 56 45 45 39 44 37 25 33 39 43 44 58 177 61 67 61 26 26 26 12
66 39 23 9 0 -28 -38 -13 -40 19 21 31 2 13 7 2 -6 -6 -15 -37 -27 -26 -19 50 62 66 54 55 67 47 53 63 61 51 72 64 51 -24 64 61 11 3 1 11
56 36 21 11 -19 -59 -68 -38 -65 41 26 10 -13 -1 17 1 -9 -16 4 -30 -36 -25 50 68 64 73 76 75 83 75 69 91 60 47 55 35 29 24 72 17 -9 1 0 7
45 35 28 14 -11 -24 -66 -69 -103 -106 -49 -33 -43 10 9 24 10 -6 -4 0 -5 1 38 41 63 92 74 97 104 102 80 81 72 32 33 15 38 57 26 34 32 8 16 28
50 33 33 17 -7 -34 -58 -55 -51 -41 -67 -61 -52 -4 12 21 19 17 24 18 4 13 27 27 43 111 100 103 97 115 98 101 74 58 40 15 29 64 60 29 40 30 11 37
35 36 26 38 36 -39 -92 -62 -36 -40 -69 -37 -30 -7 6 0 10 5 3 11 21 34 34 36 46 94 98 108 130 101 56 26 16 49 25 0 -3 8 6 21 21 23 17 25
10 15 4 -36 -71 -116 -83 -63 -92 -59 -64 -61 -22 -1 23 29 27 23 24 19 14 20 29 31 28 33 26 48 56 35 35 34 7 2 16 -2 -1 10 2 11 -7 5 15 11
-14 -23 -38 -78 -95 -82 -46 14 -37 -69 -65 -40 -10 -19 9 24 17 34 35 32 17 14 31 30 27 10 18 29 40 27 25 24 18 15 3 3 -33 -41 -24 -16 -15 9 38 29
-23 -29 -25 -16 -44 -18 -35 -7 9 -16 -36 -6 -14 -5 14 17 8 4 43 35 62 32 63 49 38 40 40 28 16 4 24 27 16 13 -1 -2 7 6 -15 -29 -30 -13 4 5
77 95 95 89 10 18 1 1 -1 13 20 22 19 -5 23 15 13 12 21 31 26 50 80 68 81 53 21 31 37 19 0 13 24 31 39 29 -1 -12 -1 2 -12 -33 -16 12
155 119 96 27 30 20 26 21 37 37 55 46 36 22 35 22 30 48 41 52 51 46 64 66 83 89 102 70 32 35 35 38 35 46 48 50 54 40 16 3 -13 -13 -14 -11
47 66 83 47 74 47 55 58 51 63 69 62 44 38 35 45 38 59 63 74 76 94 119 105 97 111 160 82 48 42 42 46 43 33 36 32 25 19 33 25 21 7 -11 -7
117 144 137 61 61 62 43 58 67 91 86 66 44 62 53 65 72 94 99 113 131 138 138 157 175 214 169 112 94 93 58 39 34 43 50 43 29 21 21 22 34 31 22 9
242 232 259 104 73 44 60 73 86 87 67 59 61 89 103 98 119 121 143 135 136 184 221 196 185 165 168 146 110 67 24 18 44 61 73 58 34 13 8 19 21 33 35 43
265 200 234 134 47 80 88 93 82 64 42 61 81 99 105 128 148 136 153 151 173 176 164 154 162 154 118 91 37 7 5 28 61 90 102 95 82 67 34 -5 -9 15 25 39
230 232 174 102 121 71 53 40 45 16 30 39 59 88 117 135 134 168 160 211 204 206 165 142 132 113 93 78 61 54 77 94 100 91 76 66 61 50 49 25 6 3 7 23
277 187 81 53 72 32 21 21 19 3 20 43 56 74 91 152 154 165 153 189 223 165 117 118 107 94 76 93 105 112 116 98 81 68 66 69 56 50 54 35 3 -28 3 19

GFSNW_con_3kmhel_057.txt.gz
Helicity
68 81 93 110 103 99 85 69 108 17 7 52 22 18 -2 -15 22 38 2 -21 -3 5 35 13 24 42 83 25 14 90 108 51 100 95 140 140 142 61 42 75 37 75 125 112
82 75 94 119 117 60 96 117 99 12 -9 122 107 13 1 -13 6 15 24 -14 2 49 23 30 32 39 34 32 62 75 68 43 88 58 47 53 69 48 70 54 83 63 98 87
77 77 84 116 94 17 69 96 128 68 16 -7 37 64 12 5 -11 -16 -21 -36 -9 -0 33 30 29 51 59 45 54 78 79 22 63 64 66 31 42 28 31 49 93 62 41 24
56 76 80 107 76 48 64 70 111 72 97 69 44 12 17 15 -8 -13 -24 -21 26 -16 -10 29 38 62 48 48 47 49 65 46 44 44 48 59 51 16 17 43 17 50 21 23
70 73 80 111 88 94 77 100 104 69 87 78 64 49 41 15 -13 -21 -31 -30 -1 35 -11 50 28 47 53 63 44 49 57 52 50 60 62 51 43 38 40 19 11 19 22 32
68 52 98 122 98 102 90 55 28 48 88 107 94 89 64 24 -8 -36 -30 -9 6 14 27 44 53 41 39 65 50 46 85 91 71 74 66 63 56 53 42 54 58 70 57 95
73 64 97 110 74 64 66 65 64 91 106 93 85 73 39 23 -25 -11 -30 -21 42 50 58 52 29 32 40 50 62 49 54 75 99 90 74 90 102 76 91 102 109 125 117 137
76 67 100 109 49 33 36 57 65 78 116 97 85 97 50 27 -19 -23 -37 -30 60 59 50 47 41 44 35 53 64 54 59 58 78 88 79 106 57 91 112 110 132 156 153 130
52 50 93 107 64 64 54 68 52 32 97 69 62 100 53 72 46 -11 -21 -17 45 36 25 34 48 49 51 52 60 76 73 77 78 86 105 112 202 104 96 90 71 147 129 102
63 99 84 87 65 52 58 74 55 35 30 43 64 54 65 13 15 14 -27 -25 -25 -1 -25 -25 1 52 74 52 48 44 41 49 47 57 94 116 131 99 86 80 124 115 71 52
62 114 84 66 49 52 57 86 81 33 5 32 -14 7 27 8 13 41 -33 -10 -30 -22 -16 -23 -20 -5 60 63 75 62 45 44 43 51 66 68 108 89 114 108 42 39 23 10
71 93 80 71 36 26 54 49 45 67 81 14 -2 33 11 -31 -33 11 -6 -22 -25 -30 -10 -14 -18 -9 49 65 58 53 57 73 85 68 91 81 70 47 39 25 22 21 19 14
110 100 58 41 25 11 -8 42 30 85 92 18 -51 -47 -10 -39 -29 -9 33 -8 -28 -24 -24 -24 -31 -15 10 25 86 81 60 69 56 59 84 48 49 57 47 71 38 21 27 26
99 83 53 29 22 23 34 16 -28 -4 4 -19 -87 -78 -81 -61 -36 -23 -11 -8 -25 -20 5 -7 -11 -13 33 -12 100 116 121 84 77 45 46 45 44 90 69 37 25 33 41 27
114 86 71 62 68 55 29 -24 -48 -3 -36 -49 -93 -77 -67 -62 -39 -0 33 44 29 29 35 29 14 5 26 93 112 96 89 100 92 101 103 39 33 43 36 20 37 52 28 13
131 114 95 110 87 15 -29 -30 -42 -8 53 -28 -37 -106 -84 -44 -12 1 14 11 -2 11 36 35 32 19 49 55 70 94 114 85 58 55 67 41 19 17 26 33 28 29 27 26
125 143 150 142 93 34 -3 -42 -80 -17 4 -38 -23 -46 -95 -93 -64 -26 -3 7 8 6 22 28 45 56 48 64 72 91 57 35 19 19 24 28 27 43 39 24 21 12 16 17
132 164 159 139 39 -31 -41 68 33 17 -35 -40 -17 -38 -50 -88 -59 -31 -34 7 19 15 31 38 55 58 51 50 71 57 22 13 28 39 25 19 22 18 17 15 14 16 20 14
141 108 119 179 57 -0 -0 29 43 13 -13 -8 -16 -6 -7 -34 -26 -11 4 8 9 39 43 58 66 89 90 63 75 58 48 59 29 10 -14 -10 11 12 22 29 22 20 21 11
120 184 144 43 40 69 49 1 -32 -18 -9 10 16 -2 18 -4 14 24 41 38 40 40 49 87 69 49 91 109 109 107 83 54 37 37 62 49 43 37 24 23 32 34 42 38
239 185 104 79 84 61 52 32 21 15 35 41 42 33 40 19 48 65 55 82 74 96 102 76 85 91 146 179 173 126 98 88 72 59 51 42 33 31 29 24 17 19 22 27
91 59 171 121 64 83 73 75 39 43 48 56 53 46 53 59 58 86 91 118 126 162 130 131 156 147 202 238 217 179 130 101 91 69 57 28 17 9 23 24 32 25 18 28
218 272 220 120 114 130 77 50 52 67 53 61 61 76 69 71 90 143 131 151 183 158 173 197 202 191 224 212 195 155 129 109 83 59 23 2 13 52 89 82 54 9 -14 -7
287 245 223 183 159 175 91 47 58 78 86 90 83 87 89 91 97 113 132 145 153 193 207 202 165 155 126 105 84 66 40 19 16 18 10 26 86 121 113 99 79 54 45 34
274 198 256 235 133 135 85 74 101 105 77 83 82 73 69 87 97 96 108 118 127 131 141 144 133 105 97 97 84 67 57 63 74 82 102 109 117 113 111 94 74 61 50 32
196 180 196 154 228 177 105 58 91 64 41 33 34 49 57 65 78 111 116 158 165 172 146 130 104 76 77 76 78 80 90 95 100 91 87 92 97 104 88 62 65 56 53 77
246 238 170 164 217 151 99 74 53 8 7 32 27 45 47 83 77 101 145 163 172 176 130 86 64 69 77 88 90 101 109 102 90 80 88 103 108 103 97 81 68 84 83 113

GFSNW_con_3kmhel_060.txt.gz
Helicity
186 102 64 76 102 110 135 94 102 8 2 53 7 47 11 -25 25 2 -10 -14 -7 42 7 8 42 46 64 50 73 102 90 71 84 78 104 107 109 67 86 109 119 109 160 134
149 105 55 71 91 131 147 116 97 5 -2 95 75 10 -2 -22 17 32 18 -5 -1 56 14 6 -0 47 48 65 108 133 112 65 132 90 64 77 70 60 69 73 97 97 117 90
157 102 53 52 75 43 107 103 99 71 23 -4 28 75 27 -6 -25 -11 -21 5 -3 -3 3 43 15 8 26 28 24 71 87 36 63 73 72 57 67 64 60 100 108 71 64 64
145 114 34 39 60 37 87 64 76 71 108 26 29 -4 26 23 -5 -19 -6 -4 -8 -10 -37 13 28 34 31 35 34 47 73 52 52 75 87 80 76 38 55 112 68 98 46 35
183 70 10 31 60 104 61 83 75 55 68 55 50 35 55 31 -14 -22 -16 -16 -6 -5 27 10 15 26 42 54 33 40 51 55 41 27 28 36 39 60 50 28 34 32 27 22
137 47 4 9 83 167 56 43 54 44 75 79 76 81 74 34 -14 -32 -25 -12 -21 -13 23 73 90 47 42 60 44 44 60 52 54 52 39 39 45 43 25 58 82 102 90 114
134 12 4 -46 93 76 90 61 85 76 74 56 68 70 49 51 -14 -17 -42 -17 -31 -13 6 32 18 42 37 47 70 70 68 84 96 75 77 77 68 75 92 147 196 224 196 221
93 34 29 -32 57 51 113 84 100 62 75 64 65 80 82 49 6 -19 -36 -39 -28 12 24 -0 15 18 16 44 64 52 61 55 71 92 79 92 88 99 103 123 153 162 178 139
66 3 40 -22 -26 20 82 76 92 131 149 46 12 63 43 82 51 9 -23 -15 -23 -9 -4 -19 -28 -32 37 46 41 51 63 70 78 79 102 119 139 96 76 83 107 130 121 90
50 39 39 3 10 62 79 77 145 151 59 61 108 17 30 2 -5 16 -13 -7 -12 -28 -26 -21 -17 -34 61 18 42 49 65 65 64 65 85 102 101 79 70 82 70 95 79 56
45 62 53 42 57 88 103 128 144 109 12 104 73 34 -0 -31 -12 34 -3 9 -15 -15 -4 -12 -4 -18 -23 -14 52 56 53 61 58 68 71 64 71 60 85 93 92 70 46 20
23 10 46 43 34 47 126 177 145 165 76 42 53 64 53 -2 -36 -12 13 -11 -1 -18 7 -10 -14 -4 -20 -14 -32 72 63 81 72 92 75 61 67 59 56 65 30 17 -2 -0
27 33 68 36 23 35 99 134 91 185 147 76 9 12 53 83 35 -31 -9 -12 -13 -8 -2 8 -15 -11 -29 3 18 -24 45 63 82 86 105 68 56 132 137 51 -2 -11 1 14
113 41 78 45 63 79 128 118 138 82 41 -3 -46 -7 -37 40 25 -7 -31 -24 -17 1 22 27 25 4 -14 -1 25 34 62 74 102 91 147 101 147 83 27 6 24 31 29 21
21 48 48 50 83 114 188 176 153 138 -49 -33 -71 -95 -54 -41 -26 -26 -2 -15 10 28 35 26 35 17 12 3 32 40 99 111 100 103 101 86 75 58 45 49 51 36 24 29
52 46 47 65 72 80 166 107 91 71 52 25 -19 -97 -77 -41 -29 -37 -56 -53 -32 -20 21 18 8 24 40 42 52 84 110 114 105 95 96 81 50 39 45 33 27 26 17 3
45 55 87 111 104 121 126 57 17 74 13 -39 -22 -74 -116 -89 -71 -46 -56 -67 -51 -31 1 10 14 26 34 57 93 127 110 91 81 62 38 37 61 40 47 54 47 31 15 -2
50 103 115 92 66 7 140 255 122 62 -28 -13 -9 -34 -82 -107 -86 -69 -69 -42 -27 -29 6 21 48 53 59 57 99 130 102 86 69 56 43 38 43 50 54 35 27 24 14 9
100 125 100 152 160 133 148 123 103 40 -1 -23 -54 -15 -23 -66 -55 -37 -21 -20 11 17 31 52 62 67 58 65 133 133 128 110 113 100 77 53 58 66 50 46 34 17 12 7
84 188 182 119 136 147 187 103 35 22 -6 -17 -11 -18 1 -17 -9 -3 19 22 46 62 68 89 97 74 95 150 204 169 139 129 116 143 165 146 129 99 83 67 39 28 14 5
219 159 108 172 174 221 106 58 48 13 26 4 14 16 31 3 31 32 26 56 73 96 106 113 108 97 124 195 204 182 162 151 141 121 98 74 56 53 38 26 23 32 41 39
166 56 185 226 148 143 73 99 52 39 37 23 39 34 31 36 38 59 51 91 101 129 129 136 147 132 194 187 200 199 183 159 125 89 52 36 17 11 13 5 13 32 46 48
194 225 226 148 130 126 120 139 109 51 18 22 42 52 48 51 60 86 75 86 110 112 105 106 104 104 131 153 158 142 108 77 56 42 40 33 26 34 64 74 82 79 73 61
219 211 190 146 122 146 120 132 59 64 60 84 78 68 55 61 71 70 91 88 105 88 79 73 94 109 125 125 88 77 66 59 52 44 55 86 103 105 97 96 82 63 50 32
215 212 186 146 66 145 141 124 125 94 64 66 69 79 61 69 77 52 71 82 72 77 87 98 117 129 127 111 98 85 79 100 122 123 124 103 87 93 85 89 88 99 96 82
199 154 152 165 215 148 90 106 108 33 33 70 66 66 67 60 55 69 59 88 74 76 106 120 152 143 132 111 100 104 112 116 111 104 97 87 87 94 101 94 105 100 101 91
187 182 191 208 213 123 40 55 40 25 74 74 43 58 51 51 65 46 55 72 78 120 132 137 146 130 107 111 99 108 113 99 88 86 88 97 103 121 123 113 88 111 124 130

GFSNW_con_3kmhel_063.txt.gz
Helicity
327 230 159 109 72 70 77 110 84 6 -20 77 19 60 -4 -3 -14 -23 -50 -35 9 12 18 50 32 70 90 85 64 85 42 89 101 57 109 107 62 84 100 89 131 149 147 153
117 217 164 67 38 67 124 129 33 1 -13 117 95 22 -28 -16 -10 -23 -39 -33 -15 38 14 -13 22 72 94 78 148 87 76 52 95 90 80 69 59 62 91 81 76 105 133 139
168 202 140 46 61 -7 98 77 55 -5 -9 -9 51 97 33 -23 -21 -23 -17 -22 15 -2 -12 14 37 52 41 60 78 121 98 56 39 62 59 54 43 31 52 82 69 65 86 153
249 196 113 68 -18 -39 102 48 -6 18 74 -6 20 11 39 7 -14 -18 -21 -11 18 1 -22 34 35 35 36 40 64 70 62 76 63 63 68 76 71 62 71 84 59 84 35 73
250 203 39 108 -37 -39 43 43 14 -1 25 5 30 13 20 20 -14 -11 -8 1 -12 18 -15 -18 36 29 36 28 37 44 46 57 41 38 37 47 43 46 41 34 47 33 18 22
90 214 129 104 102 94 61 65 58 24 46 47 51 11 29 29 -21 -18 -2 8 13 20 11 47 38 17 28 24 33 44 41 39 37 17 28 36 29 16 28 56 86 53 40 76
109 188 70 70 40 4 54 87 59 55 26 57 20 12 9 3 -35 -15 6 -17 -17 2 -18 67 54 49 51 71 67 67 66 80 77 59 82 66 46 67 87 142 187 207 213 162
82 73 129 20 -25 -32 39 87 45 56 37 6 29 26 11 3 -28 -32 -35 -39 -1 -18 13 -2 -8 -8 6 60 71 72 50 69 81 87 69 67 69 77 91 100 130 139 118 117
17 -20 90 -23 -25 -19 15 62 73 69 135 98 127 39 9 55 10 -26 -36 -18 -24 -22 -14 -21 -11 -5 -17 -31 31 50 57 60 72 86 102 75 70 69 71 79 93 99 119 118
28 25 10 38 -1 31 51 66 87 86 91 194 169 21 19 -37 -52 -27 -30 -19 -31 -36 -32 -10 -8 -19 -28 -30 -50 -55 42 67 61 71 80 88 78 75 82 99 73 98 97 71
42 91 82 15 13 61 63 78 115 94 63 230 186 125 2 -17 -49 1 -15 -19 -50 -34 4 -3 -6 -16 -18 -21 -16 -29 -36 -51 -54 22 20 39 57 73 63 53 67 62 38 21
86 85 43 12 29 82 59 102 155 131 93 141 117 135 158 80 -28 -37 -25 -37 -24 -19 -12 -19 -8 -7 -11 8 4 9 -22 13 -7 49 41 58 104 126 109 98 57 30 8 21
103 95 49 8 23 65 62 156 149 187 171 203 153 148 182 161 105 7 -52 -55 -46 -51 -14 10 1 14 7 45 28 11 15 56 97 84 94 126 156 122 91 56 43 29 43 37
64 75 129 17 31 51 93 152 155 117 128 56 109 124 94 150 97 45 -10 -38 -32 -22 -19 -13 6 28 -1 20 30 39 45 44 55 123 156 198 155 101 58 58 46 35 24 8
40 102 96 26 42 41 136 179 156 115 48 22 68 107 116 96 58 48 57 -3 -3 -12 -28 -35 -8 -4 6 7 35 45 75 91 111 90 128 119 110 105 89 88 81 50 36 31
50 30 41 42 26 94 138 148 114 102 12 91 20 47 40 44 14 5 3 -20 -38 -53 -55 -53 -46 -26 8 29 33 17 53 78 83 73 62 65 60 69 59 61 53 52 52 27
116 59 57 47 56 68 79 73 81 63 70 4 63 4 -24 -11 -29 -27 -41 -55 -73 -78 -68 -59 -20 -6 13 29 39 60 67 69 83 78 68 87 71 62 74 81 77 61 46 40
53 56 51 66 17 -5 134 200 150 78 18 38 0 -18 -77 -57 -75 -79 -62 -79 -71 -60 -31 -12 15 22 37 38 43 114 104 79 72 74 76 75 66 75 84 82 75 73 63 51
67 57 57 140 120 147 150 169 166 83 31 -2 -16 -11 -42 -81 -73 -64 -45 -42 -7 -9 23 39 53 60 59 70 85 146 126 124 107 97 94 95 103 94 81 66 48 36 28 3
50 146 221 176 137 126 129 167 136 71 61 18 -10 -18 -18 -46 -30 -27 -2 6 30 52 58 64 77 69 90 118 166 174 155 142 134 151 139 123 130 90 71 48 38 33 37 52
225 200 162 163 165 140 163 110 69 57 39 23 18 -3 28 -21 -2 17 14 39 55 85 74 78 68 83 89 115 164 167 159 159 157 143 105 70 47 42 53 59 75 84 81 80
208 115 155 172 139 129 106 119 85 73 41 29 40 38 20 10 10 38 44 76 85 87 62 69 78 79 88 111 123 139 139 113 92 68 52 56 63 67 71 83 85 86 76 72
188 252 177 119 117 133 85 73 76 61 10 28 55 58 31 32 34 60 71 83 87 70 68 74 63 82 103 124 121 123 92 75 78 79 85 84 92 89 95 94 92 100 92 87
252 199 116 118 99 108 71 47 38 30 42 104 106 87 41 42 60 61 81 80 72 92 98 80 64 78 102 112 114 110 95 92 92 91 97 96 104 100 87 95 101 98 99 88
238 185 141 91 74 107 98 113 110 98 65 93 100 79 57 73 75 60 76 83 89 93 91 87 78 109 126 127 116 113 110 108 110 114 109 92 85 85 75 80 90 100 91 82
220 157 144 114 95 97 91 102 132 62 59 85 75 84 84 65 74 78 81 116 76 69 81 90 138 138 137 129 119 124 121 118 109 98 86 72 76 86 85 83 103 110 116 109
226 202 140 139 103 78 -14 -28 -1 14 80 81 70 74 66 61 79 75 53 59 54 68 94 122 133 136 135 127 133 138 124 112 98 91 74 84 92 110 120 112 99 114 107 129

GFSNW_con_3kmhel_066.txt.gz
Helicity
85 320 267 216 147 115 92 141 4 90 -14 66 20 28 -30 -42 -23 -79 -73 -41 3 20 9 19 49 55 58 89 116 152 90 65 89 64 96 97 94 109 119 129 146 145 136 153
43 271 127 203 121 99 168 198 63 72 10 50 29 2 -42 -36 -34 -60 -52 -33 6 32 4 4 21 88 107 65 78 96 90 91 79 38 37 48 38 62 85 110 114 154 148 173
80 122 35 64 87 6 220 102 46 52 1 -23 2 52 -30 -36 -42 -60 -50 -37 -8 9 6 33 50 61 119 84 63 62 42 59 33 46 23 38 36 65 86 70 47 67 106 152
184 78 131 69 -32 88 212 90 20 19 47 -46 -23 -17 -12 -29 -38 -63 -55 -45 -18 -9 -14 10 22 34 49 68 95 90 81 73 95 86 77 69 59 68 76 53 73 71 101 148
254 15 171 177 -94 -19 218 95 12 45 23 -47 -7 20 -2 -15 -50 -39 -22 -28 -33 -41 -9 -3 -1 -0 7 37 53 46 52 71 65 79 87 80 72 92 72 50 68 72 59 124
202 298 142 101 -151 67 59 71 75 47 76 27 41 41 32 -5 -37 -56 -47 -8 -17 -16 -16 48 48 52 57 29 26 38 39 41 50 52 47 42 46 35 31 42 79 32 23 49
168 62 115 102 -99 73 100 87 69 70 109 74 24 -6 -15 4 -35 -20 -16 -21 -16 -3 14 19 85 102 101 93 93 55 43 57 56 45 62 50 33 64 77 130 159 158 163 160
205 128 124 106 -17 80 135 150 91 75 111 64 50 -10 36 -25 -51 -5 -43 -43 -9 4 -1 8 -3 11 -10 61 94 84 70 84 83 76 72 55 56 89 98 107 131 172 141 134
208 101 73 115 -25 -25 137 141 109 74 112 87 126 94 16 31 14 -12 -46 -9 6 -18 -11 -18 -16 -9 -13 -6 -11 56 86 91 73 82 74 12 73 88 98 100 95 99 95 85
209 48 53 54 -36 -52 39 110 93 75 66 179 133 104 56 -46 -18 -0 -14 -18 -36 -36 -23 -18 -6 -9 -20 -6 -8 -15 -15 -15 -14 -9 -6 49 71 72 94 130 59 72 94 95
-76 19 79 28 22 4 49 66 88 58 43 205 170 165 119 65 -57 16 -9 -12 -33 -57 -21 -13 -7 -17 -11 -18 -12 -3 -5 -2 -0 -5 2 -11 72 105 111 73 97 77 61 48
-14 75 62 37 18 58 110 81 123 117 83 149 187 167 175 141 96 -42 -30 -48 -3 -36 -43 -41 -33 -14 -11 -1 35 -16 10 2 20 37 29 64 65 77 98 92 85 65 62 57
91 81 88 48 33 53 90 94 108 148 134 185 174 208 237 181 133 104 -67 -70 -35 -65 -31 -23 -36 -14 -5 30 4 20 2 21 36 51 73 119 132 125 104 85 79 81 74 65
80 63 64 36 44 47 61 84 95 97 108 69 151 174 154 203 129 60 37 -47 -20 -43 -38 -43 -49 -38 -25 -8 -4 26 40 62 92 110 126 151 107 108 91 94 91 81 78 78
96 99 34 22 63 57 136 114 94 74 34 74 138 182 178 155 103 77 56 13 -8 -28 -51 -58 -58 -45 -20 -13 -4 17 56 77 114 82 95 128 111 107 102 104 90 88 80 69
140 101 31 53 42 78 132 133 84 59 -7 89 85 122 137 150 124 103 83 40 18 -13 -42 -51 -46 -23 -11 4 19 1 45 69 68 78 139 127 121 113 112 96 78 72 67 71
79 57 68 68 65 86 104 95 90 59 51 73 40 71 95 123 99 67 47 39 -7 -30 -55 -61 -46 -36 1 8 37 36 70 85 103 107 134 137 109 101 98 84 83 88 88 88
22 23 32 125 61 -9 93 144 147 87 56 68 10 21 52 49 -35 -68 -8 -56 -41 -30 -38 -38 -9 13 28 39 45 78 99 111 112 111 114 119 117 113 98 104 109 111 93 72
39 54 78 184 133 98 114 92 96 55 53 19 30 -7 -15 -29 -29 -40 -34 -29 -11 -15 11 13 26 56 76 80 86 104 99 95 95 105 122 117 115 99 90 89 78 74 66 60
74 172 240 198 165 120 124 118 124 106 77 36 42 67 29 -9 -16 -36 -21 -4 25 36 44 62 81 74 91 109 84 111 107 106 113 137 126 103 99 80 68 59 54 51 60 78
253 259 228 163 118 125 166 158 143 101 76 55 46 12 52 7 6 20 15 32 36 56 55 96 78 60 73 86 118 113 112 114 126 129 112 88 76 69 73 76 84 104 112 118
236 166 189 163 163 171 131 141 138 114 69 49 61 55 60 47 16 26 24 61 61 69 58 68 57 37 44 73 76 86 104 123 118 102 88 80 81 82 89 98 101 103 101 97
215 310 246 199 165 181 148 160 161 96 57 66 70 100 75 48 33 47 63 81 81 73 79 70 47 29 41 58 79 99 116 121 105 94 92 98 102 99 110 91 96 95 109 111
245 251 239 224 191 162 138 97 80 76 75 131 135 135 70 50 67 62 96 90 85 91 86 68 40 27 51 77 92 118 123 113 104 95 103 111 115 96 83 90 96 105 104 90
203 184 212 158 103 90 125 156 115 124 110 167 155 118 61 77 78 81 91 87 81 70 68 54 33 59 95 93 115 129 119 116 119 124 131 128 105 95 76 78 78 102 106 104
207 140 129 91 111 113 141 129 120 117 107 142 121 95 114 104 93 84 76 124 86 65 55 46 90 111 99 110 134 130 130 134 131 134 136 111 99 86 89 71 85 97 103 109
191 163 112 57 95 92 90 46 47 42 109 142 107 125 97 96 85 77 71 76 57 44 45 60 88 112 99 120 132 132 145 145 141 147 128 121 108 102 97 76 93 90 102 135

GFSNW_con_3kmhel_072.txt.gz
Helicity
4 21 17 53 47 0 224 210 113 108 86 50 -32 -98 23 -16 -20 -7 -6 34 47 32 28 18 48 47 93 87 60 32 45 35 24 76 54 41 48 36 47 52 82 85 80 84
-1 30 24 72 66 98 137 181 212 132 83 -65 -87 26 -4 -21 -12 -9 -20 24 42 41 30 6 18 54 91 77 28 34 35 39 54 54 48 39 33 36 45 56 67 74 72 61
4 22 26 52 60 18 185 171 97 46 -44 -16 7 22 -3 -9 -37 -46 -11 12 35 53 40 34 11 23 60 100 80 55 10 49 21 20 -3 28 20 21 35 38 59 51 66 77
21 17 42 93 8 62 163 136 68 44 -32 -56 11 11 -11 0 -32 -65 -17 -4 34 26 15 26 16 33 48 65 100 50 33 25 42 51 16 6 10 7 20 27 30 27 25 51
25 27 64 15 -11 21 49 8 13 32 19 -65 -6 44 -18 -5 -32 -32 -20 -9 15 36 2 34 17 23 34 17 64 41 61 8 20 47 52 36 19 37 49 55 64 85 83 88
10 56 172 80 25 33 36 28 46 40 5 -29 5 17 15 -13 -51 -11 -30 -28 -26 -22 8 33 42 36 48 47 38 21 7 10 -6 -26 35 22 2 16 42 57 73 87 89 63
31 45 190 84 -50 26 63 43 43 66 -1 4 27 -8 6 -30 -13 -43 1 -18 -26 -4 -18 25 36 36 1 39 40 -8 -16 -5 -6 -12 2 -29 3 19 15 34 53 59 92 138
54 118 156 9 50 -11 23 26 33 50 21 -3 43 -12 -17 9 12 22 0 13 19 -20 1 -28 -32 -11 -31 -10 -11 -9 -23 -22 -24 -13 -13 -18 -28 -17 0 3 -6 64 99 118
57 94 51 -122 155 72 49 38 23 59 57 14 96 63 25 3 9 34 15 60 35 -6 -18 -43 -60 -41 -45 -58 -65 -44 -49 -58 -53 -39 -38 -24 -45 -34 5 12 -43 50 78 85
16 51 -83 68 86 103 97 83 48 53 34 115 92 62 54 25 6 -7 9 11 -11 -5 -37 -47 -49 -38 -41 -32 -45 -57 -44 -45 -30 -23 -18 -30 -37 -21 -17 25 6 27 49 75
37 6 -26 64 114 85 95 77 92 44 50 155 124 119 82 60 9 -58 -27 -31 -26 -48 -62 -59 -50 -63 -37 -47 -41 -34 -19 -12 -14 1 -5 -18 -20 35 31 27 51 56 60 66
23 -46 -37 2 71 96 103 108 112 115 65 125 136 139 139 104 65 -62 -13 -64 -35 -59 -84 -66 -73 -64 -69 -38 -21 -42 -4 -3 3 27 24 5 8 45 65 77 74 65 70 67
29 -117 -14 25 22 33 84 108 136 104 120 190 138 177 194 138 88 50 -86 -50 -63 -75 -51 -69 -82 -65 -53 -32 -22 -18 -14 12 13 11 21 34 48 86 97 104 100 86 81 76
-27 -54 16 53 60 24 62 113 120 91 62 73 123 160 132 198 117 66 43 -27 33 28 -21 -63 -68 -50 -31 -16 -6 5 23 34 41 37 34 39 48 80 113 132 121 112 106 106
-55 15 22 27 54 65 73 88 90 74 47 48 136 138 161 169 142 120 125 85 64 38 -4 -20 -32 -15 -6 1 1 13 54 67 90 55 57 85 75 91 131 134 125 120 125 126
-50 4 19 47 35 88 146 74 88 95 38 38 87 103 131 159 153 154 147 110 86 58 14 7 8 31 16 23 21 20 42 64 84 91 96 101 103 110 134 140 135 136 135 127
-1 57 71 77 97 136 128 70 80 108 57 31 71 83 129 137 123 98 98 91 63 46 19 9 23 27 52 61 98 83 78 96 106 126 163 149 124 128 145 162 157 152 148 141
89 92 100 118 149 128 91 88 109 112 66 43 62 61 106 129 94 55 73 35 43 40 17 19 21 39 66 56 62 76 119 151 146 131 141 142 158 188 187 174 160 165 154 144
107 83 92 192 165 107 64 75 122 93 59 43 65 40 30 123 93 73 49 40 10 14 17 34 36 61 81 61 80 86 105 124 123 155 164 167 163 170 174 167 162 166 150 144
106 157 214 153 121 94 84 106 122 110 81 58 70 86 60 91 110 57 32 27 31 32 32 46 77 88 81 96 109 120 129 131 167 173 147 151 153 160 171 157 159 165 157 146
209 226 203 138 140 84 118 108 106 91 80 56 59 84 89 56 82 56 28 38 48 51 40 88 78 60 53 70 84 86 123 130 125 143 161 164 163 166 163 151 160 166 162 162
177 116 134 162 125 120 114 109 119 80 80 64 66 80 77 70 50 58 53 73 67 58 63 87 80 59 67 66 68 112 130 140 147 152 149 140 147 153 155 160 163 174 174 168
185 198 187 160 145 144 105 118 127 93 40 56 101 127 79 79 58 77 79 84 76 76 87 92 80 74 48 50 95 113 129 141 151 148 144 140 146 157 177 165 177 176 175 137
230 232 203 139 124 99 67 58 55 67 63 94 151 151 109 115 115 80 111 104 96 106 92 88 78 48 42 75 90 127 114 133 143 131 136 143 147 154 170 173 175 175 156 113
282 239 170 103 135 107 63 54 53 105 94 204 156 143 116 150 132 110 135 118 110 78 65 82 79 62 82 102 103 103 121 130 124 136 145 140 152 171 165 175 164 157 142 133
265 227 136 115 157 114 93 83 87 136 135 151 157 158 169 166 144 156 141 184 128 95 104 79 66 80 89 92 98 107 124 127 119 132 145 142 159 180 187 173 169 161 153 146
269 212 165 94 117 102 79 89 108 156 170 201 177 215 181 133 164 181 142 126 99 99 63 65 69 88 88 98 111 121 122 111 114 143 141 162 184 202 193 184 152 157 149 136

GFSNW_con_3kmhel_075.txt.gz
Helicity
17 26 9 -26 162 79 235 207 110 60 111 110 57 -30 -122 -80 -40 66 65 25 43 37 38 60 54 74 82 61 65 68 62 58 65 36 55 38 33 11 38 35 41 37 43 53
37 14 -3 -2 142 13 129 121 144 105 77 -17 -44 -35 24 32 65 71 75 27 37 32 39 57 66 56 61 41 28 42 52 -46 2 33 13 6 20 35 21 23 32 45 35 21
33 12 -12 96 119 36 117 140 94 79 44 30 -21 2 18 38 74 65 70 45 45 34 33 60 57 59 64 55 43 15 19 15 -28 -56 -35 -20 -3 14 30 32 27 15 34 9
31 15 8 197 20 10 41 60 91 47 -40 -13 -13 50 8 36 14 64 86 69 45 32 38 27 38 52 62 51 72 26 34 19 30 32 29 13 1 -1 -2 13 -10 20 16 15
31 40 71 166 45 30 7 -3 28 65 25 -6 -15 45 12 44 25 37 46 10 56 40 28 28 30 35 42 38 59 36 54 13 17 41 35 22 21 17 -13 -3 10 15 35 32
27 39 98 93 129 -4 10 13 -15 24 -6 -43 -1 23 14 23 9 51 35 -22 3 1 32 39 35 12 8 15 7 3 -3 -4 1 7 32 19 5 14 12 9 24 21 27 29
43 64 121 -9 -55 53 8 12 54 6 25 -4 32 49 16 15 14 -8 31 7 -17 13 22 37 50 52 28 24 43 6 -9 -2 -1 -9 6 -27 14 12 11 -1 1 8 12 68
72 119 128 27 -33 59 40 -13 15 35 2 13 45 36 24 45 52 50 2 23 5 -28 -3 -16 -19 -2 -21 -2 -1 21 -9 -13 -16 -16 -13 4 -17 -14 -25 -29 -36 -36 -45 90
101 118 115 -89 35 141 26 17 15 39 14 19 78 49 43 16 27 57 30 68 32 -3 -24 -30 -33 -32 -24 -36 -27 -18 -23 -39 -49 -41 -44 -19 -27 -37 -32 -40 -40 2 28 37
74 52 -77 48 81 55 55 49 28 46 25 73 80 36 30 23 -5 4 29 29 7 10 -36 -47 -45 -35 -34 -42 -56 -60 -62 -63 -34 -29 -42 -40 -41 -34 -24 -30 -10 19 34 51
66 -28 44 60 97 35 61 33 58 43 39 96 93 78 39 36 8 -25 -1 -5 -0 -17 -43 -40 -42 -60 -52 -53 -38 -47 -37 -22 -29 -19 -18 -21 7 8 12 23 43 41 49 55
55 -0 69 33 14 78 88 45 82 67 37 67 87 98 72 72 43 -36 10 -34 -7 -28 -64 -62 -70 -69 -64 -50 -23 -41 -15 -6 -13 13 8 11 17 27 51 65 77 65 72 82
10 22 16 22 28 46 67 69 102 83 82 120 74 117 138 105 62 42 -61 -35 -35 -62 -48 -66 -71 -70 -52 -34 -19 -8 -8 23 19 12 27 26 38 55 73 81 87 103 102 98
61 30 9 -0 14 44 80 91 111 58 24 31 70 108 82 152 81 21 -5 -33 -35 -7 -29 -25 -27 -25 -14 9 12 20 28 48 42 35 33 47 47 69 96 111 122 135 127 117
70 -2 8 47 31 32 92 88 99 73 9 23 65 84 103 125 115 108 76 31 20 -7 -28 -28 -15 6 15 19 24 37 86 84 93 46 62 89 66 76 137 149 140 131 129 129
44 -10 -15 27 41 75 65 57 92 110 28 10 60 60 87 108 106 102 116 80 48 28 1 -8 -1 13 9 24 31 24 57 69 85 82 94 103 99 114 147 143 127 132 133 128
-3 -18 6 37 62 84 53 2 39 80 59 9 51 53 97 98 85 44 44 64 34 20 9 7 14 20 45 66 122 83 96 84 85 94 117 117 111 115 108 128 143 142 134 144
49 2 29 57 72 80 83 62 78 85 72 50 31 41 63 126 67 22 41 5 11 23 19 17 32 40 66 44 35 48 94 123 125 128 123 111 119 136 131 138 138 133 137 158
24 18 47 106 70 45 29 38 90 89 76 35 32 44 28 87 69 52 15 11 12 14 31 48 44 71 66 54 68 89 104 97 101 127 119 118 115 116 119 125 129 133 138 149
67 80 138 89 55 61 58 80 76 88 84 72 33 59 48 71 84 66 42 26 34 29 30 43 63 82 67 95 105 99 115 120 151 139 101 98 104 104 117 120 136 144 143 156
77 110 124 94 114 95 95 69 64 80 65 47 55 71 62 48 84 71 30 47 41 54 33 62 50 42 49 55 78 74 98 127 107 110 110 121 127 122 122 123 144 157 163 165
81 93 81 121 152 118 83 94 101 64 65 52 74 72 90 69 70 74 40 82 74 70 55 66 60 49 58 65 54 63 106 129 124 115 128 130 121 127 127 135 149 163 157 149
106 179 168 148 125 119 94 76 82 61 33 60 88 141 102 92 60 78 81 105 106 87 88 73 57 70 64 55 73 108 121 130 127 131 137 124 126 132 140 145 162 156 156 152
189 219 179 140 107 77 79 57 75 74 67 100 152 187 122 106 99 84 126 114 117 124 95 68 59 77 73 73 87 118 108 119 121 123 121 124 137 126 147 156 152 175 181 162
257 231 204 120 137 94 77 84 73 90 89 183 205 174 113 119 139 99 148 131 120 89 70 68 69 94 87 91 98 102 112 107 107 119 122 132 138 158 147 160 175 183 178 158
192 225 231 159 152 150 95 90 115 102 112 191 192 164 151 138 156 159 134 174 119 98 69 66 99 91 87 96 102 98 110 115 117 115 126 134 153 167 176 165 166 157 147 146
174 160 182 157 129 88 123 116 92 110 178 207 204 194 144 133 172 178 139 126 92 68 64 92 88 87 89 105 110 111 114 116 115 117 132 148 165 188 193 175 173 139 135 147

GFSNW_con_3kmhel_078.txt.gz
Helicity
33 6 -18 59 84 65 119 146 77 64 172 136 101 64 82 -46 -5 50 79 43 41 51 69 46 56 60 67 52 57 49 45 37 36 33 44 89 80 79 62 -13 27 51 25 -16
19 -9 -2 182 21 27 135 222 161 110 178 35 85 59 -38 77 67 81 55 46 49 53 61 49 49 63 62 40 57 93 73 52 38 39 48 50 43 49 62 50 27 39 44 -4
16 5 112 29 4 51 132 136 75 82 66 101 9 -9 27 49 66 78 45 59 64 60 51 50 46 58 49 71 55 49 59 30 58 46 33 37 31 36 50 43 52 39 67 21
22 41 115 18 56 71 27 89 76 45 36 62 38 98 70 45 99 67 66 60 60 61 53 45 60 53 62 62 60 38 42 11 1 2 8 6 12 27 35 44 53 72 31 8
36 36 48 59 42 59 39 42 31 43 45 51 86 90 43 51 87 79 65 32 47 39 64 61 36 36 43 43 38 35 38 26 35 57 48 20 -2 2 5 18 24 33 15 49
69 47 24 77 32 3 27 30 42 58 26 33 62 63 47 71 71 72 62 23 39 36 57 47 44 31 32 31 32 24 14 6 29 26 49 54 10 32 30 11 10 18 14 37
84 85 3 30 40 14 3 8 46 56 28 26 71 92 54 62 65 22 59 53 41 35 -2 26 19 32 18 39 37 6 -6 6 20 13 29 2 17 43 39 25 13 12 16 33
77 68 40 16 95 4 2 -6 26 50 53 55 68 44 18 6 38 58 35 50 24 12 52 13 3 10 -6 -4 8 12 0 9 6 11 3 -1 0 -3 -8 -13 -25 -20 -30 8
45 52 -7 81 50 -8 16 12 26 63 63 42 96 77 36 14 31 41 29 28 21 25 10 -8 -32 -45 -39 -50 -19 -4 -5 -14 -10 -15 -14 4 -43 -30 -27 -26 -29 5 17 45
56 -7 38 32 -16 -13 3 16 77 78 61 73 82 41 42 44 4 -5 -5 2 -3 18 -8 -20 -22 -17 -14 -12 -27 -38 -30 -31 -19 -7 -8 -29 -25 0 2 -21 1 41 29 42
48 67 18 -10 -5 30 30 44 85 43 39 52 57 52 47 43 33 -4 -16 -4 -19 -19 -48 -44 -38 -27 -31 -12 -17 -14 -8 6 -1 -10 -5 -5 28 33 0 35 46 51 44 44
16 43 1 -28 29 77 56 41 70 87 22 31 61 55 41 50 37 2 -7 -24 -29 -30 -54 -45 -41 -22 -16 -6 19 -6 8 4 -1 14 11 30 33 30 45 45 51 59 56 68
22 30 -16 -21 39 65 51 44 70 72 75 61 53 57 66 57 32 20 -29 -37 -35 -48 -31 -45 -34 -10 -10 1 10 11 21 32 11 4 31 30 42 42 45 60 61 76 85 84
-23 2 -11 -55 -20 41 61 73 71 31 21 29 23 57 25 94 38 2 -6 -32 -33 -21 -19 -26 -16 -10 -9 3 3 13 17 43 23 19 20 27 41 53 60 77 90 103 109 107
21 -18 -20 -4 0 13 51 48 65 43 15 15 36 31 31 66 77 64 -30 -5 -12 -13 -11 -15 -8 2 16 11 15 41 86 70 67 32 42 53 69 58 68 93 100 110 109 111
6 -15 20 38 36 42 50 15 44 64 1 -12 18 -9 9 48 29 38 26 -7 -9 -10 -8 -4 0 8 5 13 17 15 55 52 52 54 67 70 73 75 91 104 112 113 108 114
-12 -15 23 40 55 28 10 -3 24 70 35 17 33 -7 5 43 -2 -29 -28 -23 -15 -5 4 12 15 20 19 39 102 69 52 73 81 82 82 72 77 92 95 106 119 118 125 125
19 6 47 45 79 35 19 38 40 60 41 45 31 25 30 92 32 8 -3 -12 -9 -5 6 8 16 19 33 26 28 41 59 83 82 88 99 105 96 98 103 108 110 113 131 139
35 23 60 62 66 49 28 45 51 44 51 46 39 43 35 50 45 27 19 11 8 2 16 22 18 40 42 35 45 74 86 84 88 105 96 98 90 99 105 111 117 125 140 140
26 73 90 83 64 65 64 54 68 74 81 88 53 61 54 41 63 47 45 39 44 41 32 29 38 42 38 57 81 92 98 104 115 125 105 90 90 99 110 124 133 135 129 122
106 110 118 68 79 78 92 68 69 76 53 59 86 97 83 47 85 74 45 67 63 70 66 64 59 45 43 57 76 89 88 102 108 117 117 111 123 121 123 133 136 133 125 134
96 69 67 122 135 119 100 102 100 56 56 62 71 115 141 90 86 96 65 89 90 91 66 86 77 43 50 63 75 81 86 114 126 126 129 127 127 127 127 123 126 142 145 164
177 151 188 160 132 161 156 109 94 92 64 54 105 138 131 117 103 118 83 95 106 98 120 105 62 78 58 86 115 110 98 110 133 136 129 133 133 127 122 125 155 158 161 159
220 196 311 231 205 162 119 97 92 106 81 86 134 184 125 124 137 102 124 123 119 142 129 90 84 51 84 111 119 120 108 115 129 130 133 131 124 125 138 160 174 177 168 161
221 197 225 229 199 139 78 76 70 91 119 135 152 156 112 139 167 126 158 139 144 105 83 73 81 104 120 134 109 104 114 120 125 124 123 127 128 135 147 185 182 176 176 152
177 210 235 131 154 111 93 95 71 85 119 175 150 144 154 152 191 190 144 181 129 106 78 84 116 106 124 114 95 101 121 123 117 120 120 130 142 150 158 153 176 180 161 123
257 213 229 171 113 108 60 86 103 116 162 176 186 154 149 163 194 229 156 146 107 97 98 97 96 115 111 101 108 115 121 114 115 124 137 142 150 164 175 175 184 149 119 110

GFSNW_con_3kmhel_081.txt.gz
Helicity
36 64 8 -23 27 20 133 192 195 75 180 95 103 65 131 70 55 67 14 38 47 37 19 39 60 56 40 54 57 50 50 81 79 69 94 104 136 87 67 66 34 48 13 -9
49 38 16 22 38 79 137 199 137 146 201 96 50 104 44 87 64 35 42 32 54 51 32 60 49 55 50 36 51 62 62 82 91 76 86 83 74 110 112 90 44 37 20 -30
31 27 32 90 87 93 131 89 30 83 95 131 81 21 64 80 46 37 56 50 41 47 27 37 44 35 54 90 88 82 102 46 47 44 34 70 62 77 78 37 45 35 39 15
42 46 37 46 21 53 59 82 49 53 71 129 41 107 72 54 70 87 85 73 74 58 47 18 42 57 75 57 70 60 53 36 38 38 30 35 44 53 57 48 73 63 49 35
50 36 10 20 52 35 6 21 51 113 52 65 82 117 57 69 66 100 73 63 61 26 19 26 30 56 69 65 53 44 43 34 17 23 30 10 22 42 48 62 67 42 46 44
19 24 40 2 58 59 -4 49 59 67 93 53 91 59 66 72 78 56 55 60 27 40 63 43 33 24 20 30 48 26 13 24 40 34 41 39 18 40 41 22 32 40 30 37
8 2 21 -22 34 45 13 30 75 58 34 47 68 60 54 75 70 38 56 81 52 46 58 49 13 12 10 16 18 20 3 9 20 25 50 13 7 2 13 16 0 -6 -11 -15
30 -14 18 33 -4 17 35 16 70 47 26 37 31 43 40 38 32 44 29 42 34 35 81 33 16 7 7 -14 -12 1 15 22 12 19 2 -4 -14 -14 -12 -21 -28 -24 -29 -33
21 -2 60 24 14 1 56 42 96 74 32 39 77 53 45 4 6 9 23 34 56 53 30 6 -6 -18 -21 -22 -12 -12 10 9 11 -3 5 29 -31 -37 -38 -31 -29 5 22 39
-8 34 7 -12 -15 -8 34 21 84 70 64 51 71 27 15 46 15 -25 -11 2 17 33 6 -18 -9 -3 -4 19 1 -18 -11 -2 23 37 45 11 -3 3 -3 19 14 39 35 52
22 5 -6 3 11 10 26 37 44 67 45 28 42 36 32 25 19 -27 -31 -3 -9 4 -9 -12 -19 -7 -14 12 9 17 21 26 22 20 21 16 48 39 12 36 46 55 58 62
23 0 13 45 79 58 62 55 72 109 7 10 30 17 26 22 17 17 -15 -12 -20 -30 -23 -24 -22 -1 -2 -4 22 10 17 8 9 19 13 29 41 31 52 48 50 58 59 77
12 -13 11 33 73 110 63 62 70 56 46 33 26 10 17 44 30 15 -3 -17 -14 -18 -18 -27 -30 2 -12 9 12 9 12 19 25 5 33 30 37 41 42 53 64 80 98 104
15 3 -19 -22 53 80 90 57 60 55 6 16 -8 -5 -17 33 10 -2 -2 -3 -10 -18 -13 -30 -16 1 -7 2 8 26 31 48 28 20 13 30 34 40 57 71 91 103 119 128
-6 -6 -56 -50 -2 30 35 50 59 39 21 -1 6 0 -29 -12 -27 -55 -43 -24 -21 -23 -22 -15 -9 -12 0 11 14 57 95 79 77 55 85 60 86 74 62 86 98 124 137 137
12 -5 -27 -29 0 41 54 5 33 60 38 7 15 -33 -18 -30 -39 -38 -45 -45 -45 -36 -28 -15 1 7 7 23 37 20 53 35 45 67 67 87 91 87 92 103 130 145 144 150
6 -5 -12 -5 11 23 22 13 27 69 40 10 22 13 0 -1 3 -4 -3 -5 -18 -13 -10 7 20 25 19 41 76 93 64 70 88 101 100 90 89 110 115 131 145 145 142 137
34 26 11 14 -17 -2 17 32 41 44 23 32 40 37 26 51 57 34 37 32 24 25 29 21 25 22 34 43 40 55 68 88 94 109 119 143 134 126 131 130 126 121 120 124
73 46 19 10 30 19 28 52 48 35 50 46 43 53 56 45 89 75 50 58 52 49 51 59 45 53 67 44 63 82 101 108 119 136 132 126 128 136 139 126 122 117 119 116
60 45 45 81 65 54 57 37 59 70 96 109 59 88 74 58 56 98 79 62 80 73 80 72 90 61 51 58 92 112 116 124 146 155 127 130 134 129 134 126 129 120 117 121
76 50 118 90 73 97 110 85 74 75 72 72 104 146 129 77 99 96 87 91 93 98 104 112 102 74 87 94 96 137 128 127 115 131 160 158 150 148 142 133 127 119 115 127
51 90 92 81 152 160 138 125 112 69 86 82 87 120 189 124 102 116 93 114 109 128 100 122 107 64 121 118 113 118 145 151 145 146 168 169 167 156 145 133 127 124 137 145
64 107 143 115 156 176 160 146 120 104 66 70 92 128 143 165 136 141 115 119 149 124 139 151 86 105 107 111 138 156 165 161 158 161 156 162 164 144 131 128 131 134 141 152
154 113 131 136 193 218 234 225 163 126 99 83 102 150 121 151 155 145 140 142 123 174 175 103 84 104 105 128 147 181 166 147 148 147 157 162 148 137 134 134 145 153 164 171
191 158 159 257 205 170 127 113 111 115 95 100 124 134 120 143 184 163 213 174 166 127 85 72 78 139 167 165 173 174 153 144 134 144 144 135 140 142 139 156 163 166 180 184
212 215 227 255 278 131 95 97 84 70 82 116 134 138 157 149 192 211 203 266 170 95 78 78 130 150 155 181 190 160 138 135 142 145 141 148 147 144 152 158 173 195 189 159
218 298 308 243 271 204 101 35 98 84 123 157 127 152 160 199 180 229 214 202 143 110 99 117 141 138 161 183 174 153 144 146 148 145 149 163 164 159 154 161 191 181 155 128

GFSNW_con_3kmhel_084.txt.gz
Helicity
37 66 78 52 41 65 184 224 91 40 50 31 3 54 112 113 100 107 71 114 71 55 33 39 56 44 74 60 124 97 84 87 100 93 95 94 149 133 83 38 73 59 8 9
26 47 85 108 81 57 116 172 129 114 34 -13 62 146 76 96 59 58 63 43 49 62 38 63 31 39 41 56 58 65 71 75 97 102 87 105 118 114 96 89 64 14 -58 -63
-5 20 28 47 115 130 160 98 11 48 74 74 173 84 73 81 75 45 66 74 103 101 74 39 40 64 90 78 53 86 65 44 45 39 51 84 62 72 93 22 -16 -11 15 35
-5 -9 -24 4 56 88 95 101 47 59 104 139 113 108 48 45 90 94 96 84 81 87 60 34 65 97 106 97 84 81 32 14 29 13 9 19 31 44 73 107 40 1 -28 28
31 32 10 23 5 78 58 46 77 136 82 103 95 92 65 55 94 142 64 50 41 64 59 35 49 96 65 49 54 41 26 0 6 3 13 12 16 50 22 38 57 36 65 37
30 45 32 63 27 52 65 93 77 86 140 150 56 48 41 58 87 73 63 90 21 57 81 61 39 24 26 26 21 19 12 27 27 41 39 37 34 28 13 -14 -3 5 -21 -3
32 15 -2 23 22 54 8 20 66 73 48 40 65 29 33 50 65 58 70 87 23 43 85 77 31 11 -6 -5 10 23 18 5 17 33 24 17 21 1 4 0 -23 -19 -34 -7
13 -5 -20 -29 -16 1 -17 17 50 36 23 -4 1 6 28 48 35 55 44 56 41 71 81 45 41 35 22 0 0 11 17 24 9 14 13 3 -6 -11 -14 -24 -35 -34 -32 -24
-11 5 -9 -21 -31 -26 -25 -12 70 57 16 9 56 34 34 31 26 38 45 65 67 44 36 21 10 19 17 12 5 -9 5 13 3 10 51 59 -7 -20 -32 -27 -2 -25 3 41
8 7 16 -17 -41 -23 -12 -6 24 33 10 1 48 4 -23 15 12 -15 8 12 23 23 25 -13 11 23 19 35 20 8 4 2 22 28 38 19 -1 -7 -17 24 38 27 28 61
22 1 12 34 30 15 1 10 43 31 -11 0 14 -4 -18 -10 -7 -33 -30 -13 -6 4 6 5 17 30 14 32 22 18 25 19 24 17 24 17 22 16 40 46 45 68 76 95
28 7 22 56 124 43 16 -21 43 91 -31 -9 -4 -8 -8 -15 -18 -22 -27 -23 -31 -31 -7 -9 -3 22 11 10 44 14 34 46 50 51 44 18 36 40 47 48 64 69 78 99
22 39 43 54 125 129 30 -1 63 -1 -16 -2 -2 -6 -14 2 -8 -5 -20 -31 -18 -25 -21 -6 -5 22 -2 40 50 40 39 38 59 17 52 52 65 83 80 75 89 99 110 131
10 -3 27 40 79 88 87 7 65 11 -6 -18 -27 -47 -35 -9 -13 -17 -21 -22 0 -6 -12 -10 7 22 0 46 38 52 60 74 64 53 44 91 67 87 104 118 132 137 156 167
28 31 -14 16 68 70 62 21 53 31 -41 -26 -42 -53 -63 -44 -34 -40 -33 -22 -16 -18 -2 18 21 6 7 24 14 66 136 107 138 73 110 122 113 105 91 128 134 140 158 157
41 40 53 -5 25 66 31 -9 40 66 33 -20 -5 -56 -43 -56 -42 -34 -29 -26 -18 -8 7 19 24 38 37 52 54 33 97 75 82 107 131 142 148 133 121 156 181 180 176 180
16 15 30 59 24 17 23 13 34 113 48 17 23 14 -10 -1 8 3 0 10 17 22 25 43 66 64 70 87 110 108 130 130 136 146 160 138 131 131 160 177 188 177 173 158
29 23 24 47 87 67 44 31 30 53 44 47 44 33 41 52 78 64 40 37 35 34 63 70 76 70 94 79 75 112 128 152 148 147 158 162 174 172 158 161 156 155 150 146
78 37 35 46 65 74 71 50 40 36 67 59 66 71 67 44 99 111 82 69 64 72 88 95 96 104 119 72 78 134 141 131 136 194 169 165 149 146 145 146 155 157 150 150
107 80 26 50 49 99 91 78 83 85 106 152 92 96 98 85 76 93 111 101 91 100 71 94 126 112 76 45 68 115 152 167 247 231 173 150 146 142 143 141 154 152 146 140
68 -16 -51 56 41 89 134 102 105 95 73 86 88 146 154 102 114 96 96 109 111 103 92 140 113 63 77 101 201 195 204 210 174 169 137 128 133 140 164 160 146 146 141 135
75 58 52 41 32 69 101 130 135 118 94 96 73 80 128 154 135 124 101 115 133 134 135 123 77 34 77 118 167 184 186 226 230 181 183 181 184 172 169 155 147 151 142 129
93 107 122 79 64 90 147 169 155 137 122 121 111 108 88 115 135 152 117 145 148 151 170 143 107 76 89 107 131 142 182 226 218 206 195 180 169 161 147 146 138 136 126 129
136 121 121 131 123 93 150 151 162 143 141 116 126 151 116 113 138 151 187 137 164 202 160 120 73 82 118 119 104 160 173 205 195 179 171 163 155 145 140 132 129 127 128 139
158 112 62 119 142 170 185 168 134 106 122 115 125 143 138 147 186 170 237 233 194 87 22 51 24 55 132 125 128 141 169 174 173 158 159 154 146 142 124 116 122 129 146 163
224 150 121 133 141 90 134 143 139 90 111 152 187 183 139 108 185 205 179 245 137 65 66 58 63 91 100 129 128 151 172 163 156 145 146 150 136 126 120 119 122 145 163 169
288 153 188 250 184 125 133 153 137 146 154 140 143 160 116 166 130 162 138 114 93 60 25 63 69 77 107 140 166 174 175 163 162 171 169 171 162 150 141 137 138 151 162 160

GFSNW_con_3kmhel_087.txt.gz
Helicity
54 67 60 60 45 -13 56 124 104 105 74 55 49 96 156 301 196 134 110 91 81 62 58 76 77 58 104 136 91 74 97 91 92 91 84 104 173 184 84 47 70 33 36 75
24 35 69 56 57 18 51 90 67 65 108 92 141 164 186 134 80 73 82 73 71 60 91 70 72 78 91 80 60 53 36 67 71 74 66 79 121 143 75 52 38 49 39 47
24 26 38 76 83 45 78 54 36 104 90 118 143 146 96 89 117 130 97 78 97 92 76 74 71 97 92 83 76 56 41 31 46 53 66 89 64 114 114 20 9 48 27 -13
24 31 -1 33 50 43 31 36 90 112 87 109 167 105 70 77 112 120 77 85 84 72 72 70 71 75 69 82 82 58 28 9 21 29 27 14 25 31 71 76 26 -18 -65 -38
29 45 1 -9 29 10 9 43 52 52 78 82 88 57 92 89 108 84 109 85 108 77 101 86 71 75 41 52 54 20 9 25 -3 7 -7 -9 -3 45 49 60 37 13 -4 -1
23 0 -22 -5 8 -10 -5 70 64 48 88 75 72 80 32 55 78 69 60 75 75 90 96 89 111 52 34 23 22 28 17 15 14 29 22 20 22 40 23 9 12 5 14 18
-32 -32 -26 -4 -25 -28 34 46 45 26 72 50 56 44 38 26 57 59 65 35 25 49 44 47 32 34 19 1 11 8 19 13 9 31 8 34 29 18 17 7 7 10 27 68
-6 -28 -15 -30 -64 -104 -64 -17 -17 9 41 38 21 12 20 24 25 30 33 44 59 52 27 16 25 20 25 21 12 10 4 -2 -1 6 19 9 3 2 2 -3 10 -7 14 27
-5 -20 -53 -60 -81 -126 -80 -48 -23 2 7 12 37 30 14 20 18 19 34 54 61 15 5 6 49 46 16 18 3 -2 -3 -20 -6 20 46 83 36 -3 -14 -14 60 14 25 47
-9 -37 -70 -35 -34 -88 -89 -36 -33 -48 -32 14 4 5 5 10 2 1 10 9 2 0 -2 25 31 43 23 49 43 29 22 19 38 38 40 40 20 24 14 53 60 37 42 58
-23 -37 -18 38 104 39 -50 -33 -27 -56 -67 -6 -19 -18 -18 -12 -17 -11 4 -15 -10 -8 16 29 39 45 51 46 51 41 49 42 51 40 43 35 36 31 65 49 37 56 66 71
2 -27 12 52 138 113 -32 -47 -9 -30 -59 -39 -28 -39 -32 -27 -23 -28 -14 -13 -7 4 7 23 28 52 49 56 57 32 54 70 57 80 60 47 45 53 59 62 75 73 92 110
8 -6 -14 41 64 68 -31 -52 4 -68 -98 -59 -55 -31 -29 -48 -33 -29 -11 -18 -14 -7 -1 8 28 58 42 55 54 47 35 53 61 17 36 69 88 83 91 86 97 125 139 149
29 20 -1 4 15 41 33 -77 81 -66 -70 -51 -54 -72 -56 -52 -44 -33 -25 -27 -26 -15 -7 21 47 59 49 74 66 76 74 85 74 56 35 57 74 95 97 120 142 167 166 160
23 53 51 41 28 7 25 17 35 -1 -61 6 -49 -77 -63 -58 -58 -38 -34 -33 -24 -2 15 33 38 39 41 50 55 112 201 188 198 94 79 97 66 116 121 139 132 142 160 160
16 32 61 76 74 54 38 38 28 46 25 -30 -37 -42 -1 -3 -36 -20 -22 -26 -13 7 19 16 13 35 54 70 74 43 52 60 87 81 114 99 124 134 127 153 165 165 171 163
33 28 36 94 89 92 74 43 24 55 55 48 11 11 25 46 61 78 84 65 65 68 52 57 75 73 75 95 159 152 55 95 126 133 164 135 128 115 138 169 161 167 161 160
16 51 52 72 133 129 101 95 51 48 66 70 48 38 53 58 75 74 68 81 105 109 127 145 111 86 116 78 77 38 99 165 147 152 169 146 168 186 177 153 151 150 140 133
8 34 68 63 80 93 116 129 88 55 76 77 87 73 40 53 62 85 90 102 79 100 113 130 137 148 163 46 62 67 115 99 100 164 167 174 168 162 150 146 134 136 121 120
63 44 42 22 29 54 87 148 121 118 129 212 155 136 115 115 89 82 88 91 81 104 88 102 98 177 227 131 124 58 91 131 203 207 151 157 156 140 127 112 125 124 120 119
103 54 52 42 37 36 48 28 49 56 68 80 71 81 92 92 130 117 123 122 117 102 88 115 69 92 40 42 51 134 191 202 172 142 134 151 135 132 134 133 128 124 115 113
84 56 54 63 92 121 158 147 96 76 22 102 94 68 95 116 124 145 124 137 173 144 132 116 58 23 27 51 79 125 174 196 190 167 171 160 157 151 151 139 131 121 121 121
110 97 83 68 77 117 153 266 251 155 110 52 43 42 50 88 104 145 143 153 154 133 145 66 44 38 44 47 85 103 104 147 179 179 189 195 194 174 146 133 125 129 125 124
152 125 104 72 77 46 73 133 142 170 159 112 101 92 70 70 83 115 127 116 116 111 95 28 32 17 15 61 76 116 94 122 147 159 166 166 156 148 144 133 126 125 117 115
200 157 85 65 67 52 48 70 101 111 115 142 140 143 142 126 139 142 168 149 114 79 50 74 76 62 48 64 66 94 118 123 137 158 153 152 141 140 139 127 125 117 114 112
269 232 152 111 100 51 60 77 82 86 150 152 147 157 175 174 221 300 210 251 191 135 107 95 88 85 72 63 67 88 118 136 151 154 135 151 140 129 132 131 117 120 114 107
293 245 208 224 196 121 95 124 123 139 208 167 179 192 138 266 229 344 324 220 164 93 43 67 75 52 65 80 95 111 125 144 154 156 143 152 168 175 160 133 109 111 106 106

GFSNW_con_3kmhel_090.txt.gz
Helicity
21 23 21 27 -25 38 23 89 100 151 140 53 189 208 130 133 144 131 136 95 54 58 80 62 58 62 76 56 46 58 77 49 60 48 76 113 134 147 98 90 76 49 44 87
24 22 25 21 22 36 56 51 117 169 190 88 163 176 180 196 111 99 73 58 59 67 54 33 65 100 80 63 58 58 39 55 51 32 44 60 79 120 88 58 41 50 57 67
29 19 41 39 3 15 35 74 45 134 118 133 126 142 110 83 101 103 71 64 68 58 48 66 66 65 86 71 44 43 32 35 44 54 76 92 87 127 83 31 14 47 32 14
13 -4 -11 29 28 49 57 60 64 83 82 111 149 133 85 96 81 74 40 64 54 68 70 83 71 67 58 47 30 23 25 33 26 36 40 34 48 60 88 33 15 21 -6 19
-6 -63 -62 -59 -1 1 29 45 33 52 112 120 92 70 106 100 95 64 97 65 103 65 29 48 50 55 35 38 37 20 20 28 7 16 5 2 12 28 20 36 58 24 -2 -8
-21 -38 -38 -35 -28 -18 -6 28 17 55 65 57 70 91 73 64 61 37 32 64 65 60 81 106 107 63 38 16 27 32 23 26 17 15 10 13 11 34 25 18 18 14 26 30
-34 -29 -58 -85 -53 -44 -6 16 9 11 40 39 61 61 62 41 42 44 43 20 23 44 76 70 31 22 15 11 5 15 17 8 8 35 2 76 29 9 10 7 12 10 -1 5
-46 -90 -119 -131 -117 -108 -76 -51 -22 6 19 39 16 16 24 22 14 19 33 38 43 27 6 7 7 9 5 7 5 3 -7 -6 -2 26 43 30 14 10 6 7 32 19 36 43
-11 -63 -81 -120 -142 -133 -81 -90 -48 -25 -1 13 26 34 17 8 9 7 24 21 12 -12 -2 27 46 69 28 23 9 -21 -28 -29 -5 16 47 73 35 -1 -8 2 63 55 52 74
-18 -17 -88 -89 -98 -135 -76 -58 -57 -52 -37 -5 -11 -2 6 3 -9 1 3 -3 -6 -13 13 37 63 70 37 62 54 43 20 7 35 39 45 38 31 34 15 49 46 48 49 60
-48 9 -15 -32 -2 -87 -86 -77 -65 -65 -59 -37 -44 -38 -27 -23 -27 -12 -2 -8 -2 1 31 50 65 66 54 44 53 39 48 45 50 37 43 32 52 57 60 38 38 56 65 66
-39 -26 16 30 -7 -44 -55 -87 -62 -82 -83 -48 -60 -63 -53 -42 -43 -34 -27 -14 -17 -4 6 24 28 41 38 42 43 23 41 60 41 73 42 25 39 33 39 54 57 53 72 78
9 -10 17 53 48 3 -57 -57 -60 -74 -93 -86 -75 -54 -55 -45 -33 -30 -20 -13 -26 -20 -17 2 17 44 42 47 46 38 29 52 51 15 18 45 54 57 70 70 74 89 90 104
42 33 18 51 71 69 19 -15 -58 -11 -45 -52 -40 -48 -65 -60 -53 -29 -12 -8 -11 1 6 21 35 40 40 50 51 91 65 90 62 44 16 20 33 65 84 97 111 127 136 131
54 68 48 50 50 49 73 57 66 37 47 21 1 -68 -30 -1 -7 -26 -35 -38 -22 9 42 83 84 89 75 82 81 139 174 152 175 93 56 76 57 84 120 143 117 116 143 154
82 75 87 83 59 31 40 40 35 45 43 84 34 61 73 93 112 104 88 70 69 69 47 31 41 88 86 76 131 85 81 33 50 61 75 85 93 112 118 128 136 136 142 137
58 101 105 95 73 75 61 45 31 19 34 71 46 47 34 44 107 145 161 160 155 143 124 136 161 161 160 196 274 256 152 97 84 93 170 139 113 104 136 159 171 168 155 149
74 54 106 106 90 72 85 85 101 75 64 76 69 52 64 52 67 81 120 134 150 156 168 226 184 173 207 158 84 77 54 75 123 124 122 109 149 192 195 191 187 174 150 139
84 108 108 117 74 32 62 86 103 92 95 75 97 86 35 61 64 58 80 112 114 141 147 134 116 155 151 46 98 78 91 78 68 139 135 144 154 166 181 189 158 151 132 130
126 159 135 141 94 48 49 83 70 82 146 214 126 180 158 128 88 60 56 71 87 105 80 86 85 150 129 13 37 51 74 97 153 163 117 123 142 158 164 138 131 127 129 130
166 129 131 105 64 92 127 149 159 121 103 57 100 107 121 91 146 121 109 102 89 61 72 78 70 62 18 34 30 30 67 190 137 112 88 107 112 143 152 139 130 133 135 126
116 115 120 111 144 161 155 187 209 206 166 129 122 78 79 73 91 105 99 88 107 57 99 100 67 41 36 55 56 49 58 116 162 134 107 119 128 143 149 151 139 135 142 140
196 153 167 122 125 131 85 135 111 98 139 120 134 133 100 89 85 113 99 104 94 155 158 140 66 90 41 30 40 69 76 86 114 121 138 147 167 169 156 152 143 150 147 141
181 169 190 156 121 63 114 139 94 101 111 103 119 125 101 96 101 137 159 177 196 229 242 168 130 90 90 50 46 76 72 68 83 107 126 152 169 164 148 141 141 133 128 133
208 184 179 167 166 190 130 89 120 108 129 169 142 132 114 113 124 127 212 173 96 90 74 126 111 106 91 48 44 52 53 75 96 116 139 154 156 146 138 137 144 150 156 137
277 288 274 160 161 147 156 110 110 131 179 192 158 137 140 104 138 135 85 111 113 155 112 121 117 84 61 47 42 54 59 85 117 132 142 151 145 130 124 143 137 136 126 119
321 339 268 167 131 110 169 170 126 166 240 187 178 145 95 180 150 127 146 131 124 127 102 78 59 16 0 16 62 90 142 130 129 140 149 155 164 176 174 143 159 135 120 115

GFSNW_con_3kmhel_093.txt.gz
Helicity
26 26 31 32 52 122 50 81 109 142 115 85 140 147 132 107 99 97 90 94 54 58 56 49 66 73 48 48 67 62 73 37 52 62 71 89 102 96 97 115 109 77 56 68
-0 5 22 25 48 77 121 109 158 191 141 123 146 164 175 181 132 101 85 61 49 45 65 96 86 49 53 52 52 59 41 25 26 38 50 55 68 107 107 76 58 53 61 55
-14 -16 24 35 63 111 79 51 42 101 92 130 129 121 111 79 81 68 64 56 51 55 52 70 58 66 59 43 43 39 31 42 47 69 72 69 86 107 70 63 30 43 30 40
-50 -39 11 43 77 98 80 39 65 93 89 115 101 102 89 79 58 69 33 68 64 84 54 53 47 52 50 51 40 29 25 38 27 38 44 38 46 61 49 -3 35 26 30 14
-11 -64 -46 15 14 30 19 51 60 93 106 108 80 63 80 72 65 46 67 45 70 40 39 45 49 37 23 28 31 22 19 22 9 8 2 1 4 10 19 10 7 15 12 3
-13 -16 -61 -44 -17 1 15 44 60 51 45 53 64 83 74 73 78 56 39 56 40 36 48 69 69 44 30 19 17 25 10 1 -10 -0 10 17 13 17 8 18 12 9 17 9
16 9 -47 -97 -83 -34 2 27 26 20 42 23 46 30 24 9 22 29 24 6 14 31 45 26 18 24 35 25 3 -1 -2 -9 -8 27 -2 53 33 8 11 15 16 8 -0 -6
42 64 2 -54 -64 -48 -59 -35 5 23 19 43 16 6 19 13 6 -4 17 16 23 28 -4 7 8 16 16 9 -8 -10 -17 -17 -2 26 54 52 34 28 24 23 14 41 11 1
6 82 79 -15 -51 -50 -33 -40 -38 -18 -3 15 28 15 19 13 14 5 17 8 5 -23 -4 16 30 48 23 21 7 -27 -25 -20 -0 12 31 52 28 14 10 -5 15 41 41 34
-9 26 94 102 1 -39 -30 -31 -39 -40 -38 -14 -8 -4 1 1 -3 12 7 -0 -4 -23 -4 20 35 48 29 40 39 27 20 22 61 69 70 34 21 58 35 26 24 39 52 57
4 5 62 119 129 2 -48 -27 -46 -54 -22 -21 -15 -24 -28 -27 -22 2 -5 1 5 7 31 38 39 43 35 30 44 33 33 27 35 29 46 24 53 66 52 35 40 37 45 57
31 18 24 71 130 91 -29 -40 -39 -50 -53 -36 -40 -34 -35 -27 -35 -28 -27 -1 -16 -0 1 27 34 61 58 51 39 22 26 40 24 52 27 -3 17 33 29 42 48 49 61 76
56 38 20 41 75 90 36 -1 3 -25 -16 -42 -31 -18 -21 -28 -19 3 -1 -10 -2 2 1 4 4 27 42 44 45 51 30 62 66 27 20 27 44 48 63 80 72 84 86 104
45 69 40 44 66 76 59 62 60 83 70 30 10 1 -1 15 59 41 34 65 52 63 65 86 105 106 112 98 99 162 114 129 100 74 21 30 35 81 93 113 118 124 132 123
48 57 56 60 58 56 53 55 55 48 68 29 36 110 122 140 134 96 90 95 125 124 124 136 122 159 158 167 173 200 250 114 165 92 53 88 40 49 126 149 126 124 149 156
61 61 68 62 62 56 61 51 81 71 63 61 32 53 106 135 129 109 120 124 124 131 123 101 121 156 128 108 162 146 85 107 128 101 86 96 82 84 106 115 128 145 153 158
59 82 78 74 47 88 97 87 57 56 56 73 52 51 37 64 85 80 111 136 141 140 125 142 176 174 176 211 267 240 77 67 74 103 127 107 101 80 112 137 160 172 183 173
57 79 91 85 76 103 110 104 96 81 92 102 89 68 66 69 90 89 95 121 146 153 156 194 170 167 172 122 87 46 61 71 79 109 124 100 108 162 170 189 209 210 188 171
68 80 107 105 112 101 95 97 132 128 106 77 117 86 18 70 80 83 81 85 89 120 119 128 122 176 94 58 97 82 83 92 82 126 129 106 100 122 153 186 182 186 168 163
86 131 133 73 77 108 104 120 136 175 192 233 147 205 134 116 112 70 59 77 78 93 77 103 96 117 44 -24 46 80 66 83 170 187 143 123 120 122 129 122 137 142 149 153
137 109 121 114 72 90 120 120 194 223 255 229 190 190 255 156 148 113 88 99 101 79 89 104 110 88 104 73 60 66 64 73 152 139 113 99 103 120 129 129 128 142 152 143
107 108 117 116 131 130 142 137 155 154 147 232 206 129 162 116 131 142 117 137 147 104 163 218 209 158 53 62 49 42 53 69 98 91 82 88 90 112 137 146 151 146 148 159
188 180 160 131 152 201 137 109 97 73 87 128 166 182 133 130 122 156 137 143 127 155 180 180 117 90 96 45 49 20 60 83 79 49 55 89 122 152 180 189 174 176 171 154
290 233 211 172 182 151 176 165 98 99 105 127 178 228 181 148 158 152 163 158 148 151 124 73 98 106 77 59 49 13 40 80 102 93 89 112 144 169 188 190 202 191 152 142
346 288 223 204 236 181 110 116 159 153 150 194 177 179 161 175 162 118 158 123 76 69 44 59 92 96 82 64 48 33 46 70 92 116 146 162 193 210 215 204 184 153 159 146
394 326 320 272 200 146 127 147 158 149 162 188 173 158 152 158 159 153 97 141 82 84 86 89 129 114 78 50 31 11 47 78 97 133 155 182 185 189 196 204 173 155 152 137
309 285 359 300 203 155 152 148 137 168 246 211 166 175 141 183 182 145 140 99 147 81 46 96 117 101 57 22 6 11 41 77 116 133 153 166 185 221 231 208 186 167 147 137

GFSNW_con_3kmhel_096.txt.gz
Helicity
53 67 72 87 103 115 82 167 121 212 132 111 212 134 133 123 122 127 98 74 50 73 63 61 61 57 73 67 71 82 71 43 63 77 61 47 104 102 93 90 78 82 77 75
21 58 72 96 104 96 125 143 176 184 81 122 158 129 112 112 88 82 79 78 58 58 73 45 65 71 62 76 60 65 41 42 43 54 54 54 64 101 105 87 76 74 58 54
0 40 82 90 86 101 80 98 77 119 91 133 113 98 101 87 92 85 64 69 60 68 51 64 65 72 62 69 69 42 26 43 45 58 56 35 58 53 37 59 55 59 57 50
9 32 45 77 46 35 32 61 97 112 104 137 110 106 88 79 68 80 36 50 44 76 59 49 41 48 47 46 37 29 25 48 34 47 49 30 53 28 4 3 29 14 29 31
-30 20 46 46 72 22 28 59 65 80 92 111 69 57 87 59 69 46 72 47 57 29 42 43 37 27 25 34 27 29 12 31 22 11 26 12 12 3 -15 -12 -4 -15 -26 -20
-27 13 36 32 43 31 27 38 46 45 57 37 31 70 77 62 75 62 60 67 51 28 30 57 63 41 30 37 23 18 8 -8 -18 -6 -8 -4 19 28 20 14 20 24 23 12
-5 19 27 25 12 20 9 20 27 18 20 29 58 59 62 49 53 61 47 31 30 23 25 18 10 19 35 30 22 6 3 -4 5 44 1 33 29 -1 10 27 31 31 13 12
5 18 37 36 17 -23 -2 -7 3 10 17 27 19 20 28 28 31 34 36 25 15 5 -12 -8 -6 1 9 10 12 14 8 17 20 17 33 51 9 22 19 4 -5 51 45 32
9 5 29 31 31 -10 -15 2 -4 -13 0 16 15 15 9 22 23 7 14 1 -9 -33 -3 11 35 48 36 20 12 16 19 20 19 3 3 23 4 14 35 19 -21 11 23 30
30 8 19 44 34 -4 -25 -7 -9 -12 -3 0 0 8 9 5 5 22 14 -1 -11 -30 -16 1 15 28 12 19 22 16 7 14 54 59 53 19 17 39 49 20 17 20 24 43
31 33 20 39 66 56 -42 -8 -39 -42 -24 -1 13 26 20 5 6 29 4 2 3 3 14 33 33 44 28 26 42 34 34 38 49 50 60 27 51 70 62 41 38 40 39 47
33 39 33 34 48 74 67 23 3 -54 -46 -35 -28 -16 -24 -11 -7 21 24 37 22 34 32 40 37 59 69 79 64 59 59 86 91 118 85 68 63 77 85 90 77 69 75 78
-27 47 35 29 48 56 53 75 83 96 45 -38 -17 8 -15 -2 5 30 61 46 61 73 71 85 88 70 120 100 81 105 62 101 120 98 46 61 78 77 89 111 88 84 89 107
15 -5 40 40 42 49 39 53 54 87 93 80 50 83 68 82 88 99 103 97 122 141 128 116 128 128 119 103 88 156 133 172 144 125 73 64 64 98 98 131 127 136 138 129
43 24 14 35 56 39 39 42 52 62 80 70 45 64 96 142 144 123 131 144 140 130 137 161 144 162 149 183 176 196 203 164 230 154 70 95 71 67 98 145 158 150 176 170
46 70 62 39 58 72 77 78 75 78 76 80 18 52 88 126 150 123 83 90 116 130 130 108 140 208 148 126 167 150 114 135 150 166 125 98 78 70 81 98 116 140 142 147
48 64 98 79 76 87 109 104 65 53 68 68 -41 16 53 73 90 109 125 130 106 115 126 149 182 199 189 226 214 284 176 117 96 115 128 83 111 99 110 113 123 144 167 170
56 60 86 106 86 86 101 100 111 107 116 105 74 57 83 108 122 107 112 123 132 125 147 186 142 146 190 94 119 72 70 65 77 93 123 127 104 110 118 130 160 169 162 168
67 80 103 119 116 88 85 83 118 139 162 211 224 189 94 148 142 132 115 125 63 134 157 143 128 157 111 62 108 86 107 114 86 115 124 157 136 99 103 116 142 159 152 163
112 129 112 61 76 81 96 116 118 140 197 316 322 325 256 214 185 183 172 116 109 147 106 147 137 132 117 44 75 100 88 72 117 155 118 143 136 170 151 117 126 135 156 178
194 150 124 125 100 80 105 113 145 141 147 189 244 296 294 236 245 209 142 195 186 210 170 166 153 148 83 97 99 84 67 78 97 124 74 134 145 161 129 107 125 149 168 164
143 163 148 124 138 144 138 180 182 132 101 150 126 114 208 200 207 199 140 245 265 253 254 242 220 139 100 94 59 56 54 30 50 91 55 38 53 75 120 140 158 170 180 191
291 267 243 171 165 234 265 216 141 169 128 70 104 128 146 156 158 175 156 190 243 242 234 243 180 95 66 56 60 40 26 17 49 62 29 28 44 75 108 144 170 199 212 191
307 264 278 194 185 178 209 239 223 245 207 124 155 180 137 126 133 132 156 154 165 184 181 125 49 57 70 61 49 33 27 29 51 62 66 72 103 120 144 164 191 204 187 165
377 310 247 202 273 321 213 154 142 118 146 195 219 216 192 180 171 118 137 137 96 65 44 60 52 80 92 80 63 36 35 60 66 83 100 122 144 164 195 205 208 205 207 192
414 358 312 285 252 174 205 197 164 134 152 254 255 223 224 190 233 226 112 139 92 55 82 45 83 97 97 64 38 10 1 17 25 53 101 143 161 179 211 227 204 199 206 189
449 251 316 345 315 203 185 234 176 168 244 259 224 259 228 271 256 195 163 175 115 103 60 40 43 71 67 27 -2 -20 -9 21 55 85 114 134 176 248 275 235 196 203 195 211

GFSNW_con_3kmhel_099.txt.gz
Helicity
-13 56 112 133 144 151 133 155 132 208 88 96 166 142 115 117 115 109 94 86 74 64 71 75 66 61 71 62 49 56 70 66 90 94 77 62 87 103 69 89 95 110 106 101
-29 -1 49 86 97 76 115 180 177 213 38 106 144 134 138 143 93 91 81 70 64 75 73 64 69 68 46 51 45 51 55 66 50 54 48 39 51 60 69 70 69 98 95 90
-24 -14 4 43 58 35 69 88 51 134 119 117 105 104 110 82 84 90 77 86 75 66 57 53 59 58 44 51 48 51 42 61 71 57 48 32 26 21 20 51 32 37 60 43
-46 -13 -10 5 33 61 66 54 88 118 92 128 99 98 101 101 81 90 58 61 57 66 52 59 52 59 48 41 28 30 29 41 37 40 50 41 45 23 8 37 38 28 20 38
-57 -38 -13 -17 -0 42 34 69 76 65 91 96 72 59 82 64 84 61 73 40 53 31 35 42 55 37 43 44 35 23 15 25 10 -1 5 46 24 29 40 34 20 26 52 39
12 -20 -20 -4 -15 15 29 41 36 50 59 50 43 56 56 56 65 53 52 54 45 38 34 42 51 47 31 34 20 7 3 -8 -4 13 19 42 69 67 106 75 59 62 83 62
41 31 -14 -21 -29 -20 34 38 34 39 38 30 40 42 52 47 43 51 46 33 34 34 11 10 7 15 32 33 33 22 25 29 48 82 13 40 64 32 50 77 69 104 63 78
49 52 54 3 -17 -37 -11 11 10 26 35 37 37 54 50 42 46 63 61 57 48 -3 19 15 6 14 15 9 20 52 46 44 44 29 50 57 25 40 46 52 13 90 101 59
55 57 63 62 11 -36 -31 -18 3 -9 35 34 26 41 33 48 42 31 44 24 2 11 17 34 52 54 42 26 15 25 53 46 54 45 46 41 11 2 27 31 -3 16 34 31
40 55 46 41 61 6 -67 -32 -33 -21 4 18 33 35 32 13 7 31 17 13 23 -0 24 27 29 30 25 24 27 31 34 52 104 87 67 18 32 50 52 32 27 40 36 53
46 54 55 33 32 67 -1 -22 2 -5 -6 -9 23 7 33 18 20 29 -5 -15 -1 7 18 28 28 43 39 45 59 68 81 92 82 94 88 39 68 94 68 53 58 63 66 78
30 55 67 57 53 51 47 18 34 39 7 -2 -8 7 5 1 36 72 73 61 19 33 29 32 38 57 71 88 76 75 86 118 134 162 124 94 94 100 94 107 109 96 105 103
28 46 61 64 74 69 40 44 40 58 27 9 47 22 83 92 44 54 92 93 107 97 76 54 68 89 137 113 92 118 78 138 199 154 70 86 113 98 112 124 94 90 76 89
17 37 71 78 77 78 66 47 36 47 58 56 38 81 78 112 149 143 137 145 150 166 135 111 116 114 102 123 116 193 180 256 226 193 79 74 84 148 100 103 131 101 119 115
28 15 39 100 99 86 70 68 64 46 56 48 42 56 108 160 176 210 200 192 169 132 157 187 136 134 121 132 144 171 332 226 255 208 148 144 86 87 87 102 125 133 143 132
43 28 35 62 97 112 114 85 68 84 81 61 -9 52 77 129 181 195 184 169 184 194 174 129 151 214 156 132 189 222 177 167 187 154 137 132 77 74 96 95 100 103 105 101
57 51 42 62 103 129 160 154 96 66 78 92 44 34 83 66 92 114 136 162 161 173 175 194 235 241 184 232 232 284 168 130 115 112 135 99 126 92 95 102 121 101 107 114
52 59 68 68 96 114 118 124 145 130 152 155 128 132 134 123 137 139 147 147 166 136 136 220 197 193 246 192 173 102 86 105 70 71 128 120 104 111 120 130 153 137 125 143
66 74 93 126 121 128 125 137 182 178 197 214 289 295 143 181 167 166 146 147 158 174 207 222 197 206 216 49 48 64 86 147 168 133 87 92 92 75 99 108 93 96 111 134
111 135 117 82 84 97 106 148 196 243 276 391 337 432 376 301 234 190 170 137 135 183 163 191 201 287 156 87 145 115 103 115 145 93 83 99 77 87 81 84 79 83 112 135
187 139 151 158 121 121 137 138 222 217 206 191 215 292 292 240 297 275 188 207 169 157 167 212 265 267 91 84 96 70 64 75 90 110 98 89 84 75 96 90 93 103 130 133
186 194 220 187 182 180 180 290 300 218 164 249 195 155 158 154 175 220 186 207 181 185 213 221 232 107 82 85 76 61 60 67 54 65 74 59 48 65 66 75 87 110 117 153
347 254 181 140 170 350 413 441 445 184 165 174 183 161 143 142 126 172 152 165 180 200 201 208 143 46 38 42 47 51 56 52 36 45 41 25 27 46 74 90 108 150 169 174
277 215 246 218 252 275 321 265 238 258 229 186 229 241 168 163 159 159 186 177 193 214 170 110 82 30 47 69 76 70 55 49 55 55 43 36 58 71 104 118 150 195 191 190
350 235 236 252 306 307 244 154 170 157 169 204 212 240 204 189 203 156 247 217 195 125 81 61 58 33 60 77 73 52 38 42 42 57 66 68 97 117 126 133 156 181 210 211
378 316 304 242 236 208 201 177 191 191 183 231 194 183 212 213 250 276 222 303 204 148 102 77 101 76 73 83 70 35 16 6 2 25 52 84 103 114 121 160 171 188 222 231
451 326 348 332 278 196 204 240 213 214 289 290 256 228 199 267 257 356 370 293 187 118 111 115 53 69 79 70 59 40 14 -15 -26 -1 29 59 104 170 203 201 188 228 238 230

GFSNW_con_3kmhel_102.txt.gz
Helicity
-31 -29 8 35 55 87 123 147 111 161 73 50 128 79 75 82 80 86 93 79 52 68 72 66 55 55 69 55 48 39 30 40 77 79 55 60 78 76 50 60 56 71 74 68
-16 -20 -5 9 18 44 74 124 117 148 52 86 109 96 92 96 79 62 65 70 65 59 52 77 67 63 40 34 38 46 37 46 59 38 36 33 61 62 44 39 26 60 46 30
-72 -5 -11 3 26 18 40 57 63 100 88 92 78 87 89 74 77 77 64 57 67 68 63 47 55 55 45 51 46 26 17 36 45 18 -4 3 15 36 41 34 22 16 46 26
-72 -47 11 -1 11 39 48 32 74 86 87 89 70 74 81 77 65 61 44 60 41 55 57 55 46 44 32 23 15 14 23 29 30 46 36 25 19 31 44 70 42 34 23 61
-7 -64 -33 38 37 32 42 50 74 62 76 95 79 58 65 60 72 62 57 48 46 34 43 39 39 28 30 29 15 25 14 10 3 4 11 68 103 95 84 81 73 84 76 60
18 14 -32 -18 70 28 29 41 44 71 68 74 77 68 64 57 65 54 45 44 46 35 14 22 24 28 24 21 21 17 21 24 14 53 17 26 77 104 153 102 81 89 92 51
33 20 29 -17 -24 9 23 30 40 43 47 50 50 60 55 52 41 45 39 36 36 12 7 5 -1 11 21 29 43 43 52 37 43 70 33 49 32 31 39 106 66 114 75 71
38 60 35 25 -4 -46 -35 -7 10 15 39 33 45 50 42 39 38 48 53 44 26 -1 1 30 40 43 36 23 34 68 65 58 60 31 58 57 29 43 83 88 19 92 113 87
37 36 62 47 32 -24 -58 -39 -29 -9 12 37 21 31 23 33 39 34 30 14 0 14 21 36 46 45 35 37 34 32 80 66 80 77 68 44 34 71 70 70 43 59 67 68
15 42 44 49 50 34 -27 -36 -43 -14 1 10 31 44 42 30 30 45 40 40 49 29 54 46 49 51 36 45 61 64 83 110 159 137 119 62 106 128 95 80 94 73 59 66
-11 33 35 32 29 41 37 59 72 14 -5 -18 21 34 49 45 54 69 40 34 46 55 67 63 59 74 60 62 77 108 134 136 136 147 142 71 130 178 110 103 72 56 65 68
-21 -9 42 41 41 37 24 62 84 103 49 21 32 12 22 53 77 103 112 101 91 74 78 67 72 104 123 127 99 69 98 125 140 140 139 125 122 125 102 117 94 106 100 80
-13 -10 2 49 59 53 45 35 46 64 81 33 42 34 71 72 77 107 104 100 132 130 127 99 97 89 126 110 114 142 106 142 225 129 76 76 121 105 102 104 101 116 99 70
-14 -10 0 9 38 67 56 54 54 58 80 32 26 72 55 63 80 94 112 126 166 172 147 135 152 161 124 136 121 165 173 232 198 190 88 88 89 106 65 52 49 70 124 106
28 4 6 23 28 36 72 74 71 73 82 72 53 89 139 141 146 157 160 141 141 146 144 155 142 171 118 163 172 264 264 246 261 200 87 95 112 122 81 53 51 52 73 84
51 63 27 31 35 52 61 72 76 79 115 106 69 113 117 148 204 219 197 206 186 161 130 109 156 212 146 70 167 202 160 109 85 118 110 112 102 85 68 40 26 49 70 77
56 56 54 54 57 83 117 126 97 99 89 90 82 100 163 139 122 138 146 167 193 193 194 195 222 216 174 212 251 208 89 62 75 82 121 77 98 74 87 77 84 80 108 108
48 57 65 57 84 78 83 106 139 125 119 124 147 170 162 190 213 201 188 182 193 197 234 248 241 224 299 322 249 118 89 61 46 47 94 89 89 68 78 98 95 93 103 110
92 77 92 108 100 96 113 124 167 167 195 237 272 270 132 133 149 189 204 185 179 228 275 279 267 349 442 304 78 57 52 69 96 118 126 109 65 52 70 95 100 93 89 82
141 130 90 86 74 90 77 101 152 217 278 358 325 360 324 266 201 178 179 193 206 220 236 254 272 411 389 235 177 123 110 186 167 139 119 125 97 78 75 83 75 77 82 89
190 137 147 153 135 95 78 96 184 190 226 179 186 220 309 226 250 216 132 176 181 145 175 197 237 266 141 80 71 65 41 59 106 112 97 101 93 90 78 74 66 66 79 103
181 159 197 159 110 134 177 298 323 305 199 168 127 134 168 223 183 201 182 197 198 156 173 139 144 32 4 41 36 30 42 54 58 58 53 54 53 36 52 62 58 70 97 120
349 195 143 101 123 276 268 306 313 88 86 100 135 149 186 191 160 202 180 195 204 218 218 166 138 61 53 39 12 7 26 40 45 45 36 31 20 36 61 65 73 94 119 135
203 144 218 153 243 246 241 220 204 199 162 105 110 159 143 183 171 200 188 213 248 235 257 121 89 69 22 30 37 37 38 35 33 23 25 34 43 54 72 82 95 121 127 150
219 186 219 186 211 269 242 172 132 105 94 156 183 195 158 154 175 165 238 215 198 147 69 42 48 61 67 55 63 42 24 17 14 13 -2 2 30 54 64 79 97 121 148 195
229 236 287 221 202 177 187 163 148 129 151 213 210 191 185 188 231 223 197 272 223 178 73 31 78 89 63 75 55 36 34 25 19 15 1 1 28 53 67 102 119 141 180 207
286 368 374 288 206 123 139 184 229 236 236 221 217 207 159 285 250 284 304 347 241 106 76 95 100 38 59 61 57 59 58 55 64 79 37 27 41 81 100 116 141 161 176 187

GFSNW_con_3kmhel_105.txt.gz
Helicity
-12 -23 1 50 45 82 104 55 77 62 97 56 99 81 69 97 78 95 75 64 41 46 62 67 62 42 31 24 32 45 21 37 52 42 16 34 42 40 33 36 24 46 42 30
18 -5 3 18 29 -8 37 47 70 91 48 71 71 64 68 60 51 43 58 42 38 45 49 60 33 33 21 24 31 27 12 38 48 33 13 5 33 29 26 10 10 38 1 39
10 37 33 25 8 14 44 40 63 55 63 73 47 54 55 65 66 63 54 54 64 66 55 44 46 43 31 26 21 7 10 19 26 17 -1 -7 8 13 29 30 13 0 64 29
20 33 64 73 22 15 44 29 50 36 76 66 49 55 72 61 61 52 45 54 36 46 49 42 34 27 25 17 1 -4 -11 4 -3 21 29 35 65 61 77 110 93 55 37 22
7 32 48 92 121 34 40 30 37 61 39 50 62 60 50 40 44 43 38 36 33 23 29 26 28 20 10 8 -8 -12 -27 5 -16 14 19 41 96 110 125 136 145 119 87 63
28 28 49 71 108 39 17 33 45 52 50 47 53 39 44 39 42 38 26 26 26 28 20 13 15 21 16 15 21 23 25 32 16 70 26 37 77 109 133 118 115 111 95 47
57 45 39 56 71 27 -10 -1 25 31 32 35 22 27 26 35 34 37 40 43 42 27 15 28 23 39 46 57 64 67 74 60 56 80 35 56 41 30 46 73 91 106 82 85
51 66 66 45 50 42 -32 -29 -22 -2 19 11 27 26 22 25 27 33 37 33 21 12 24 41 46 47 37 51 63 100 98 89 83 58 76 99 17 75 93 105 33 86 85 57
37 54 63 73 67 60 -34 -32 -24 -16 1 28 16 14 4 16 20 31 29 11 1 17 30 49 59 59 44 62 68 58 98 97 125 140 102 69 79 110 96 70 50 77 62 53
9 33 69 65 62 61 27 5 13 -13 -5 27 16 28 27 19 10 26 12 9 32 30 50 56 62 66 55 65 81 94 101 125 185 142 152 69 123 138 103 81 96 93 35 52
8 16 19 52 65 56 28 29 48 44 1 10 51 71 76 75 70 66 78 18 30 16 35 45 48 62 71 63 89 117 131 99 130 112 135 73 169 175 123 136 140 95 35 63
-2 2 18 19 38 83 67 49 34 30 41 60 81 53 43 100 137 153 152 129 120 104 78 53 46 73 100 86 72 137 77 100 129 124 112 176 141 120 117 170 135 75 57 81
2 0 9 22 30 43 59 64 74 42 -22 -18 42 53 85 86 108 126 164 166 200 157 164 153 128 63 94 64 55 77 123 139 213 161 85 66 128 101 99 128 98 75 95 105
26 16 18 21 25 40 48 40 64 52 48 20 16 38 44 91 101 99 122 176 200 226 207 160 131 123 145 87 46 119 150 230 110 120 86 8 44 97 99 71 103 98 68 77
43 43 28 24 26 24 24 41 71 98 88 82 37 67 149 179 167 141 130 136 144 160 184 197 185 207 208 134 137 212 258 196 177 131 78 44 95 147 131 125 135 118 91 84
53 46 45 36 37 30 15 74 65 45 60 62 20 92 93 119 128 145 171 196 187 188 193 197 210 337 222 188 259 145 77 48 40 122 170 136 129 122 108 111 86 77 83 88
76 72 61 45 34 54 74 95 98 65 59 69 41 74 67 60 89 110 137 167 185 207 225 279 296 293 315 404 442 336 189 137 116 97 107 116 100 116 159 133 100 104 93 90
90 106 85 54 56 50 62 88 107 119 115 133 109 126 110 111 158 161 140 150 164 192 238 293 254 308 433 420 429 250 128 149 101 50 89 73 149 158 119 102 112 111 112 136
119 117 94 73 69 74 88 108 132 169 195 227 195 214 103 160 163 167 163 145 136 192 237 286 212 276 368 307 229 158 123 173 132 91 69 78 87 77 85 80 87 90 89 125
186 122 137 158 101 79 63 67 117 194 307 419 263 280 324 241 190 158 131 154 167 218 184 182 204 292 342 311 276 132 141 154 104 139 139 121 108 81 54 63 69 66 69 103
190 145 101 105 93 65 87 167 244 202 183 124 86 83 215 207 196 187 139 188 175 180 202 185 190 154 50 40 54 47 48 65 86 104 101 96 83 70 66 65 60 68 71 90
132 134 128 70 72 123 221 294 315 248 106 80 70 93 81 127 166 147 162 178 201 209 222 214 159 66 61 40 46 55 50 56 51 28 24 39 50 49 51 36 40 55 65 92
202 163 120 152 162 267 298 363 305 160 77 65 75 100 87 95 100 128 149 167 172 215 216 236 111 65 58 66 68 53 26 30 37 42 37 39 32 25 14 21 41 47 76 109
142 168 215 197 295 296 246 240 195 157 117 58 34 74 66 108 99 121 121 148 179 201 228 94 84 36 33 18 40 45 32 39 38 37 40 27 19 9 13 29 51 73 86 127
157 189 288 283 282 297 286 202 134 82 75 78 64 84 90 98 116 153 190 167 185 121 26 46 45 50 23 32 68 58 49 46 31 28 15 -5 0 8 9 33 59 80 104 132
178 205 338 308 287 263 240 204 170 151 151 160 176 154 97 120 174 214 173 239 157 102 64 68 109 50 33 77 98 72 69 54 34 35 41 23 36 50 43 44 79 117 122 123
249 285 261 194 166 157 129 144 171 198 199 197 156 150 122 204 186 225 216 225 202 95 106 74 15 39 73 60 84 123 99 69 47 50 42 66 94 69 44 6 35 91 128 127

GFSNW_con_3kmhel_108.txt.gz
Helicity
61 65 71 62 38 34 89 78 72 132 86 75 77 61 39 65 66 86 71 58 35 34 57 48 48 39 27 12 18 26 4 30 33 34 26 11 29 16 4 -4 4 27 3 21
43 77 76 62 6 -3 65 70 89 100 73 88 104 112 85 58 59 41 50 48 33 59 40 56 44 36 18 19 28 20 17 30 31 15 -5 -19 1 5 9 -13 -29 23 22 35
46 63 93 88 47 13 52 58 47 55 65 76 64 79 70 78 82 71 56 59 81 85 56 47 55 40 24 9 4 -6 1 17 20 23 2 -13 8 1 49 68 57 40 144 91
60 77 99 109 94 35 52 35 60 63 40 45 52 51 65 71 64 55 60 59 40 38 61 49 40 28 22 19 8 -0 -8 16 6 14 41 66 94 119 161 246 205 98 61 29
63 87 114 136 136 87 37 44 34 64 57 57 58 62 41 34 50 45 42 36 41 41 30 28 31 22 20 7 11 -8 -9 43 2 16 58 63 75 97 146 183 220 202 141 68
61 79 106 137 146 64 12 33 42 42 44 49 51 27 20 16 29 36 25 27 34 30 3 -5 -4 3 3 19 30 35 24 22 -0 59 4 -16 37 124 194 161 178 214 174 164
27 48 88 107 140 70 -0 -3 13 21 39 38 27 36 32 30 22 39 23 33 47 28 13 25 27 18 33 43 42 37 41 37 37 61 17 53 60 24 34 104 106 115 105 69
16 37 36 79 130 140 17 -11 -17 -2 25 12 41 41 32 28 46 44 44 38 22 6 11 18 37 47 39 47 56 78 100 119 100 66 92 97 -1 47 67 80 23 85 123 81
21 17 45 39 52 114 52 64 1 -28 -20 -2 -13 12 13 27 39 61 52 29 18 32 28 47 63 59 47 52 60 26 68 85 112 96 86 50 24 56 55 64 29 53 85 79
13 21 15 40 46 50 19 55 87 56 -23 -14 -1 -1 -11 -15 -1 36 58 41 41 43 42 61 71 71 73 62 70 76 89 105 179 135 128 72 91 88 92 111 106 134 152 107
-3 6 12 24 25 51 20 28 44 55 5 -16 95 85 15 52 14 17 79 23 41 28 36 39 42 53 57 64 105 124 144 91 105 93 85 21 137 171 171 165 194 215 199 114
4 4 3 10 13 24 17 28 36 45 49 49 73 52 77 109 117 78 104 89 92 74 11 23 31 61 93 74 72 102 74 95 150 146 152 152 163 169 167 242 254 247 222 136
-0 -11 -3 11 13 19 24 23 36 40 21 17 65 51 102 115 79 144 145 95 134 120 127 70 54 75 54 119 124 137 145 100 208 174 156 66 214 211 197 222 237 229 238 190
11 7 6 3 4 10 17 15 37 37 41 18 14 42 80 43 87 139 188 200 176 136 135 144 143 189 129 154 102 134 270 272 242 160 134 26 -20 37 131 148 226 185 171 122
22 32 23 15 15 7 1 3 27 43 59 44 62 91 108 105 121 150 189 211 186 171 169 218 261 230 210 180 197 314 457 361 307 175 164 127 103 132 159 150 136 110 122 104
32 42 46 42 31 18 8 36 52 8 -11 20 1 88 127 85 74 106 166 183 217 245 234 205 195 285 247 213 342 369 346 208 171 205 138 161 173 124 107 116 97 94 107 89
36 64 59 66 56 51 65 75 86 51 39 49 36 45 85 51 75 95 110 175 198 216 221 264 278 332 293 331 459 473 316 223 186 131 141 128 154 135 88 99 97 117 100 78
64 81 74 67 74 66 89 121 107 120 96 97 74 81 118 89 115 123 102 123 160 156 202 272 256 232 351 359 445 225 92 44 115 180 133 143 144 136 143 136 129 108 83 90
75 124 88 81 78 77 81 82 94 129 185 179 206 140 44 92 108 133 108 116 131 198 276 264 206 189 320 270 217 189 136 141 167 207 209 94 75 83 99 99 100 107 82 86
132 131 108 82 98 44 34 47 134 193 293 399 248 294 303 177 111 67 33 35 44 113 134 183 228 185 224 133 111 81 101 140 172 187 129 121 101 85 80 98 93 101 98 80
118 149 131 122 78 49 79 123 196 168 140 49 37 80 139 102 176 140 86 147 108 203 171 172 205 67 68 32 56 49 56 54 86 104 105 105 95 65 51 69 73 67 61 77
95 99 108 98 91 122 144 238 259 184 78 59 71 67 52 44 58 71 108 185 215 223 186 194 137 -13 41 28 30 43 60 75 61 39 35 41 40 50 67 68 51 53 51 54
90 128 133 118 125 246 278 318 274 127 66 67 49 58 40 70 89 116 164 212 223 191 237 154 78 57 62 20 52 65 46 54 43 34 34 31 26 16 27 20 27 43 53 58
134 115 175 154 218 239 185 190 182 149 143 115 73 81 54 59 53 43 106 152 171 200 183 124 32 18 29 21 7 19 43 55 51 41 32 22 24 2 -9 -6 29 47 53 57
177 167 186 228 250 253 241 219 205 154 101 75 57 65 65 17 9 79 118 134 147 70 38 29 49 46 -10 -10 11 22 55 94 92 78 80 74 39 13 2 17 8 15 28 44
184 239 301 307 301 253 234 197 184 133 129 106 103 134 108 111 169 210 160 225 174 116 72 26 -13 -3 4 -27 -22 40 50 61 96 109 87 75 66 52 36 29 35 47 43 39
291 289 297 297 278 234 194 164 124 108 150 136 147 175 151 210 238 336 248 255 195 156 130 73 50 31 34 41 -1 -14 34 59 90 125 115 117 110 117 107 68 107 128 65 76

GFSNW_con_3kmhel_111.txt.gz
Helicity
63 97 63 26 8 85 92 90 54 134 108 52 89 92 85 81 94 90 75 50 40 62 75 42 44 48 43 28 36 39 31 20 34 53 28 39 29 -1 -8 -11 -3 -0 -14 12
40 89 84 82 22 13 75 81 96 92 69 80 91 85 67 69 54 51 41 50 47 50 47 63 58 45 34 27 29 52 28 42 30 29 14 14 18 30 31 9 1 37 64 19
2 67 97 94 77 25 58 53 55 58 56 73 63 64 81 68 73 72 61 62 51 63 75 59 85 70 49 28 13 1 -4 26 31 50 9 -2 34 43 63 136 107 104 236 111
36 53 97 115 95 39 44 26 63 70 56 58 53 55 53 65 61 49 56 52 35 49 65 59 46 32 22 17 6 -0 -8 31 35 50 55 63 93 101 114 241 248 137 73 91
69 50 84 112 124 29 32 42 32 23 50 51 42 35 41 34 35 28 33 32 38 29 32 34 34 11 14 23 6 -0 -12 36 -5 28 10 33 59 99 147 172 203 235 190 85
68 83 75 120 125 25 11 17 15 27 41 34 47 57 61 64 62 54 50 47 39 46 35 20 22 21 8 11 4 12 6 9 -15 47 6 -5 44 87 171 163 224 316 249 278
39 66 81 112 148 38 26 12 3 22 50 33 47 45 40 49 48 55 46 44 52 37 11 11 9 9 17 47 68 69 69 53 42 73 1 44 56 34 68 165 110 238 178 143
27 26 61 70 111 126 11 36 33 1 44 47 46 45 39 26 28 30 27 21 15 -12 1 2 26 36 30 33 39 79 103 115 81 50 87 69 -9 48 70 118 32 173 210 119
7 16 20 54 78 90 20 30 24 62 -15 5 -10 23 24 45 53 34 28 -2 -16 10 21 19 39 45 28 24 27 16 70 106 123 114 65 42 51 72 58 82 80 76 108 78
6 7 5 19 31 78 28 14 35 27 38 45 69 32 38 77 63 45 19 33 36 38 11 21 22 23 10 13 20 38 80 95 175 116 92 49 50 88 111 91 78 86 112 142
18 18 21 15 8 26 21 21 39 44 20 15 47 65 79 79 80 27 53 -3 27 14 -35 -26 -16 -7 -4 10 53 74 111 94 97 106 103 -13 86 167 132 94 112 142 180 187
28 26 23 22 18 20 10 10 15 36 60 40 57 60 78 81 77 104 93 84 84 62 -58 -61 -45 14 -6 52 66 142 46 82 87 124 91 88 137 128 100 149 144 141 154 123
22 27 38 29 17 22 22 -12 -10 18 32 38 38 40 36 85 110 105 73 94 112 162 174 138 108 32 134 96 89 153 151 192 148 132 152 89 145 191 205 206 195 146 137 115
14 9 26 40 30 26 20 -4 1 10 1 29 8 35 74 95 95 69 132 152 154 185 206 179 188 225 199 241 218 285 332 344 325 255 167 114 100 99 105 101 137 135 124 134
26 21 18 23 26 17 11 -1 12 9 4 15 28 39 63 33 83 138 145 172 154 146 164 213 220 234 210 226 253 408 499 343 269 273 172 181 139 76 55 49 83 89 99 90
39 32 20 25 36 31 9 23 42 19 -17 9 -10 60 99 72 53 49 89 117 145 177 176 172 206 239 206 182 256 298 162 180 143 220 154 198 147 137 110 118 78 82 104 103
68 40 46 41 47 52 59 49 62 48 34 52 14 19 50 39 77 102 126 159 169 172 176 187 221 223 237 304 367 215 124 120 110 101 120 138 181 151 105 89 69 115 110 82
66 36 62 70 63 55 79 91 101 109 101 87 63 58 80 91 111 116 116 150 162 160 200 250 202 160 245 269 150 48 72 75 59 64 129 149 130 135 129 115 138 133 110 98
79 96 98 85 100 86 67 85 104 114 145 130 165 114 58 112 105 99 107 118 113 188 207 186 202 161 148 97 84 152 178 98 93 86 88 103 118 105 100 95 88 88 79 86
122 114 124 51 75 61 51 79 118 171 234 298 166 232 209 138 74 66 59 69 63 98 111 137 176 116 107 77 41 31 69 59 77 97 96 81 67 54 39 30 37 53 59 58
92 101 118 100 77 70 101 111 174 148 111 33 25 77 137 104 157 123 99 141 96 157 122 102 80 -29 51 48 66 59 23 45 62 56 75 73 70 71 57 45 40 39 43 53
93 98 104 94 105 108 134 227 211 124 82 70 60 57 58 43 23 63 65 148 162 181 181 154 70 12 38 58 61 24 28 42 56 50 50 45 42 40 41 31 19 17 21 20
85 120 129 117 139 276 279 220 160 72 86 109 126 139 87 59 80 108 142 154 144 123 188 114 64 54 99 71 39 -0 -25 -7 12 29 36 40 35 26 22 11 3 -4 7 4
124 124 198 177 250 246 137 114 62 60 117 121 105 132 115 72 100 86 158 112 158 216 175 86 26 19 41 33 -36 -45 -2 -18 -15 -0 28 48 54 46 28 11 13 33 24 14
136 139 189 240 206 173 116 91 119 117 106 116 109 88 69 83 106 60 151 233 289 198 131 91 -21 -36 -29 -12 -8 -37 -23 17 52 16 32 40 65 78 66 46 25 13 17 27
151 167 253 176 148 130 134 137 118 109 124 121 129 129 145 135 182 233 283 376 305 211 167 32 41 23 16 -4 -26 -32 -43 -9 33 76 63 60 90 115 126 115 79 64 78 87
195 185 211 230 211 183 173 137 104 118 163 125 125 125 78 216 215 347 354 379 301 288 108 59 27 23 -38 -32 -0 36 37 44 52 95 111 94 116 136 152 129 142 160 150 196

GFSNW_con_3kmhel_114.txt.gz
Helicity
28 3 -8 -1 14 115 63 90 71 105 72 54 93 94 76 67 64 75 76 73 60 62 56 59 58 58 72 43 41 41 26 23 -2 36 21 22 35 -0 -11 -20 1 -0 -14 1
44 32 -1 -25 2 77 69 69 86 84 66 79 82 76 67 70 55 63 57 48 38 28 48 61 53 45 38 20 19 34 26 34 36 36 19 23 15 -0 4 -25 -29 21 41 20
37 57 48 23 -11 18 53 47 47 48 50 67 77 73 74 69 68 66 58 52 39 41 51 39 58 50 32 16 6 -16 -2 14 16 39 -1 -30 9 20 66 101 68 87 228 105
60 79 96 74 42 8 26 38 52 29 36 43 54 46 58 66 58 50 47 52 47 55 68 56 51 35 23 12 1 -5 -6 39 37 54 80 78 102 111 143 266 261 199 135 186
62 93 130 127 102 25 16 29 43 23 44 30 41 37 63 58 55 52 45 38 33 23 40 39 45 18 18 27 11 17 6 43 17 40 42 64 79 112 165 227 238 266 245 156
44 76 130 178 165 -7 16 18 9 16 49 44 47 56 58 58 54 53 54 50 34 39 41 31 20 18 8 12 22 45 34 30 8 53 2 3 75 201 273 205 214 302 242 306
24 41 81 134 177 77 13 8 17 13 40 42 53 54 48 59 51 53 42 42 47 40 20 19 24 29 36 47 70 54 57 39 13 43 -26 36 31 -2 21 120 120 222 215 213
10 27 39 71 130 95 56 44 27 36 21 25 14 29 32 23 18 38 49 44 26 6 13 24 20 23 28 13 39 81 78 60 49 24 48 80 -27 -24 53 43 22 122 229 207
16 17 11 36 50 90 49 49 48 55 30 13 36 30 16 26 35 23 22 -5 -0 4 14 2 23 28 25 15 3 -5 74 58 74 44 20 -8 -27 10 60 27 -16 55 23 19
36 31 25 20 22 50 4 12 39 55 7 24 47 50 47 50 25 -0 8 29 35 54 4 -17 -14 -5 -22 -9 -2 -0 27 55 128 95 30 6 35 36 78 9 16 18 15 9
49 48 40 29 30 31 5 -5 10 8 50 15 63 54 54 67 81 59 50 39 26 43 -26 -47 -51 -49 -45 -38 -29 -4 26 41 35 57 6 -81 78 99 44 55 58 63 61 61
45 49 52 38 31 38 21 12 10 17 29 5 36 34 54 78 76 79 96 69 78 64 78 50 53 -26 79 71 23 140 38 34 39 88 82 89 68 106 72 109 111 117 117 110
25 45 44 41 37 31 32 8 7 27 25 6 35 29 11 53 84 121 138 63 97 105 113 119 137 72 152 141 130 168 144 207 226 222 238 133 160 150 135 181 186 194 157 123
29 32 35 39 42 39 26 20 10 26 22 27 28 49 81 89 108 92 103 94 135 137 129 151 174 206 179 170 135 195 234 263 255 262 141 40 88 86 49 46 76 85 87 104
45 26 44 49 49 40 27 14 26 27 21 13 34 51 77 69 107 129 130 123 139 190 184 192 164 151 155 192 218 255 230 159 222 247 170 193 108 55 63 81 103 94 106 119
51 31 28 51 49 54 30 19 48 34 -21 8 1 53 93 97 65 72 88 90 137 156 172 155 186 212 148 107 166 81 67 94 61 111 103 62 44 70 118 144 134 101 100 81
51 51 37 64 73 70 67 59 56 37 29 38 18 29 51 43 80 101 110 148 167 164 158 180 185 182 172 189 241 131 159 88 47 77 110 80 101 111 111 133 113 94 72 76
54 72 60 82 90 94 95 89 90 72 79 74 42 48 76 90 129 142 125 156 161 176 198 225 171 153 199 153 101 47 40 80 84 50 63 79 70 78 110 152 156 124 113 113
60 90 97 87 100 91 87 108 106 107 121 98 133 106 54 104 99 101 120 127 136 170 176 165 162 113 95 78 57 79 126 73 70 77 83 52 52 65 93 93 92 92 76 61
97 100 93 75 92 67 74 85 134 173 207 280 163 165 172 152 113 74 98 105 66 83 90 124 107 77 35 14 68 35 24 11 25 69 131 143 128 88 64 52 48 52 56 47
120 129 128 85 64 74 101 102 104 98 96 91 61 80 122 125 160 152 124 142 120 129 107 113 71 -15 30 63 118 112 74 77 68 69 61 43 46 55 43 30 31 32 39 55
112 91 85 80 95 106 97 103 141 130 129 127 111 96 103 123 98 155 139 181 186 222 170 119 24 21 52 119 148 101 48 8 15 19 27 20 12 11 15 12 11 20 22 25
94 124 124 107 119 184 142 119 153 159 131 118 140 184 119 100 87 121 150 199 220 220 287 164 25 68 127 107 94 84 -6 -16 5 23 20 26 37 35 31 9 4 1 -3 -9
119 124 164 136 156 143 108 112 120 78 95 125 131 150 147 117 151 151 221 176 221 332 285 45 102 121 44 69 82 107 67 10 17 60 69 54 41 39 42 34 25 14 -5 -6
150 129 158 176 146 139 115 78 103 96 94 118 146 163 136 151 155 151 260 296 352 198 82 129 58 38 30 19 32 34 56 45 17 11 30 19 35 73 89 103 121 129 125 107
153 176 228 127 99 39 70 97 98 114 141 150 142 139 153 136 190 278 302 381 310 226 174 96 26 -58 -46 3 -58 -5 26 55 37 28 41 45 39 74 112 132 144 152 165 144
191 178 152 177 182 161 157 115 125 149 182 148 147 165 99 224 245 366 353 373 302 158 106 48 57 41 62 -3 -10 18 64 85 73 73 68 90 84 80 114 129 135 196 206 209

GFSNW_con_3kmhel_117.txt.gz
Helicity
6 24 2 -2 21 115 83 77 74 61 39 53 68 81 62 66 65 58 60 66 56 62 61 69 65 53 53 30 33 48 41 33 9 12 33 11 -18 1 23 21 -9 -23 -44 -2
-4 15 25 -0 14 72 67 63 76 62 44 91 69 74 65 71 68 65 62 52 48 62 70 70 57 50 42 28 20 31 28 37 18 30 23 7 15 13 -2 -27 -38 19 27 13
28 16 36 34 10 74 47 55 32 41 40 41 64 62 76 70 67 64 58 62 51 51 52 41 53 46 35 20 17 -0 3 26 33 35 -4 -33 -3 -8 53 72 55 66 216 121
50 53 50 60 48 64 46 34 60 44 45 37 25 31 35 39 52 50 43 45 41 51 60 50 53 39 33 18 13 5 -4 18 14 29 54 58 72 55 85 227 239 181 83 165
47 68 80 84 78 32 23 54 53 30 41 30 34 31 44 60 49 40 31 31 30 25 37 44 57 38 36 39 23 25 24 44 19 57 37 78 136 123 148 215 216 270 272 254
24 54 87 109 107 21 22 22 21 41 34 36 38 49 47 46 35 42 39 47 44 49 44 34 29 26 12 17 39 68 48 43 25 48 -3 23 81 84 162 171 211 284 230 371
21 43 54 99 101 50 51 39 38 32 31 43 42 37 33 40 39 50 39 41 51 45 24 32 30 24 35 38 52 44 51 43 28 54 10 7 9 24 37 89 43 172 219 246
23 29 45 57 90 69 22 37 55 37 25 28 30 38 32 16 4 20 28 28 32 13 18 27 24 26 16 7 11 45 29 20 28 3 19 31 -29 -34 32 46 -28 48 138 99
24 36 40 45 56 51 22 17 33 43 18 9 64 58 62 28 25 17 38 43 61 50 1 -5 5 13 4 -5 -21 7 15 -0 5 -11 -19 -52 -56 28 31 25 3 102 37 -45
36 41 58 58 51 45 12 2 1 31 -8 6 56 35 56 78 56 31 33 37 46 53 -1 -11 -21 -15 -21 -26 -35 -48 -35 -36 28 7 -36 -28 -26 68 16 17 57 36 1 -8
45 51 57 72 63 48 16 8 13 13 21 -5 23 31 54 74 80 78 43 54 42 43 21 -14 -15 -11 -7 -7 -0 -26 64 27 -43 34 15 -72 60 98 53 82 113 81 58 74
41 51 52 62 66 65 24 22 21 32 33 14 40 50 47 54 42 38 46 54 68 52 63 49 59 60 78 76 57 62 59 36 96 120 42 88 55 99 97 122 84 93 105 62
39 41 47 54 55 56 40 23 6 32 37 28 38 55 32 34 50 70 57 46 85 85 96 77 69 60 115 84 55 93 74 141 175 134 39 63 99 126 99 185 123 91 128 129
44 37 38 49 56 56 39 22 13 27 44 44 36 19 78 94 108 74 93 104 135 139 108 104 107 121 111 108 120 142 133 173 181 187 63 4 61 76 -18 -27 25 68 112 174
48 45 37 50 62 67 45 38 54 60 48 41 44 58 90 84 94 124 136 117 97 85 98 143 127 138 115 139 172 126 144 81 129 98 56 -18 4 74 34 -9 19 64 138 157
53 51 37 40 54 64 44 49 63 45 8 28 25 46 86 109 109 106 99 116 120 150 129 110 129 153 100 84 104 -47 13 59 110 85 70 27 46 61 77 76 61 88 119 155
58 62 46 67 71 71 70 60 64 61 36 35 35 50 72 59 59 95 100 130 159 174 165 167 175 156 146 157 173 47 66 62 25 56 82 71 75 100 77 61 54 98 107 121
57 67 87 92 96 94 108 95 87 78 92 80 67 78 100 97 125 152 149 149 157 174 178 192 164 145 153 66 101 80 63 51 77 80 78 37 37 74 77 65 73 77 80 88
67 89 95 104 122 99 80 92 117 99 118 111 125 115 62 87 109 119 128 131 150 160 171 147 141 109 77 102 84 70 86 72 104 146 114 87 114 121 132 109 66 60 49 39
122 117 95 127 90 65 79 105 128 149 184 244 161 174 155 127 119 92 81 112 120 128 114 117 104 74 65 45 83 177 168 116 110 199 270 248 258 208 172 120 70 54 42 24
156 140 147 130 94 87 118 128 148 156 134 105 95 103 136 153 152 150 139 125 123 123 111 124 128 129 88 175 216 205 184 112 66 60 50 40 45 73 76 90 81 54 14 8
136 138 135 111 124 156 156 150 174 138 139 183 158 160 144 159 144 174 154 184 171 199 173 185 158 96 183 275 294 234 161 87 25 -21 -22 14 43 50 75 95 88 69 53 31
136 189 184 159 144 198 172 150 159 138 130 149 162 217 190 158 143 166 173 216 249 239 283 238 104 253 301 310 223 119 10 -37 -23 13 7 16 59 71 69 77 86 72 73 76
221 196 210 185 181 157 141 144 128 119 132 149 164 168 152 136 173 180 253 200 215 279 295 91 204 248 202 196 43 -18 -24 -10 18 35 48 62 63 61 67 63 70 90 98 99
229 202 196 195 167 167 123 100 133 150 129 126 142 160 133 177 194 188 244 242 253 185 55 116 226 202 155 88 9 -12 -34 40 119 123 110 101 81 77 81 74 70 85 104 123
157 213 269 136 137 80 79 77 109 86 109 107 126 161 187 169 212 275 290 376 268 165 128 186 133 86 35 18 -92 -58 10 98 115 111 116 114 113 96 68 58 95 108 115 116
162 164 112 129 111 106 99 88 82 96 128 151 184 225 153 217 233 337 318 285 200 123 117 74 -15 -37 -26 -16 27 55 48 27 31 67 73 87 80 101 91 72 56 70 101 127

GFSNW_con_3kmhel_120.txt.gz
Helicity
-1 -8 -16 0 29 91 73 81 62 68 56 55 50 69 52 56 59 49 68 71 56 56 47 41 40 31 40 33 22 36 41 27 26 21 40 22 23 21 42 30 0 32 5 25
7 6 0 -4 18 58 72 85 79 66 52 57 48 55 59 68 62 46 45 44 50 53 53 48 43 40 36 31 30 27 32 52 49 58 45 39 25 6 -7 -26 -29 2 -19 -3
-5 22 26 25 18 79 55 62 57 50 35 55 52 37 49 46 47 59 57 60 50 55 55 38 57 43 33 22 23 11 15 34 32 16 3 -21 -6 -20 11 23 15 45 186 142
-14 34 50 57 11 106 33 35 55 61 64 51 54 42 30 29 23 28 20 30 29 38 50 42 38 30 25 16 14 5 -2 13 -3 11 28 19 26 25 74 188 215 141 115 178
8 20 45 73 32 89 27 38 53 38 58 45 46 41 51 55 45 33 36 36 29 21 33 32 45 25 26 27 20 15 16 24 -3 27 29 46 51 74 136 162 153 220 193 174
-1 18 22 64 61 14 38 25 21 30 42 54 53 57 63 63 54 48 52 51 38 37 33 15 6 0 -9 3 13 37 23 18 6 43 13 18 38 57 123 89 129 180 176 236
11 8 19 39 60 40 47 49 53 28 21 34 39 51 56 68 59 57 40 39 48 43 33 25 20 9 7 13 17 25 36 37 34 56 21 1 -14 -5 17 68 38 118 61 84
26 27 21 31 55 46 38 33 51 61 8 27 20 39 40 34 22 32 43 52 51 46 24 27 29 27 22 16 27 41 26 24 21 -2 17 3 -1 6 35 46 19 59 64 10
30 43 44 37 43 37 30 21 31 57 64 12 42 30 38 10 20 11 39 29 46 51 18 -1 3 4 1 -2 -8 29 24 3 -24 -14 -27 -58 5 25 41 37 34 69 73 11
33 50 63 64 57 45 23 12 14 32 48 31 64 42 34 51 37 -24 20 25 35 36 22 -28 -29 -21 -13 -30 -46 -12 14 6 -9 -37 -35 -40 21 45 31 42 41 78 19 11
29 47 64 69 70 69 21 5 10 22 25 24 43 71 67 53 58 46 28 41 38 50 48 33 24 36 26 37 42 45 45 45 41 48 22 8 39 15 3 34 47 1 30 54
28 35 57 69 69 72 32 32 22 28 40 35 60 75 63 74 55 48 47 36 29 15 56 31 37 44 59 57 54 38 37 50 55 86 53 76 33 82 75 73 31 12 3 8
30 32 45 62 66 61 33 24 9 20 42 38 53 46 81 58 49 50 67 59 87 87 80 70 56 51 70 61 32 55 42 92 91 79 44 50 -20 34 48 28 28 -14 14 28
49 36 43 52 58 65 42 29 21 31 39 52 53 30 47 47 105 109 84 80 122 135 118 79 80 81 71 61 89 103 95 144 124 115 46 58 106 26 -5 14 25 6 28 42
69 59 45 45 54 60 47 36 56 55 57 64 40 71 99 110 84 112 131 128 136 115 94 91 74 93 104 128 128 85 90 105 130 71 78 35 65 64 29 16 44 57 51 59
82 57 41 48 51 51 42 42 54 43 21 45 54 56 84 129 150 133 148 122 101 108 103 103 128 155 128 100 100 19 50 115 107 67 65 72 54 41 36 36 47 47 61 64
64 45 42 54 64 64 69 64 64 62 47 55 33 60 71 66 80 89 90 110 105 123 138 150 167 147 142 160 145 88 117 62 68 65 63 91 113 125 137 107 99 77 66 57
73 56 59 70 91 86 83 99 112 98 104 103 66 79 87 91 92 96 111 126 145 158 152 152 129 137 144 88 80 120 104 124 104 151 100 50 69 101 101 87 89 90 68 49
89 104 101 79 93 88 79 103 132 133 145 133 115 113 54 103 95 88 100 118 123 140 167 148 132 132 102 92 125 158 161 190 203 235 162 107 133 148 158 136 96 98 95 62
137 142 113 64 60 61 76 113 154 183 198 245 162 181 169 147 143 126 102 99 106 126 117 114 112 83 55 99 159 215 210 231 194 168 179 147 170 163 159 125 81 57 70 94
188 156 140 139 113 92 117 127 137 133 132 158 151 131 191 192 189 166 141 143 142 138 149 159 147 96 167 222 277 293 254 204 144 97 63 38 45 59 33 36 40 74 99 111
180 178 171 149 138 144 145 143 136 122 125 155 138 137 130 158 162 190 182 234 217 228 183 181 143 141 259 350 402 360 241 179 137 80 59 41 25 18 18 33 61 94 118 105
354 301 244 190 190 177 127 112 140 148 140 124 123 156 150 153 143 180 178 188 203 173 191 180 149 253 332 377 317 271 196 135 119 103 68 57 50 24 13 16 105 157 158 127
333 260 266 202 192 169 127 153 154 139 135 126 137 168 169 162 200 201 236 204 193 247 249 145 172 131 223 236 202 139 155 109 58 46 52 42 37 31 82 140 109 97 109 117
334 258 218 179 183 191 158 136 160 152 153 178 218 217 188 223 238 203 271 275 317 237 148 183 252 301 272 244 197 171 84 47 -23 -62 -22 -4 44 88 87 105 99 115 119 132
239 240 244 177 201 150 100 76 92 95 138 166 191 243 274 243 262 321 310 406 344 222 170 167 183 160 69 33 -6 -52 -81 -82 -100 -51 8 57 106 120 115 115 126 129 112 99
247 228 120 111 108 89 76 81 84 79 111 159 160 256 191 229 310 413 343 315 201 152 137 125 58 -28 -67 -121 -103 -89 -64 -2 49 78 113 133 147 167 169 140 130 130 132 133